<?xml version="1.0" encoding="UTF-8" standalone="no" ?>
<gpx xmlns="http://www.topografix.com/GPX/1/1" xmlns:xsi="http://www.w3.org/2001/XMLSchema-instance" xsi:schemaLocation="http://www.topografix.com/GPX/1/1 http://www.topografix.com/GPX/1/1/gpx.xsd" version="1.1" creator="VisuGPX - https://www.visugpx.com">
  <metadata>
    <name>Lalouvesc</name>
    <desc><![CDATA[Lalouvesc par le col du Marchand et le Col du Faux]]></desc>
  </metadata>
  <trk>
    <name><![CDATA[Lalouvesc]]></name>
    <cmt><![CDATA[Claude, Philippe, Jean-Marie, Jacques, Edmond, Jean-pierre, JeanMichel, Bruno, Thierry]]></cmt>
    <trkseg>
      <trkpt lat="45.12054" lon="4.9811">
        <ele>204.50762939453</ele>
        <time>2009-04-18T11:27:57Z</time>
      </trkpt>
      <trkpt lat="45.12062" lon="4.98109">
        <ele>204.51823425293</ele>
        <time>2009-04-18T11:27:59Z</time>
      </trkpt>
      <trkpt lat="45.12055" lon="4.9806">
        <ele>203.28192138672</ele>
        <time>2009-04-18T11:28:04Z</time>
      </trkpt>
      <trkpt lat="45.1203" lon="4.9798">
        <ele>201.32762145996</ele>
        <time>2009-04-18T11:28:13Z</time>
      </trkpt>
      <trkpt lat="45.12008" lon="4.97881">
        <ele>198.89695739746</ele>
        <time>2009-04-18T11:28:23Z</time>
      </trkpt>
      <trkpt lat="45.11962" lon="4.97643">
        <ele>196.62117004394</ele>
        <time>2009-04-18T11:28:48Z</time>
      </trkpt>
      <trkpt lat="45.11939" lon="4.97559">
        <ele>196.46783447266</ele>
        <time>2009-04-18T11:28:58Z</time>
      </trkpt>
      <trkpt lat="45.11959" lon="4.97543">
        <ele>197.53593444824</ele>
        <time>2009-04-18T11:29:01Z</time>
      </trkpt>
      <trkpt lat="45.11967" lon="4.97519">
        <ele>197.86306762695</ele>
        <time>2009-04-18T11:29:04Z</time>
      </trkpt>
      <trkpt lat="45.11968" lon="4.97501">
        <ele>197.84530639648</ele>
        <time>2009-04-18T11:29:05Z</time>
      </trkpt>
      <trkpt lat="45.11956" lon="4.9747">
        <ele>197.24682617188</ele>
        <time>2009-04-18T11:29:09Z</time>
      </trkpt>
      <trkpt lat="45.11939" lon="4.97458">
        <ele>196.66461181641</ele>
        <time>2009-04-18T11:29:12Z</time>
      </trkpt>
      <trkpt lat="45.11926" lon="4.97458">
        <ele>196.27616882324</ele>
        <time>2009-04-18T11:29:14Z</time>
      </trkpt>
      <trkpt lat="45.11882" lon="4.97155">
        <ele>196.81089782715</ele>
        <time>2009-04-18T11:29:45Z</time>
      </trkpt>
      <trkpt lat="45.11883" lon="4.97098">
        <ele>197.12507629394</ele>
        <time>2009-04-18T11:29:51Z</time>
      </trkpt>
      <trkpt lat="45.1189" lon="4.97077">
        <ele>197.48553466797</ele>
        <time>2009-04-18T11:29:53Z</time>
      </trkpt>
      <trkpt lat="45.11901" lon="4.9707">
        <ele>197.84637451172</ele>
        <time>2009-04-18T11:29:55Z</time>
      </trkpt>
      <trkpt lat="45.119" lon="4.97057">
        <ele>198.04139709473</ele>
        <time>2009-04-18T11:29:56Z</time>
      </trkpt>
      <trkpt lat="45.11885" lon="4.97049">
        <ele>197.96617126465</ele>
        <time>2009-04-18T11:29:59Z</time>
      </trkpt>
      <trkpt lat="45.11764" lon="4.96882">
        <ele>196.38000488281</ele>
        <time>2009-04-18T11:30:23Z</time>
      </trkpt>
      <trkpt lat="45.1175" lon="4.96856">
        <ele>195.54531860352</ele>
        <time>2009-04-18T11:30:27Z</time>
      </trkpt>
      <trkpt lat="45.11755" lon="4.96836">
        <ele>195.23776245117</ele>
        <time>2009-04-18T11:30:29Z</time>
      </trkpt>
      <trkpt lat="45.11747" lon="4.9682">
        <ele>195.19021606445</ele>
        <time>2009-04-18T11:30:31Z</time>
      </trkpt>
      <trkpt lat="45.11737" lon="4.96817">
        <ele>195.32067871094</ele>
        <time>2009-04-18T11:30:32Z</time>
      </trkpt>
      <trkpt lat="45.11728" lon="4.96823">
        <ele>195.35646057129</ele>
        <time>2009-04-18T11:30:34Z</time>
      </trkpt>
      <trkpt lat="45.1171" lon="4.96795">
        <ele>195.71943664551</ele>
        <time>2009-04-18T11:30:38Z</time>
      </trkpt>
      <trkpt lat="45.11655" lon="4.9669">
        <ele>194.48162841797</ele>
        <time>2009-04-18T11:30:51Z</time>
      </trkpt>
      <trkpt lat="45.11583" lon="4.96501">
        <ele>194.98155212402</ele>
        <time>2009-04-18T11:31:13Z</time>
      </trkpt>
      <trkpt lat="45.1156" lon="4.96456">
        <ele>195.61415100098</ele>
        <time>2009-04-18T11:31:18Z</time>
      </trkpt>
      <trkpt lat="45.11475" lon="4.96328">
        <ele>198.77952575684</ele>
        <time>2009-04-18T11:31:36Z</time>
      </trkpt>
      <trkpt lat="45.11445" lon="4.96276">
        <ele>201.54397583008</ele>
        <time>2009-04-18T11:31:43Z</time>
      </trkpt>
      <trkpt lat="45.11408" lon="4.96193">
        <ele>203.10737609863</ele>
        <time>2009-04-18T11:31:53Z</time>
      </trkpt>
      <trkpt lat="45.11265" lon="4.95931">
        <ele>201.25721740723</ele>
        <time>2009-04-18T11:32:27Z</time>
      </trkpt>
      <trkpt lat="45.11149" lon="4.95754">
        <ele>195.98263549805</ele>
        <time>2009-04-18T11:32:52Z</time>
      </trkpt>
      <trkpt lat="45.11107" lon="4.95671">
        <ele>203.10209655762</ele>
        <time>2009-04-18T11:33:02Z</time>
      </trkpt>
      <trkpt lat="45.11095" lon="4.95655">
        <ele>204.96310424805</ele>
        <time>2009-04-18T11:33:04Z</time>
      </trkpt>
      <trkpt lat="45.11011" lon="4.95589">
        <ele>202.41423034668</ele>
        <time>2009-04-18T11:33:18Z</time>
      </trkpt>
      <trkpt lat="45.10984" lon="4.95557">
        <ele>199.33639526367</ele>
        <time>2009-04-18T11:33:23Z</time>
      </trkpt>
      <trkpt lat="45.10971" lon="4.95528">
        <ele>198.01824951172</ele>
        <time>2009-04-18T11:33:27Z</time>
      </trkpt>
      <trkpt lat="45.10964" lon="4.955">
        <ele>197.48745727539</ele>
        <time>2009-04-18T11:33:30Z</time>
      </trkpt>
      <trkpt lat="45.10949" lon="4.95398">
        <ele>191.72419738769</ele>
        <time>2009-04-18T11:33:41Z</time>
      </trkpt>
      <trkpt lat="45.10911" lon="4.95279">
        <ele>194.63291931152</ele>
        <time>2009-04-18T11:33:54Z</time>
      </trkpt>
      <trkpt lat="45.1086" lon="4.9514">
        <ele>198.02610778809</ele>
        <time>2009-04-18T11:34:10Z</time>
      </trkpt>
      <trkpt lat="45.10853" lon="4.95113">
        <ele>199.05169677734</ele>
        <time>2009-04-18T11:34:13Z</time>
      </trkpt>
      <trkpt lat="45.10849" lon="4.95055">
        <ele>203.23985290527</ele>
        <time>2009-04-18T11:34:19Z</time>
      </trkpt>
      <trkpt lat="45.10857" lon="4.94865">
        <ele>210.62014770508</ele>
        <time>2009-04-18T11:34:38Z</time>
      </trkpt>
      <trkpt lat="45.10862" lon="4.94821">
        <ele>210.90266418457</ele>
        <time>2009-04-18T11:34:43Z</time>
      </trkpt>
      <trkpt lat="45.10922" lon="4.94615">
        <ele>210.1483001709</ele>
        <time>2009-04-18T11:35:06Z</time>
      </trkpt>
      <trkpt lat="45.1093" lon="4.94574">
        <ele>210.29919433594</ele>
        <time>2009-04-18T11:35:10Z</time>
      </trkpt>
      <trkpt lat="45.10933" lon="4.94502">
        <ele>210.19979858398</ele>
        <time>2009-04-18T11:35:17Z</time>
      </trkpt>
      <trkpt lat="45.10929" lon="4.94413">
        <ele>209.29200744629</ele>
        <time>2009-04-18T11:35:26Z</time>
      </trkpt>
      <trkpt lat="45.10916" lon="4.94286">
        <ele>209.56149291992</ele>
        <time>2009-04-18T11:35:39Z</time>
      </trkpt>
      <trkpt lat="45.10824" lon="4.94201">
        <ele>208.31788635254</ele>
        <time>2009-04-18T11:35:55Z</time>
      </trkpt>
      <trkpt lat="45.10789" lon="4.9415">
        <ele>208</ele>
        <time>2009-04-18T11:36:03Z</time>
      </trkpt>
      <trkpt lat="45.1073" lon="4.94053">
        <ele>206.60188293457</ele>
        <time>2009-04-18T11:36:16Z</time>
      </trkpt>
      <trkpt lat="45.10717" lon="4.94025">
        <ele>205.66226196289</ele>
        <time>2009-04-18T11:36:19Z</time>
      </trkpt>
      <trkpt lat="45.10697" lon="4.93962">
        <ele>204.54402160644</ele>
        <time>2009-04-18T11:36:26Z</time>
      </trkpt>
      <trkpt lat="45.10654" lon="4.93619">
        <ele>201.14750671387</ele>
        <time>2009-04-18T11:37:02Z</time>
      </trkpt>
      <trkpt lat="45.10616" lon="4.9345">
        <ele>197.93119812012</ele>
        <time>2009-04-18T11:37:20Z</time>
      </trkpt>
      <trkpt lat="45.10523" lon="4.92965">
        <ele>192.15892028809</ele>
        <time>2009-04-18T11:38:11Z</time>
      </trkpt>
      <trkpt lat="45.10479" lon="4.92758">
        <ele>192.32783508301</ele>
        <time>2009-04-18T11:38:33Z</time>
      </trkpt>
      <trkpt lat="45.10457" lon="4.92758">
        <ele>191.82228088379</ele>
        <time>2009-04-18T11:38:36Z</time>
      </trkpt>
      <trkpt lat="45.10439" lon="4.92765">
        <ele>191.30603027344</ele>
        <time>2009-04-18T11:38:39Z</time>
      </trkpt>
      <trkpt lat="45.10418" lon="4.92781">
        <ele>190.65260314941</ele>
        <time>2009-04-18T11:38:42Z</time>
      </trkpt>
      <trkpt lat="45.10399" lon="4.92617">
        <ele>191.84561157227</ele>
        <time>2009-04-18T11:38:59Z</time>
      </trkpt>
      <trkpt lat="45.10451" lon="4.92608">
        <ele>194.28651428223</ele>
        <time>2009-04-18T11:39:07Z</time>
      </trkpt>
      <trkpt lat="45.1037" lon="4.92128">
        <ele>188</ele>
        <time>2009-04-18T11:39:57Z</time>
      </trkpt>
      <trkpt lat="45.10304" lon="4.91765">
        <ele>190.99627685547</ele>
        <time>2009-04-18T11:40:36Z</time>
      </trkpt>
      <trkpt lat="45.10291" lon="4.91757">
        <ele>190.85636901856</ele>
        <time>2009-04-18T11:40:38Z</time>
      </trkpt>
      <trkpt lat="45.10245" lon="4.91758">
        <ele>189.95663452148</ele>
        <time>2009-04-18T11:40:44Z</time>
      </trkpt>
      <trkpt lat="45.10087" lon="4.91781">
        <ele>189.29795837402</ele>
        <time>2009-04-18T11:41:07Z</time>
      </trkpt>
      <trkpt lat="45.09714" lon="4.9185">
        <ele>194.23335266113</ele>
        <time>2009-04-18T11:42:02Z</time>
      </trkpt>
      <trkpt lat="45.09521" lon="4.91885">
        <ele>198.6944732666</ele>
        <time>2009-04-18T11:42:30Z</time>
      </trkpt>
      <trkpt lat="45.09467" lon="4.91886">
        <ele>200.14848327637</ele>
        <time>2009-04-18T11:42:37Z</time>
      </trkpt>
      <trkpt lat="45.09384" lon="4.91849">
        <ele>203.33111572266</ele>
        <time>2009-04-18T11:42:50Z</time>
      </trkpt>
      <trkpt lat="45.09302" lon="4.9182">
        <ele>207.14276123047</ele>
        <time>2009-04-18T11:43:02Z</time>
      </trkpt>
      <trkpt lat="45.09251" lon="4.91806">
        <ele>210.25663757324</ele>
        <time>2009-04-18T11:43:10Z</time>
      </trkpt>
      <trkpt lat="45.09217" lon="4.91806">
        <ele>213.06953430176</ele>
        <time>2009-04-18T11:43:15Z</time>
      </trkpt>
      <trkpt lat="45.09176" lon="4.91815">
        <ele>216.06939697266</ele>
        <time>2009-04-18T11:43:21Z</time>
      </trkpt>
      <trkpt lat="45.0906" lon="4.91856">
        <ele>223.59204101562</ele>
        <time>2009-04-18T11:43:38Z</time>
      </trkpt>
      <trkpt lat="45.08918" lon="4.91883">
        <ele>233.91305541992</ele>
        <time>2009-04-18T11:43:59Z</time>
      </trkpt>
      <trkpt lat="45.08886" lon="4.91895">
        <ele>233.89617919922</ele>
        <time>2009-04-18T11:44:03Z</time>
      </trkpt>
      <trkpt lat="45.08603" lon="4.91917">
        <ele>246.01965332031</ele>
        <time>2009-04-18T11:44:44Z</time>
      </trkpt>
      <trkpt lat="45.08591" lon="4.91908">
        <ele>247.9181060791</ele>
        <time>2009-04-18T11:44:46Z</time>
      </trkpt>
      <trkpt lat="45.08465" lon="4.91913">
        <ele>255.58030700684</ele>
        <time>2009-04-18T11:45:05Z</time>
      </trkpt>
      <trkpt lat="45.08456" lon="4.91909">
        <ele>255.84785461426</ele>
        <time>2009-04-18T11:45:06Z</time>
      </trkpt>
      <trkpt lat="45.0845" lon="4.91898">
        <ele>256.36169433594</ele>
        <time>2009-04-18T11:45:07Z</time>
      </trkpt>
      <trkpt lat="45.0838" lon="4.91929">
        <ele>254.03182983398</ele>
        <time>2009-04-18T11:45:18Z</time>
      </trkpt>
      <trkpt lat="45.08325" lon="4.91942">
        <ele>252.71394348144</ele>
        <time>2009-04-18T11:45:26Z</time>
      </trkpt>
      <trkpt lat="45.08299" lon="4.91937">
        <ele>252.71063232422</ele>
        <time>2009-04-18T11:45:30Z</time>
      </trkpt>
      <trkpt lat="45.08154" lon="4.91883">
        <ele>248.84953308106</ele>
        <time>2009-04-18T11:45:52Z</time>
      </trkpt>
      <trkpt lat="45.08145" lon="4.9185">
        <ele>247.80645751953</ele>
        <time>2009-04-18T11:45:55Z</time>
      </trkpt>
      <trkpt lat="45.08154" lon="4.91765">
        <ele>245.51354980469</ele>
        <time>2009-04-18T11:46:04Z</time>
      </trkpt>
      <trkpt lat="45.0818" lon="4.91623">
        <ele>238.95777893066</ele>
        <time>2009-04-18T11:46:19Z</time>
      </trkpt>
      <trkpt lat="45.0818" lon="4.91594">
        <ele>236.75663757324</ele>
        <time>2009-04-18T11:46:22Z</time>
      </trkpt>
      <trkpt lat="45.08174" lon="4.91573">
        <ele>235.89848327637</ele>
        <time>2009-04-18T11:46:24Z</time>
      </trkpt>
      <trkpt lat="45.08157" lon="4.91546">
        <ele>236.76559448242</ele>
        <time>2009-04-18T11:46:28Z</time>
      </trkpt>
      <trkpt lat="45.0806" lon="4.91451">
        <ele>234.26945495606</ele>
        <time>2009-04-18T11:46:45Z</time>
      </trkpt>
      <trkpt lat="45.07979" lon="4.91351">
        <ele>228.87771606445</ele>
        <time>2009-04-18T11:47:00Z</time>
      </trkpt>
      <trkpt lat="45.0785" lon="4.91156">
        <ele>223.79370117188</ele>
        <time>2009-04-18T11:47:28Z</time>
      </trkpt>
      <trkpt lat="45.07798" lon="4.91103">
        <ele>223.35821533203</ele>
        <time>2009-04-18T11:47:37Z</time>
      </trkpt>
      <trkpt lat="45.07764" lon="4.91055">
        <ele>220.93746948242</ele>
        <time>2009-04-18T11:47:44Z</time>
      </trkpt>
      <trkpt lat="45.07697" lon="4.90957">
        <ele>217.86322021484</ele>
        <time>2009-04-18T11:47:58Z</time>
      </trkpt>
      <trkpt lat="45.07673" lon="4.90914">
        <ele>215.63354492188</ele>
        <time>2009-04-18T11:48:03Z</time>
      </trkpt>
      <trkpt lat="45.07613" lon="4.90751">
        <ele>212.53775024414</ele>
        <time>2009-04-18T11:48:22Z</time>
      </trkpt>
      <trkpt lat="45.07609" lon="4.90719">
        <ele>212.03901672363</ele>
        <time>2009-04-18T11:48:26Z</time>
      </trkpt>
      <trkpt lat="45.07612" lon="4.90609">
        <ele>210.21786499023</ele>
        <time>2009-04-18T11:48:37Z</time>
      </trkpt>
      <trkpt lat="45.07624" lon="4.90541">
        <ele>208.14739990234</ele>
        <time>2009-04-18T11:48:44Z</time>
      </trkpt>
      <trkpt lat="45.07672" lon="4.90427">
        <ele>204.23439025879</ele>
        <time>2009-04-18T11:48:57Z</time>
      </trkpt>
      <trkpt lat="45.077" lon="4.9035">
        <ele>200.92425537109</ele>
        <time>2009-04-18T11:49:06Z</time>
      </trkpt>
      <trkpt lat="45.07706" lon="4.9031">
        <ele>198.50082397461</ele>
        <time>2009-04-18T11:49:11Z</time>
      </trkpt>
      <trkpt lat="45.07714" lon="4.90102">
        <ele>187.89959716797</ele>
        <time>2009-04-18T11:49:32Z</time>
      </trkpt>
      <trkpt lat="45.07723" lon="4.90042">
        <ele>187.28894042969</ele>
        <time>2009-04-18T11:49:38Z</time>
      </trkpt>
      <trkpt lat="45.0774" lon="4.8998">
        <ele>187.27412414551</ele>
        <time>2009-04-18T11:49:45Z</time>
      </trkpt>
      <trkpt lat="45.07759" lon="4.89943">
        <ele>187.78361511231</ele>
        <time>2009-04-18T11:49:50Z</time>
      </trkpt>
      <trkpt lat="45.07861" lon="4.89779">
        <ele>182.08984375</ele>
        <time>2009-04-18T11:50:12Z</time>
      </trkpt>
      <trkpt lat="45.07869" lon="4.89756">
        <ele>182.21734619141</ele>
        <time>2009-04-18T11:50:14Z</time>
      </trkpt>
      <trkpt lat="45.07876" lon="4.89449">
        <ele>185.98016357422</ele>
        <time>2009-04-18T11:50:46Z</time>
      </trkpt>
      <trkpt lat="45.07869" lon="4.89395">
        <ele>186.29316711426</ele>
        <time>2009-04-18T11:50:51Z</time>
      </trkpt>
      <trkpt lat="45.0786" lon="4.89358">
        <ele>185.8670501709</ele>
        <time>2009-04-18T11:50:55Z</time>
      </trkpt>
      <trkpt lat="45.0782" lon="4.89242">
        <ele>179.10700988769</ele>
        <time>2009-04-18T11:51:09Z</time>
      </trkpt>
      <trkpt lat="45.07796" lon="4.89194">
        <ele>177.70959472656</ele>
        <time>2009-04-18T11:51:15Z</time>
      </trkpt>
      <trkpt lat="45.07764" lon="4.89094">
        <ele>170.00267028809</ele>
        <time>2009-04-18T11:51:26Z</time>
      </trkpt>
      <trkpt lat="45.07749" lon="4.89062">
        <ele>168.76382446289</ele>
        <time>2009-04-18T11:51:30Z</time>
      </trkpt>
      <trkpt lat="45.07716" lon="4.89012">
        <ele>167.97103881836</ele>
        <time>2009-04-18T11:51:37Z</time>
      </trkpt>
      <trkpt lat="45.07682" lon="4.88981">
        <ele>167.08265686035</ele>
        <time>2009-04-18T11:51:43Z</time>
      </trkpt>
      <trkpt lat="45.07647" lon="4.8896">
        <ele>166.40609741211</ele>
        <time>2009-04-18T11:51:48Z</time>
      </trkpt>
      <trkpt lat="45.0762" lon="4.88955">
        <ele>166.15707397461</ele>
        <time>2009-04-18T11:51:52Z</time>
      </trkpt>
      <trkpt lat="45.0755" lon="4.88957">
        <ele>165.76258850098</ele>
        <time>2009-04-18T11:52:02Z</time>
      </trkpt>
      <trkpt lat="45.0754" lon="4.88948">
        <ele>165.4288482666</ele>
        <time>2009-04-18T11:52:04Z</time>
      </trkpt>
      <trkpt lat="45.07515" lon="4.88954">
        <ele>165.44371032715</ele>
        <time>2009-04-18T11:52:07Z</time>
      </trkpt>
      <trkpt lat="45.07467" lon="4.88944">
        <ele>165.3752746582</ele>
        <time>2009-04-18T11:52:14Z</time>
      </trkpt>
      <trkpt lat="45.07433" lon="4.88924">
        <ele>164.47508239746</ele>
        <time>2009-04-18T11:52:20Z</time>
      </trkpt>
      <trkpt lat="45.07406" lon="4.88881">
        <ele>162.38279724121</ele>
        <time>2009-04-18T11:52:26Z</time>
      </trkpt>
      <trkpt lat="45.07382" lon="4.88834">
        <ele>160.18434143066</ele>
        <time>2009-04-18T11:52:32Z</time>
      </trkpt>
      <trkpt lat="45.07369" lon="4.88762">
        <ele>159.12272644043</ele>
        <time>2009-04-18T11:52:39Z</time>
      </trkpt>
      <trkpt lat="45.07356" lon="4.88644">
        <ele>158.42649841309</ele>
        <time>2009-04-18T11:52:51Z</time>
      </trkpt>
      <trkpt lat="45.073" lon="4.88435">
        <ele>155.39776611328</ele>
        <time>2009-04-18T11:53:14Z</time>
      </trkpt>
      <trkpt lat="45.07266" lon="4.88357">
        <ele>155.80975341797</ele>
        <time>2009-04-18T11:53:24Z</time>
      </trkpt>
      <trkpt lat="45.07239" lon="4.88322">
        <ele>155.61595153809</ele>
        <time>2009-04-18T11:53:29Z</time>
      </trkpt>
      <trkpt lat="45.07158" lon="4.88195">
        <ele>152.017578125</ele>
        <time>2009-04-18T11:53:46Z</time>
      </trkpt>
      <trkpt lat="45.07098" lon="4.88072">
        <ele>150.68807983398</ele>
        <time>2009-04-18T11:54:02Z</time>
      </trkpt>
      <trkpt lat="45.07058" lon="4.8797">
        <ele>150.30456542969</ele>
        <time>2009-04-18T11:54:13Z</time>
      </trkpt>
      <trkpt lat="45.07024" lon="4.87869">
        <ele>149.97486877441</ele>
        <time>2009-04-18T11:54:25Z</time>
      </trkpt>
      <trkpt lat="45.06947" lon="4.87601">
        <ele>145.83210754394</ele>
        <time>2009-04-18T11:54:54Z</time>
      </trkpt>
      <trkpt lat="45.06928" lon="4.87558">
        <ele>145.16358947754</ele>
        <time>2009-04-18T11:55:00Z</time>
      </trkpt>
      <trkpt lat="45.0686" lon="4.8745">
        <ele>143.12777709961</ele>
        <time>2009-04-18T11:55:14Z</time>
      </trkpt>
      <trkpt lat="45.06852" lon="4.87429">
        <ele>143.03308105469</ele>
        <time>2009-04-18T11:55:17Z</time>
      </trkpt>
      <trkpt lat="45.0687" lon="4.87281">
        <ele>143.0456237793</ele>
        <time>2009-04-18T11:55:32Z</time>
      </trkpt>
      <trkpt lat="45.06868" lon="4.87267">
        <ele>143.03439331055</ele>
        <time>2009-04-18T11:55:34Z</time>
      </trkpt>
      <trkpt lat="45.06879" lon="4.87235">
        <ele>142.83770751953</ele>
        <time>2009-04-18T11:55:37Z</time>
      </trkpt>
      <trkpt lat="45.06931" lon="4.87128">
        <ele>142.27340698242</ele>
        <time>2009-04-18T11:55:51Z</time>
      </trkpt>
      <trkpt lat="45.06981" lon="4.87045">
        <ele>140.09840393066</ele>
        <time>2009-04-18T11:56:02Z</time>
      </trkpt>
      <trkpt lat="45.07002" lon="4.86988">
        <ele>138.66743469238</ele>
        <time>2009-04-18T11:56:08Z</time>
      </trkpt>
      <trkpt lat="45.07033" lon="4.86836">
        <ele>134.07064819336</ele>
        <time>2009-04-18T11:56:24Z</time>
      </trkpt>
      <trkpt lat="45.07039" lon="4.86724">
        <ele>133.26741027832</ele>
        <time>2009-04-18T11:56:36Z</time>
      </trkpt>
      <trkpt lat="45.07053" lon="4.86684">
        <ele>132.51542663574</ele>
        <time>2009-04-18T11:56:40Z</time>
      </trkpt>
      <trkpt lat="45.07074" lon="4.86644">
        <ele>131.80950927734</ele>
        <time>2009-04-18T11:56:45Z</time>
      </trkpt>
      <trkpt lat="45.07083" lon="4.86604">
        <ele>131.2488861084</ele>
        <time>2009-04-18T11:56:50Z</time>
      </trkpt>
      <trkpt lat="45.07083" lon="4.86565">
        <ele>130.99946594238</ele>
        <time>2009-04-18T11:56:54Z</time>
      </trkpt>
      <trkpt lat="45.07078" lon="4.8653">
        <ele>130.96035766602</ele>
        <time>2009-04-18T11:56:57Z</time>
      </trkpt>
      <trkpt lat="45.07054" lon="4.86472">
        <ele>130.31350708008</ele>
        <time>2009-04-18T11:57:04Z</time>
      </trkpt>
      <trkpt lat="45.07062" lon="4.86441">
        <ele>130.03768920898</ele>
        <time>2009-04-18T11:57:08Z</time>
      </trkpt>
      <trkpt lat="45.07057" lon="4.86415">
        <ele>129.66633605957</ele>
        <time>2009-04-18T11:57:10Z</time>
      </trkpt>
      <trkpt lat="45.07043" lon="4.86393">
        <ele>129.23318481445</ele>
        <time>2009-04-18T11:57:13Z</time>
      </trkpt>
      <trkpt lat="45.07024" lon="4.86383">
        <ele>128.88412475586</ele>
        <time>2009-04-18T11:57:16Z</time>
      </trkpt>
      <trkpt lat="45.07056" lon="4.86288">
        <ele>128.8505859375</ele>
        <time>2009-04-18T11:57:27Z</time>
      </trkpt>
      <trkpt lat="45.07071" lon="4.86217">
        <ele>128.60426330566</ele>
        <time>2009-04-18T11:57:35Z</time>
      </trkpt>
      <trkpt lat="45.07072" lon="4.86165">
        <ele>128.0173034668</ele>
        <time>2009-04-18T11:57:40Z</time>
      </trkpt>
      <trkpt lat="45.07065" lon="4.8601">
        <ele>128.77783203125</ele>
        <time>2009-04-18T11:57:56Z</time>
      </trkpt>
      <trkpt lat="45.07068" lon="4.85922">
        <ele>128.39949035644</ele>
        <time>2009-04-18T11:58:05Z</time>
      </trkpt>
      <trkpt lat="45.07081" lon="4.85851">
        <ele>128.01268005371</ele>
        <time>2009-04-18T11:58:12Z</time>
      </trkpt>
      <trkpt lat="45.07089" lon="4.8585">
        <ele>128.06622314453</ele>
        <time>2009-04-18T11:58:13Z</time>
      </trkpt>
      <trkpt lat="45.07095" lon="4.85838">
        <ele>128.13946533203</ele>
        <time>2009-04-18T11:58:15Z</time>
      </trkpt>
      <trkpt lat="45.0709" lon="4.85825">
        <ele>127.97214508057</ele>
        <time>2009-04-18T11:58:16Z</time>
      </trkpt>
      <trkpt lat="45.07081" lon="4.85821">
        <ele>127.84325408935</ele>
        <time>2009-04-18T11:58:18Z</time>
      </trkpt>
      <trkpt lat="45.0709" lon="4.85526">
        <ele>124.15991210938</ele>
        <time>2009-04-18T11:58:48Z</time>
      </trkpt>
      <trkpt lat="45.07091" lon="4.85366">
        <ele>122.57950592041</ele>
        <time>2009-04-18T11:59:04Z</time>
      </trkpt>
      <trkpt lat="45.07077" lon="4.85085">
        <ele>120.94444274902</ele>
        <time>2009-04-18T11:59:33Z</time>
      </trkpt>
      <trkpt lat="45.0708" lon="4.85009">
        <ele>120.99578094482</ele>
        <time>2009-04-18T11:59:41Z</time>
      </trkpt>
      <trkpt lat="45.07078" lon="4.84956">
        <ele>120.96727752685</ele>
        <time>2009-04-18T11:59:46Z</time>
      </trkpt>
      <trkpt lat="45.0705" lon="4.84794">
        <ele>121.59930419922</ele>
        <time>2009-04-18T12:00:03Z</time>
      </trkpt>
      <trkpt lat="45.07038" lon="4.84684">
        <ele>121.09508514404</ele>
        <time>2009-04-18T12:00:15Z</time>
      </trkpt>
      <trkpt lat="45.07022" lon="4.84579">
        <ele>120.3034286499</ele>
        <time>2009-04-18T12:00:26Z</time>
      </trkpt>
      <trkpt lat="45.07021" lon="4.84485">
        <ele>120.86531066894</ele>
        <time>2009-04-18T12:00:35Z</time>
      </trkpt>
      <trkpt lat="45.07038" lon="4.84325">
        <ele>121.05438995361</ele>
        <time>2009-04-18T12:00:52Z</time>
      </trkpt>
      <trkpt lat="45.07044" lon="4.8432">
        <ele>121.07571411133</ele>
        <time>2009-04-18T12:00:53Z</time>
      </trkpt>
      <trkpt lat="45.07042" lon="4.84315">
        <ele>121.10922241211</ele>
        <time>2009-04-18T12:00:53Z</time>
      </trkpt>
      <trkpt lat="45.07038" lon="4.84314">
        <ele>121.12580108643</ele>
        <time>2009-04-18T12:00:54Z</time>
      </trkpt>
      <trkpt lat="45.07035" lon="4.8432">
        <ele>121.09252929688</ele>
        <time>2009-04-18T12:00:55Z</time>
      </trkpt>
      <trkpt lat="45.06877" lon="4.84334">
        <ele>120.94457244873</ele>
        <time>2009-04-18T12:01:18Z</time>
      </trkpt>
      <trkpt lat="45.06905" lon="4.84236">
        <ele>120.58856964111</ele>
        <time>2009-04-18T12:01:28Z</time>
      </trkpt>
      <trkpt lat="45.06787" lon="4.84125">
        <ele>119.89450073242</ele>
        <time>2009-04-18T12:01:49Z</time>
      </trkpt>
      <trkpt lat="45.06682" lon="4.84052">
        <ele>116.11347198486</ele>
        <time>2009-04-18T12:02:06Z</time>
      </trkpt>
      <trkpt lat="45.06629" lon="4.8403">
        <ele>116.73767852783</ele>
        <time>2009-04-18T12:02:14Z</time>
      </trkpt>
      <trkpt lat="45.0656" lon="4.83998">
        <ele>118.84178161621</ele>
        <time>2009-04-18T12:02:24Z</time>
      </trkpt>
      <trkpt lat="45.06559" lon="4.83986">
        <ele>118.92543029785</ele>
        <time>2009-04-18T12:02:25Z</time>
      </trkpt>
      <trkpt lat="45.06569" lon="4.83949">
        <ele>118.62523651123</ele>
        <time>2009-04-18T12:02:30Z</time>
      </trkpt>
      <trkpt lat="45.0664" lon="4.83769">
        <ele>119.12551879883</ele>
        <time>2009-04-18T12:02:51Z</time>
      </trkpt>
      <trkpt lat="45.0664" lon="4.83758">
        <ele>119.38412475586</ele>
        <time>2009-04-18T12:02:52Z</time>
      </trkpt>
      <trkpt lat="45.06668" lon="4.83684">
        <ele>121.6661529541</ele>
        <time>2009-04-18T12:03:00Z</time>
      </trkpt>
      <trkpt lat="45.06764" lon="4.83472">
        <ele>124.67890167236</ele>
        <time>2009-04-18T12:03:26Z</time>
      </trkpt>
      <trkpt lat="45.06865" lon="4.83287">
        <ele>122.80311584473</ele>
        <time>2009-04-18T12:03:50Z</time>
      </trkpt>
      <trkpt lat="45.06875" lon="4.83229">
        <ele>123.6455154419</ele>
        <time>2009-04-18T12:03:56Z</time>
      </trkpt>
      <trkpt lat="45.06878" lon="4.83078">
        <ele>125.25646972656</ele>
        <time>2009-04-18T12:04:11Z</time>
      </trkpt>
      <trkpt lat="45.06882" lon="4.83035">
        <ele>124.90399169922</ele>
        <time>2009-04-18T12:04:16Z</time>
      </trkpt>
      <trkpt lat="45.06886" lon="4.83001">
        <ele>124.58355712891</ele>
        <time>2009-04-18T12:04:19Z</time>
      </trkpt>
      <trkpt lat="45.06902" lon="4.82944">
        <ele>124.38478088379</ele>
        <time>2009-04-18T12:04:26Z</time>
      </trkpt>
      <trkpt lat="45.07049" lon="4.82743">
        <ele>126.67691040039</ele>
        <time>2009-04-18T12:04:55Z</time>
      </trkpt>
      <trkpt lat="45.07071" lon="4.82698">
        <ele>124.88591003418</ele>
        <time>2009-04-18T12:05:01Z</time>
      </trkpt>
      <trkpt lat="45.07119" lon="4.82576">
        <ele>124.09386444092</ele>
        <time>2009-04-18T12:05:15Z</time>
      </trkpt>
      <trkpt lat="45.07188" lon="4.82368">
        <ele>126.35583496094</ele>
        <time>2009-04-18T12:05:38Z</time>
      </trkpt>
      <trkpt lat="45.07196" lon="4.82358">
        <ele>126.20687866211</ele>
        <time>2009-04-18T12:05:40Z</time>
      </trkpt>
      <trkpt lat="45.0725" lon="4.82178">
        <ele>125.00659179688</ele>
        <time>2009-04-18T12:06:00Z</time>
      </trkpt>
      <trkpt lat="45.07256" lon="4.82171">
        <ele>124.85382843018</ele>
        <time>2009-04-18T12:06:01Z</time>
      </trkpt>
      <trkpt lat="45.07255" lon="4.82157">
        <ele>124.87585449219</ele>
        <time>2009-04-18T12:06:03Z</time>
      </trkpt>
      <trkpt lat="45.07247" lon="4.82155">
        <ele>125.09739685059</ele>
        <time>2009-04-18T12:06:04Z</time>
      </trkpt>
      <trkpt lat="45.07242" lon="4.82161">
        <ele>125.28775787353</ele>
        <time>2009-04-18T12:06:05Z</time>
      </trkpt>
      <trkpt lat="45.07184" lon="4.82105">
        <ele>126.79447937012</ele>
        <time>2009-04-18T12:06:15Z</time>
      </trkpt>
      <trkpt lat="45.07055" lon="4.81963">
        <ele>127.27182006836</ele>
        <time>2009-04-18T12:06:38Z</time>
      </trkpt>
      <trkpt lat="45.07019" lon="4.81904">
        <ele>127.39404296875</ele>
        <time>2009-04-18T12:06:46Z</time>
      </trkpt>
      <trkpt lat="45.06984" lon="4.81812">
        <ele>127.72371673584</ele>
        <time>2009-04-18T12:06:57Z</time>
      </trkpt>
      <trkpt lat="45.06892" lon="4.8149">
        <ele>127.54244232178</ele>
        <time>2009-04-18T12:07:32Z</time>
      </trkpt>
      <trkpt lat="45.06842" lon="4.81354">
        <ele>131.22897338867</ele>
        <time>2009-04-18T12:07:48Z</time>
      </trkpt>
      <trkpt lat="45.06742" lon="4.81112">
        <ele>135.08154296875</ele>
        <time>2009-04-18T12:08:17Z</time>
      </trkpt>
      <trkpt lat="45.06729" lon="4.81057">
        <ele>134.54260253906</ele>
        <time>2009-04-18T12:08:23Z</time>
      </trkpt>
      <trkpt lat="45.06719" lon="4.80926">
        <ele>130.99604797363</ele>
        <time>2009-04-18T12:08:36Z</time>
      </trkpt>
      <trkpt lat="45.06722" lon="4.80918">
        <ele>130.41477966309</ele>
        <time>2009-04-18T12:08:37Z</time>
      </trkpt>
      <trkpt lat="45.06719" lon="4.80868">
        <ele>130.54721069336</ele>
        <time>2009-04-18T12:08:42Z</time>
      </trkpt>
      <trkpt lat="45.06724" lon="4.80863">
        <ele>130.21507263184</ele>
        <time>2009-04-18T12:08:43Z</time>
      </trkpt>
      <trkpt lat="45.06726" lon="4.80851">
        <ele>130.11906433106</ele>
        <time>2009-04-18T12:08:44Z</time>
      </trkpt>
      <trkpt lat="45.06724" lon="4.80842">
        <ele>130.2326965332</ele>
        <time>2009-04-18T12:08:45Z</time>
      </trkpt>
      <trkpt lat="45.06711" lon="4.80836">
        <ele>130.89404296875</ele>
        <time>2009-04-18T12:08:47Z</time>
      </trkpt>
      <trkpt lat="45.06708" lon="4.8082">
        <ele>130.68803405762</ele>
        <time>2009-04-18T12:08:49Z</time>
      </trkpt>
      <trkpt lat="45.06689" lon="4.80645">
        <ele>129.27531433106</ele>
        <time>2009-04-18T12:09:07Z</time>
      </trkpt>
      <trkpt lat="45.06689" lon="4.80496">
        <ele>127.92456054688</ele>
        <time>2009-04-18T12:09:22Z</time>
      </trkpt>
      <trkpt lat="45.0669" lon="4.80487">
        <ele>127.88793945312</ele>
        <time>2009-04-18T12:09:23Z</time>
      </trkpt>
      <trkpt lat="45.06701" lon="4.80467">
        <ele>127.35693359375</ele>
        <time>2009-04-18T12:09:26Z</time>
      </trkpt>
      <trkpt lat="45.06703" lon="4.80273">
        <ele>126.43823242188</ele>
        <time>2009-04-18T12:09:46Z</time>
      </trkpt>
      <trkpt lat="45.06701" lon="4.80155">
        <ele>126</ele>
        <time>2009-04-18T12:09:58Z</time>
      </trkpt>
      <trkpt lat="45.06692" lon="4.80137">
        <ele>126</ele>
        <time>2009-04-18T12:10:00Z</time>
      </trkpt>
      <trkpt lat="45.06694" lon="4.79844">
        <ele>127.21528625488</ele>
        <time>2009-04-18T12:10:30Z</time>
      </trkpt>
      <trkpt lat="45.06686" lon="4.79769">
        <ele>128.30763244629</ele>
        <time>2009-04-18T12:10:38Z</time>
      </trkpt>
      <trkpt lat="45.06674" lon="4.79731">
        <ele>129.09576416016</ele>
        <time>2009-04-18T12:10:42Z</time>
      </trkpt>
      <trkpt lat="45.0659" lon="4.79519">
        <ele>135.54588317871</ele>
        <time>2009-04-18T12:11:07Z</time>
      </trkpt>
      <trkpt lat="45.06534" lon="4.7935">
        <ele>139.21730041504</ele>
        <time>2009-04-18T12:11:26Z</time>
      </trkpt>
      <trkpt lat="45.06517" lon="4.79324">
        <ele>138.56381225586</ele>
        <time>2009-04-18T12:11:29Z</time>
      </trkpt>
      <trkpt lat="45.06475" lon="4.79282">
        <ele>145.37461853027</ele>
        <time>2009-04-18T12:11:37Z</time>
      </trkpt>
      <trkpt lat="45.06454" lon="4.7925">
        <ele>149.63110351562</ele>
        <time>2009-04-18T12:11:41Z</time>
      </trkpt>
      <trkpt lat="45.06445" lon="4.79233">
        <ele>152.40589904785</ele>
        <time>2009-04-18T12:11:43Z</time>
      </trkpt>
      <trkpt lat="45.06437" lon="4.79203">
        <ele>153.79745483398</ele>
        <time>2009-04-18T12:11:47Z</time>
      </trkpt>
      <trkpt lat="45.06433" lon="4.79165">
        <ele>153.10481262207</ele>
        <time>2009-04-18T12:11:51Z</time>
      </trkpt>
      <trkpt lat="45.06435" lon="4.79145">
        <ele>152.95886230469</ele>
        <time>2009-04-18T12:11:53Z</time>
      </trkpt>
      <trkpt lat="45.06478" lon="4.78996">
        <ele>148.80494689941</ele>
        <time>2009-04-18T12:12:09Z</time>
      </trkpt>
      <trkpt lat="45.06509" lon="4.78837">
        <ele>153.78782653809</ele>
        <time>2009-04-18T12:12:26Z</time>
      </trkpt>
      <trkpt lat="45.06524" lon="4.78789">
        <ele>156.15238952637</ele>
        <time>2009-04-18T12:12:31Z</time>
      </trkpt>
      <trkpt lat="45.06619" lon="4.78581">
        <ele>152.54949951172</ele>
        <time>2009-04-18T12:12:57Z</time>
      </trkpt>
      <trkpt lat="45.06634" lon="4.78518">
        <ele>153.03289794922</ele>
        <time>2009-04-18T12:13:03Z</time>
      </trkpt>
      <trkpt lat="45.06636" lon="4.78495">
        <ele>153.87745666504</ele>
        <time>2009-04-18T12:13:06Z</time>
      </trkpt>
      <trkpt lat="45.06626" lon="4.78395">
        <ele>157.39080810547</ele>
        <time>2009-04-18T12:13:16Z</time>
      </trkpt>
      <trkpt lat="45.0663" lon="4.78298">
        <ele>154.99801635742</ele>
        <time>2009-04-18T12:13:26Z</time>
      </trkpt>
      <trkpt lat="45.06628" lon="4.78201">
        <ele>149.93086242676</ele>
        <time>2009-04-18T12:13:36Z</time>
      </trkpt>
      <trkpt lat="45.06623" lon="4.78172">
        <ele>148.09645080566</ele>
        <time>2009-04-18T12:13:39Z</time>
      </trkpt>
      <trkpt lat="45.06604" lon="4.78145">
        <ele>148.58317565918</ele>
        <time>2009-04-18T12:13:43Z</time>
      </trkpt>
      <trkpt lat="45.06509" lon="4.78125">
        <ele>149.39178466797</ele>
        <time>2009-04-18T12:13:57Z</time>
      </trkpt>
      <trkpt lat="45.06476" lon="4.78124">
        <ele>147.09364318848</ele>
        <time>2009-04-18T12:14:01Z</time>
      </trkpt>
      <trkpt lat="45.06461" lon="4.78126">
        <ele>146.18893432617</ele>
        <time>2009-04-18T12:14:04Z</time>
      </trkpt>
      <trkpt lat="45.06428" lon="4.78146">
        <ele>146.00175476074</ele>
        <time>2009-04-18T12:14:09Z</time>
      </trkpt>
      <trkpt lat="45.06398" lon="4.78211">
        <ele>153.51712036133</ele>
        <time>2009-04-18T12:14:17Z</time>
      </trkpt>
      <trkpt lat="45.06387" lon="4.78276">
        <ele>161.37525939941</ele>
        <time>2009-04-18T12:14:24Z</time>
      </trkpt>
      <trkpt lat="45.06355" lon="4.78344">
        <ele>158.77676391602</ele>
        <time>2009-04-18T12:14:32Z</time>
      </trkpt>
      <trkpt lat="45.06352" lon="4.78413">
        <ele>167.45425415039</ele>
        <time>2009-04-18T12:14:39Z</time>
      </trkpt>
      <trkpt lat="45.06348" lon="4.78435">
        <ele>168.42596435547</ele>
        <time>2009-04-18T12:14:41Z</time>
      </trkpt>
      <trkpt lat="45.06331" lon="4.78479">
        <ele>165.06819152832</ele>
        <time>2009-04-18T12:14:46Z</time>
      </trkpt>
      <trkpt lat="45.06284" lon="4.78559">
        <ele>167.25842285156</ele>
        <time>2009-04-18T12:14:57Z</time>
      </trkpt>
      <trkpt lat="45.06255" lon="4.78595">
        <ele>163.8162689209</ele>
        <time>2009-04-18T12:15:03Z</time>
      </trkpt>
      <trkpt lat="45.0623" lon="4.78616">
        <ele>165.60945129394</ele>
        <time>2009-04-18T12:15:07Z</time>
      </trkpt>
      <trkpt lat="45.06173" lon="4.78644">
        <ele>162.21363830566</ele>
        <time>2009-04-18T12:15:16Z</time>
      </trkpt>
      <trkpt lat="45.06148" lon="4.78638">
        <ele>159.00637817383</ele>
        <time>2009-04-18T12:15:19Z</time>
      </trkpt>
      <trkpt lat="45.06068" lon="4.78635">
        <ele>160.20771789551</ele>
        <time>2009-04-18T12:15:31Z</time>
      </trkpt>
      <trkpt lat="45.06034" lon="4.78617">
        <ele>159.44711303711</ele>
        <time>2009-04-18T12:15:36Z</time>
      </trkpt>
      <trkpt lat="45.06068" lon="4.78635">
        <ele>160.20771789551</ele>
        <time>2009-04-18T12:15:41Z</time>
      </trkpt>
      <trkpt lat="45.06148" lon="4.78638">
        <ele>159.00637817383</ele>
        <time>2009-04-18T12:15:53Z</time>
      </trkpt>
      <trkpt lat="45.06173" lon="4.78644">
        <ele>162.21363830566</ele>
        <time>2009-04-18T12:15:56Z</time>
      </trkpt>
      <trkpt lat="45.0614" lon="4.78657">
        <ele>164.29708862305</ele>
        <time>2009-04-18T12:16:01Z</time>
      </trkpt>
      <trkpt lat="45.06064" lon="4.78662">
        <ele>169.0899810791</ele>
        <time>2009-04-18T12:16:12Z</time>
      </trkpt>
      <trkpt lat="45.05975" lon="4.78621">
        <ele>175.47787475586</ele>
        <time>2009-04-18T12:16:26Z</time>
      </trkpt>
      <trkpt lat="45.05947" lon="4.78588">
        <ele>174.62643432617</ele>
        <time>2009-04-18T12:16:31Z</time>
      </trkpt>
      <trkpt lat="45.05883" lon="4.78478">
        <ele>163.44328308106</ele>
        <time>2009-04-18T12:16:46Z</time>
      </trkpt>
      <trkpt lat="45.05874" lon="4.78471">
        <ele>163.94435119629</ele>
        <time>2009-04-18T12:16:47Z</time>
      </trkpt>
      <trkpt lat="45.05819" lon="4.78474">
        <ele>175.06878662109</ele>
        <time>2009-04-18T12:16:55Z</time>
      </trkpt>
      <trkpt lat="45.05773" lon="4.78464">
        <ele>171.48175048828</ele>
        <time>2009-04-18T12:17:02Z</time>
      </trkpt>
      <trkpt lat="45.05709" lon="4.78495">
        <ele>188.04267883301</ele>
        <time>2009-04-18T12:17:12Z</time>
      </trkpt>
      <trkpt lat="45.05673" lon="4.78484">
        <ele>188.31161499023</ele>
        <time>2009-04-18T12:17:17Z</time>
      </trkpt>
      <trkpt lat="45.05652" lon="4.78465">
        <ele>182.43290710449</ele>
        <time>2009-04-18T12:17:21Z</time>
      </trkpt>
      <trkpt lat="45.05644" lon="4.78445">
        <ele>175.18287658691</ele>
        <time>2009-04-18T12:17:23Z</time>
      </trkpt>
      <trkpt lat="45.05643" lon="4.78423">
        <ele>166.95227050781</ele>
        <time>2009-04-18T12:17:25Z</time>
      </trkpt>
      <trkpt lat="45.05681" lon="4.78219">
        <ele>186.90209960938</ele>
        <time>2009-04-18T12:17:47Z</time>
      </trkpt>
      <trkpt lat="45.05704" lon="4.78208">
        <ele>190.26669311523</ele>
        <time>2009-04-18T12:17:50Z</time>
      </trkpt>
      <trkpt lat="45.05776" lon="4.78191">
        <ele>184.9354095459</ele>
        <time>2009-04-18T12:18:01Z</time>
      </trkpt>
      <trkpt lat="45.05789" lon="4.7818">
        <ele>182.82615661621</ele>
        <time>2009-04-18T12:18:03Z</time>
      </trkpt>
      <trkpt lat="45.05801" lon="4.78161">
        <ele>182.07743835449</ele>
        <time>2009-04-18T12:18:06Z</time>
      </trkpt>
      <trkpt lat="45.05805" lon="4.78144">
        <ele>182.86993408203</ele>
        <time>2009-04-18T12:18:08Z</time>
      </trkpt>
      <trkpt lat="45.05811" lon="4.78009">
        <ele>192.41732788086</ele>
        <time>2009-04-18T12:18:21Z</time>
      </trkpt>
      <trkpt lat="45.05802" lon="4.77972">
        <ele>201.81562805176</ele>
        <time>2009-04-18T12:18:25Z</time>
      </trkpt>
      <trkpt lat="45.05802" lon="4.77941">
        <ele>204.98341369629</ele>
        <time>2009-04-18T12:18:28Z</time>
      </trkpt>
      <trkpt lat="45.05839" lon="4.77884">
        <ele>197.18351745606</ele>
        <time>2009-04-18T12:18:36Z</time>
      </trkpt>
      <trkpt lat="45.05861" lon="4.77744">
        <ele>206.55722045898</ele>
        <time>2009-04-18T12:18:51Z</time>
      </trkpt>
      <trkpt lat="45.05874" lon="4.77694">
        <ele>199.30119323731</ele>
        <time>2009-04-18T12:18:56Z</time>
      </trkpt>
      <trkpt lat="45.05878" lon="4.77664">
        <ele>196.45558166504</ele>
        <time>2009-04-18T12:19:00Z</time>
      </trkpt>
      <trkpt lat="45.05873" lon="4.77649">
        <ele>193.12582397461</ele>
        <time>2009-04-18T12:19:01Z</time>
      </trkpt>
      <trkpt lat="45.05864" lon="4.7764">
        <ele>193.11100769043</ele>
        <time>2009-04-18T12:19:03Z</time>
      </trkpt>
      <trkpt lat="45.05779" lon="4.77604">
        <ele>212.22248840332</ele>
        <time>2009-04-18T12:19:16Z</time>
      </trkpt>
      <trkpt lat="45.05763" lon="4.77589">
        <ele>213.50997924805</ele>
        <time>2009-04-18T12:19:18Z</time>
      </trkpt>
      <trkpt lat="45.05733" lon="4.77555">
        <ele>214.83218383789</ele>
        <time>2009-04-18T12:19:24Z</time>
      </trkpt>
      <trkpt lat="45.05687" lon="4.77482">
        <ele>213.72587585449</ele>
        <time>2009-04-18T12:19:34Z</time>
      </trkpt>
      <trkpt lat="45.05649" lon="4.7744">
        <ele>225.26878356934</ele>
        <time>2009-04-18T12:19:41Z</time>
      </trkpt>
      <trkpt lat="45.05641" lon="4.77415">
        <ele>225.10066223144</ele>
        <time>2009-04-18T12:19:44Z</time>
      </trkpt>
      <trkpt lat="45.05628" lon="4.77344">
        <ele>223.68881225586</ele>
        <time>2009-04-18T12:19:51Z</time>
      </trkpt>
      <trkpt lat="45.05619" lon="4.7723">
        <ele>229.26800537109</ele>
        <time>2009-04-18T12:20:03Z</time>
      </trkpt>
      <trkpt lat="45.05627" lon="4.77166">
        <ele>225.17788696289</ele>
        <time>2009-04-18T12:20:10Z</time>
      </trkpt>
      <trkpt lat="45.05622" lon="4.77075">
        <ele>240.75930786133</ele>
        <time>2009-04-18T12:20:19Z</time>
      </trkpt>
      <trkpt lat="45.05627" lon="4.77052">
        <ele>243.35958862305</ele>
        <time>2009-04-18T12:20:21Z</time>
      </trkpt>
      <trkpt lat="45.05665" lon="4.77022">
        <ele>231.79957580566</ele>
        <time>2009-04-18T12:20:28Z</time>
      </trkpt>
      <trkpt lat="45.0573" lon="4.76923">
        <ele>236.38433837891</ele>
        <time>2009-04-18T12:20:42Z</time>
      </trkpt>
      <trkpt lat="45.05796" lon="4.76836">
        <ele>235.70909118652</ele>
        <time>2009-04-18T12:20:55Z</time>
      </trkpt>
      <trkpt lat="45.05803" lon="4.76809">
        <ele>238.84954833984</ele>
        <time>2009-04-18T12:20:57Z</time>
      </trkpt>
      <trkpt lat="45.058" lon="4.76744">
        <ele>256.23699951172</ele>
        <time>2009-04-18T12:21:04Z</time>
      </trkpt>
      <trkpt lat="45.05812" lon="4.76724">
        <ele>258.10070800781</ele>
        <time>2009-04-18T12:21:07Z</time>
      </trkpt>
      <trkpt lat="45.05898" lon="4.767">
        <ele>240.62063598633</ele>
        <time>2009-04-18T12:21:19Z</time>
      </trkpt>
      <trkpt lat="45.05922" lon="4.76684">
        <ele>239.90272521973</ele>
        <time>2009-04-18T12:21:23Z</time>
      </trkpt>
      <trkpt lat="45.05939" lon="4.76662">
        <ele>242.65974426269</ele>
        <time>2009-04-18T12:21:27Z</time>
      </trkpt>
      <trkpt lat="45.05976" lon="4.76573">
        <ele>258.90856933594</ele>
        <time>2009-04-18T12:21:37Z</time>
      </trkpt>
      <trkpt lat="45.05999" lon="4.76546">
        <ele>256.24746704102</ele>
        <time>2009-04-18T12:21:42Z</time>
      </trkpt>
      <trkpt lat="45.06029" lon="4.76542">
        <ele>257.07855224609</ele>
        <time>2009-04-18T12:21:46Z</time>
      </trkpt>
      <trkpt lat="45.06071" lon="4.76577">
        <ele>246.89007568359</ele>
        <time>2009-04-18T12:21:53Z</time>
      </trkpt>
      <trkpt lat="45.06092" lon="4.76586">
        <ele>239.82412719727</ele>
        <time>2009-04-18T12:21:56Z</time>
      </trkpt>
      <trkpt lat="45.06114" lon="4.7658">
        <ele>231.11993408203</ele>
        <time>2009-04-18T12:21:59Z</time>
      </trkpt>
      <trkpt lat="45.06124" lon="4.76566">
        <ele>228.89817810059</ele>
        <time>2009-04-18T12:22:01Z</time>
      </trkpt>
      <trkpt lat="45.0613" lon="4.76542">
        <ele>230.37353515625</ele>
        <time>2009-04-18T12:22:04Z</time>
      </trkpt>
      <trkpt lat="45.06116" lon="4.76483">
        <ele>249.14929199219</ele>
        <time>2009-04-18T12:22:10Z</time>
      </trkpt>
      <trkpt lat="45.06114" lon="4.76439">
        <ele>254.9891204834</ele>
        <time>2009-04-18T12:22:15Z</time>
      </trkpt>
      <trkpt lat="45.06118" lon="4.76371">
        <ele>259.45809936523</ele>
        <time>2009-04-18T12:22:22Z</time>
      </trkpt>
      <trkpt lat="45.06134" lon="4.7626">
        <ele>269.2600402832</ele>
        <time>2009-04-18T12:22:33Z</time>
      </trkpt>
      <trkpt lat="45.06143" lon="4.7623">
        <ele>271.09420776367</ele>
        <time>2009-04-18T12:22:37Z</time>
      </trkpt>
      <trkpt lat="45.06166" lon="4.76178">
        <ele>272.55767822266</ele>
        <time>2009-04-18T12:22:43Z</time>
      </trkpt>
      <trkpt lat="45.06213" lon="4.76097">
        <ele>280.98425292969</ele>
        <time>2009-04-18T12:22:54Z</time>
      </trkpt>
      <trkpt lat="45.06243" lon="4.76068">
        <ele>282.60516357422</ele>
        <time>2009-04-18T12:22:59Z</time>
      </trkpt>
      <trkpt lat="45.06329" lon="4.76008">
        <ele>284.98583984375</ele>
        <time>2009-04-18T12:23:13Z</time>
      </trkpt>
      <trkpt lat="45.06382" lon="4.75948">
        <ele>300.57238769531</ele>
        <time>2009-04-18T12:23:23Z</time>
      </trkpt>
      <trkpt lat="45.06392" lon="4.75942">
        <ele>301.33764648438</ele>
        <time>2009-04-18T12:23:24Z</time>
      </trkpt>
      <trkpt lat="45.06417" lon="4.75936">
        <ele>298.88571166992</ele>
        <time>2009-04-18T12:23:28Z</time>
      </trkpt>
      <trkpt lat="45.06433" lon="4.75943">
        <ele>298.453125</ele>
        <time>2009-04-18T12:23:30Z</time>
      </trkpt>
      <trkpt lat="45.06455" lon="4.75976">
        <ele>285.46636962891</ele>
        <time>2009-04-18T12:23:35Z</time>
      </trkpt>
      <trkpt lat="45.06471" lon="4.75986">
        <ele>283.44763183594</ele>
        <time>2009-04-18T12:23:37Z</time>
      </trkpt>
      <trkpt lat="45.06574" lon="4.75991">
        <ele>296.38320922852</ele>
        <time>2009-04-18T12:23:52Z</time>
      </trkpt>
      <trkpt lat="45.06592" lon="4.75978">
        <ele>297.38812255859</ele>
        <time>2009-04-18T12:23:55Z</time>
      </trkpt>
      <trkpt lat="45.06603" lon="4.75959">
        <ele>295.82919311523</ele>
        <time>2009-04-18T12:23:58Z</time>
      </trkpt>
      <trkpt lat="45.06611" lon="4.75928">
        <ele>294.00985717773</ele>
        <time>2009-04-18T12:24:01Z</time>
      </trkpt>
      <trkpt lat="45.06611" lon="4.75905">
        <ele>293.45422363281</ele>
        <time>2009-04-18T12:24:03Z</time>
      </trkpt>
      <trkpt lat="45.06601" lon="4.75864">
        <ele>296.56311035156</ele>
        <time>2009-04-18T12:24:08Z</time>
      </trkpt>
      <trkpt lat="45.06597" lon="4.75824">
        <ele>296.96850585938</ele>
        <time>2009-04-18T12:24:12Z</time>
      </trkpt>
      <trkpt lat="45.06593" lon="4.75735">
        <ele>299.88662719727</ele>
        <time>2009-04-18T12:24:21Z</time>
      </trkpt>
      <trkpt lat="45.06575" lon="4.75626">
        <ele>318.5412902832</ele>
        <time>2009-04-18T12:24:33Z</time>
      </trkpt>
      <trkpt lat="45.06576" lon="4.75608">
        <ele>319.68182373047</ele>
        <time>2009-04-18T12:24:34Z</time>
      </trkpt>
      <trkpt lat="45.06584" lon="4.75582">
        <ele>317.73330688477</ele>
        <time>2009-04-18T12:24:37Z</time>
      </trkpt>
      <trkpt lat="45.0662" lon="4.75539">
        <ele>301.25289916992</ele>
        <time>2009-04-18T12:24:44Z</time>
      </trkpt>
      <trkpt lat="45.06624" lon="4.75495">
        <ele>307.1721496582</ele>
        <time>2009-04-18T12:24:49Z</time>
      </trkpt>
      <trkpt lat="45.06622" lon="4.75426">
        <ele>318.97778320312</ele>
        <time>2009-04-18T12:24:56Z</time>
      </trkpt>
      <trkpt lat="45.06649" lon="4.75386">
        <ele>303.75799560547</ele>
        <time>2009-04-18T12:25:01Z</time>
      </trkpt>
      <trkpt lat="45.06652" lon="4.75366">
        <ele>302.08462524414</ele>
        <time>2009-04-18T12:25:03Z</time>
      </trkpt>
      <trkpt lat="45.0665" lon="4.75325">
        <ele>301.34185791016</ele>
        <time>2009-04-18T12:25:08Z</time>
      </trkpt>
      <trkpt lat="45.0664" lon="4.75311">
        <ele>303.61169433594</ele>
        <time>2009-04-18T12:25:10Z</time>
      </trkpt>
      <trkpt lat="45.06607" lon="4.75302">
        <ele>318.79504394531</ele>
        <time>2009-04-18T12:25:14Z</time>
      </trkpt>
      <trkpt lat="45.06595" lon="4.75272">
        <ele>320.15423583984</ele>
        <time>2009-04-18T12:25:18Z</time>
      </trkpt>
      <trkpt lat="45.06589" lon="4.7522">
        <ele>314.51962280273</ele>
        <time>2009-04-18T12:25:23Z</time>
      </trkpt>
      <trkpt lat="45.06556" lon="4.75148">
        <ele>316.4303894043</ele>
        <time>2009-04-18T12:25:32Z</time>
      </trkpt>
      <trkpt lat="45.06542" lon="4.7513">
        <ele>317.75540161133</ele>
        <time>2009-04-18T12:25:35Z</time>
      </trkpt>
      <trkpt lat="45.06504" lon="4.75107">
        <ele>329.99911499023</ele>
        <time>2009-04-18T12:25:41Z</time>
      </trkpt>
      <trkpt lat="45.06499" lon="4.75097">
        <ele>329.56167602539</ele>
        <time>2009-04-18T12:25:42Z</time>
      </trkpt>
      <trkpt lat="45.06482" lon="4.75013">
        <ele>319.89654541016</ele>
        <time>2009-04-18T12:25:51Z</time>
      </trkpt>
      <trkpt lat="45.0647" lon="4.74987">
        <ele>319.03628540039</ele>
        <time>2009-04-18T12:25:54Z</time>
      </trkpt>
      <trkpt lat="45.0646" lon="4.74977">
        <ele>320.78628540039</ele>
        <time>2009-04-18T12:25:56Z</time>
      </trkpt>
      <trkpt lat="45.06426" lon="4.74964">
        <ele>333.07760620117</ele>
        <time>2009-04-18T12:26:01Z</time>
      </trkpt>
      <trkpt lat="45.06404" lon="4.74947">
        <ele>337.73910522461</ele>
        <time>2009-04-18T12:26:05Z</time>
      </trkpt>
      <trkpt lat="45.06395" lon="4.74933">
        <ele>337.84616088867</ele>
        <time>2009-04-18T12:26:07Z</time>
      </trkpt>
      <trkpt lat="45.06378" lon="4.74893">
        <ele>337.4391784668</ele>
        <time>2009-04-18T12:26:11Z</time>
      </trkpt>
      <trkpt lat="45.06346" lon="4.74771">
        <ele>333.63165283203</ele>
        <time>2009-04-18T12:26:25Z</time>
      </trkpt>
      <trkpt lat="45.06318" lon="4.74712">
        <ele>328.04470825195</ele>
        <time>2009-04-18T12:26:32Z</time>
      </trkpt>
      <trkpt lat="45.06305" lon="4.74701">
        <ele>324.85266113281</ele>
        <time>2009-04-18T12:26:34Z</time>
      </trkpt>
      <trkpt lat="45.06297" lon="4.74675">
        <ele>317.27487182617</ele>
        <time>2009-04-18T12:26:37Z</time>
      </trkpt>
      <trkpt lat="45.06285" lon="4.74673">
        <ele>315.82748413086</ele>
        <time>2009-04-18T12:26:39Z</time>
      </trkpt>
      <trkpt lat="45.06274" lon="4.74679">
        <ele>316.88180541992</ele>
        <time>2009-04-18T12:26:40Z</time>
      </trkpt>
      <trkpt lat="45.06235" lon="4.74739">
        <ele>331.32385253906</ele>
        <time>2009-04-18T12:26:49Z</time>
      </trkpt>
      <trkpt lat="45.06198" lon="4.74754">
        <ele>326.60034179688</ele>
        <time>2009-04-18T12:26:54Z</time>
      </trkpt>
      <trkpt lat="45.06169" lon="4.74772">
        <ele>328.82312011719</ele>
        <time>2009-04-18T12:26:59Z</time>
      </trkpt>
      <trkpt lat="45.06136" lon="4.74813">
        <ele>345.40783691406</ele>
        <time>2009-04-18T12:27:05Z</time>
      </trkpt>
      <trkpt lat="45.0612" lon="4.74823">
        <ele>347.29666137695</ele>
        <time>2009-04-18T12:27:08Z</time>
      </trkpt>
      <trkpt lat="45.06085" lon="4.74829">
        <ele>341.98324584961</ele>
        <time>2009-04-18T12:27:13Z</time>
      </trkpt>
      <trkpt lat="45.06043" lon="4.74818">
        <ele>328.33572387695</ele>
        <time>2009-04-18T12:27:19Z</time>
      </trkpt>
      <trkpt lat="45.05965" lon="4.74851">
        <ele>336.03021240234</ele>
        <time>2009-04-18T12:27:31Z</time>
      </trkpt>
      <trkpt lat="45.05884" lon="4.7485">
        <ele>336.732421875</ele>
        <time>2009-04-18T12:27:43Z</time>
      </trkpt>
      <trkpt lat="45.0587" lon="4.74837">
        <ele>334.84619140625</ele>
        <time>2009-04-18T12:27:45Z</time>
      </trkpt>
      <trkpt lat="45.05863" lon="4.74823">
        <ele>334.40951538086</ele>
        <time>2009-04-18T12:27:47Z</time>
      </trkpt>
      <trkpt lat="45.05863" lon="4.74789">
        <ele>331.83303833008</ele>
        <time>2009-04-18T12:27:50Z</time>
      </trkpt>
      <trkpt lat="45.0588" lon="4.74733">
        <ele>317.67880249023</ele>
        <time>2009-04-18T12:27:56Z</time>
      </trkpt>
      <trkpt lat="45.05881" lon="4.74695">
        <ele>312.21008300781</ele>
        <time>2009-04-18T12:28:00Z</time>
      </trkpt>
      <trkpt lat="45.05872" lon="4.74658">
        <ele>312.56945800781</ele>
        <time>2009-04-18T12:28:04Z</time>
      </trkpt>
      <trkpt lat="45.05839" lon="4.74566">
        <ele>316.03060913086</ele>
        <time>2009-04-18T12:28:15Z</time>
      </trkpt>
      <trkpt lat="45.05842" lon="4.74524">
        <ele>309.05880737305</ele>
        <time>2009-04-18T12:28:19Z</time>
      </trkpt>
      <trkpt lat="45.05839" lon="4.74488">
        <ele>306.22152709961</ele>
        <time>2009-04-18T12:28:23Z</time>
      </trkpt>
      <trkpt lat="45.05825" lon="4.74457">
        <ele>310.77593994141</ele>
        <time>2009-04-18T12:28:27Z</time>
      </trkpt>
      <trkpt lat="45.05817" lon="4.74251">
        <ele>293.83737182617</ele>
        <time>2009-04-18T12:28:48Z</time>
      </trkpt>
      <trkpt lat="45.05814" lon="4.7421">
        <ele>287.54943847656</ele>
        <time>2009-04-18T12:28:52Z</time>
      </trkpt>
      <trkpt lat="45.0581" lon="4.74198">
        <ele>287.08456420898</ele>
        <time>2009-04-18T12:28:53Z</time>
      </trkpt>
      <trkpt lat="45.05788" lon="4.74167">
        <ele>290.73901367188</ele>
        <time>2009-04-18T12:28:58Z</time>
      </trkpt>
      <trkpt lat="45.05768" lon="4.74153">
        <ele>296.46170043945</ele>
        <time>2009-04-18T12:29:01Z</time>
      </trkpt>
      <trkpt lat="45.05705" lon="4.74078">
        <ele>298.61114501953</ele>
        <time>2009-04-18T12:29:13Z</time>
      </trkpt>
      <trkpt lat="45.05667" lon="4.74026">
        <ele>306.0954284668</ele>
        <time>2009-04-18T12:29:20Z</time>
      </trkpt>
      <trkpt lat="45.05664" lon="4.74007">
        <ele>305.1884765625</ele>
        <time>2009-04-18T12:29:22Z</time>
      </trkpt>
      <trkpt lat="45.05668" lon="4.73997">
        <ele>304.65731811523</ele>
        <time>2009-04-18T12:29:24Z</time>
      </trkpt>
      <trkpt lat="45.05682" lon="4.73987">
        <ele>305.89535522461</ele>
        <time>2009-04-18T12:29:26Z</time>
      </trkpt>
      <trkpt lat="45.05797" lon="4.74013">
        <ele>282.5735168457</ele>
        <time>2009-04-18T12:29:43Z</time>
      </trkpt>
      <trkpt lat="45.05827" lon="4.74011">
        <ele>277.72253417969</ele>
        <time>2009-04-18T12:29:47Z</time>
      </trkpt>
      <trkpt lat="45.05855" lon="4.74002">
        <ele>269.18493652344</ele>
        <time>2009-04-18T12:29:51Z</time>
      </trkpt>
      <trkpt lat="45.05865" lon="4.73985">
        <ele>268.20806884766</ele>
        <time>2009-04-18T12:29:54Z</time>
      </trkpt>
      <trkpt lat="45.05906" lon="4.73807">
        <ele>264.95791625977</ele>
        <time>2009-04-18T12:30:13Z</time>
      </trkpt>
      <trkpt lat="45.05905" lon="4.73784">
        <ele>263.92318725586</ele>
        <time>2009-04-18T12:30:15Z</time>
      </trkpt>
      <trkpt lat="45.059" lon="4.73759">
        <ele>265.77291870117</ele>
        <time>2009-04-18T12:30:18Z</time>
      </trkpt>
      <trkpt lat="45.05832" lon="4.73637">
        <ele>269.32797241211</ele>
        <time>2009-04-18T12:30:34Z</time>
      </trkpt>
      <trkpt lat="45.05817" lon="4.73594">
        <ele>271.41275024414</ele>
        <time>2009-04-18T12:30:38Z</time>
      </trkpt>
      <trkpt lat="45.05813" lon="4.73542">
        <ele>273.1057434082</ele>
        <time>2009-04-18T12:30:44Z</time>
      </trkpt>
      <trkpt lat="45.05832" lon="4.73406">
        <ele>259.55471801758</ele>
        <time>2009-04-18T12:30:58Z</time>
      </trkpt>
      <trkpt lat="45.05814" lon="4.73275">
        <ele>261.0163269043</ele>
        <time>2009-04-18T12:31:12Z</time>
      </trkpt>
      <trkpt lat="45.05819" lon="4.73265">
        <ele>256.98529052734</ele>
        <time>2009-04-18T12:31:13Z</time>
      </trkpt>
      <trkpt lat="45.05871" lon="4.7325">
        <ele>265.9931640625</ele>
        <time>2009-04-18T12:31:20Z</time>
      </trkpt>
      <trkpt lat="45.05876" lon="4.73231">
        <ele>266.92098999023</ele>
        <time>2009-04-18T12:31:23Z</time>
      </trkpt>
      <trkpt lat="45.05876" lon="4.73181">
        <ele>262.62316894531</ele>
        <time>2009-04-18T12:31:28Z</time>
      </trkpt>
      <trkpt lat="45.05886" lon="4.73152">
        <ele>262.26321411133</ele>
        <time>2009-04-18T12:31:31Z</time>
      </trkpt>
      <trkpt lat="45.05991" lon="4.73046">
        <ele>273.51281738281</ele>
        <time>2009-04-18T12:31:50Z</time>
      </trkpt>
      <trkpt lat="45.06034" lon="4.72965">
        <ele>267.6067199707</ele>
        <time>2009-04-18T12:32:00Z</time>
      </trkpt>
      <trkpt lat="45.06042" lon="4.72959">
        <ele>269.21688842773</ele>
        <time>2009-04-18T12:32:01Z</time>
      </trkpt>
      <trkpt lat="45.06089" lon="4.72957">
        <ele>282.85263061523</ele>
        <time>2009-04-18T12:32:08Z</time>
      </trkpt>
      <trkpt lat="45.06095" lon="4.72951">
        <ele>283.96676635742</ele>
        <time>2009-04-18T12:32:09Z</time>
      </trkpt>
      <trkpt lat="45.06095" lon="4.7292">
        <ele>281.24365234375</ele>
        <time>2009-04-18T12:32:12Z</time>
      </trkpt>
      <trkpt lat="45.06058" lon="4.72817">
        <ele>281.55688476562</ele>
        <time>2009-04-18T12:32:24Z</time>
      </trkpt>
      <trkpt lat="45.06018" lon="4.72659">
        <ele>275.96743774414</ele>
        <time>2009-04-18T12:32:41Z</time>
      </trkpt>
      <trkpt lat="45.06019" lon="4.72645">
        <ele>275.89385986328</ele>
        <time>2009-04-18T12:32:43Z</time>
      </trkpt>
      <trkpt lat="45.06023" lon="4.72639">
        <ele>277.16543579102</ele>
        <time>2009-04-18T12:32:43Z</time>
      </trkpt>
      <trkpt lat="45.06076" lon="4.72607">
        <ele>290.68280029297</ele>
        <time>2009-04-18T12:32:52Z</time>
      </trkpt>
      <trkpt lat="45.06078" lon="4.72566">
        <ele>290.00381469727</ele>
        <time>2009-04-18T12:32:56Z</time>
      </trkpt>
      <trkpt lat="45.06075" lon="4.72552">
        <ele>291.25494384766</ele>
        <time>2009-04-18T12:32:57Z</time>
      </trkpt>
      <trkpt lat="45.06062" lon="4.72537">
        <ele>291.25277709961</ele>
        <time>2009-04-18T12:33:00Z</time>
      </trkpt>
      <trkpt lat="45.05983" lon="4.7251">
        <ele>281.80108642578</ele>
        <time>2009-04-18T12:33:12Z</time>
      </trkpt>
      <trkpt lat="45.0597" lon="4.72502">
        <ele>278.35293579102</ele>
        <time>2009-04-18T12:33:14Z</time>
      </trkpt>
      <trkpt lat="45.0596" lon="4.72488">
        <ele>277.32528686523</ele>
        <time>2009-04-18T12:33:16Z</time>
      </trkpt>
      <trkpt lat="45.05943" lon="4.72399">
        <ele>288.08187866211</ele>
        <time>2009-04-18T12:33:25Z</time>
      </trkpt>
      <trkpt lat="45.0592" lon="4.72349">
        <ele>289.44570922852</ele>
        <time>2009-04-18T12:33:31Z</time>
      </trkpt>
      <trkpt lat="45.05898" lon="4.72249">
        <ele>292.76293945312</ele>
        <time>2009-04-18T12:33:42Z</time>
      </trkpt>
      <trkpt lat="45.05864" lon="4.72156">
        <ele>295.67596435547</ele>
        <time>2009-04-18T12:33:53Z</time>
      </trkpt>
      <trkpt lat="45.05822" lon="4.72076">
        <ele>292.66928100586</ele>
        <time>2009-04-18T12:34:03Z</time>
      </trkpt>
      <trkpt lat="45.05816" lon="4.72034">
        <ele>294.87106323242</ele>
        <time>2009-04-18T12:34:07Z</time>
      </trkpt>
      <trkpt lat="45.05815" lon="4.7195">
        <ele>309.0671081543</ele>
        <time>2009-04-18T12:34:16Z</time>
      </trkpt>
      <trkpt lat="45.05808" lon="4.71932">
        <ele>311.03009033203</ele>
        <time>2009-04-18T12:34:18Z</time>
      </trkpt>
      <trkpt lat="45.05757" lon="4.71929">
        <ele>299.31295776367</ele>
        <time>2009-04-18T12:34:25Z</time>
      </trkpt>
      <trkpt lat="45.05735" lon="4.71919">
        <ele>296.69076538086</ele>
        <time>2009-04-18T12:34:29Z</time>
      </trkpt>
      <trkpt lat="45.05717" lon="4.71892">
        <ele>299.74523925781</ele>
        <time>2009-04-18T12:34:32Z</time>
      </trkpt>
      <trkpt lat="45.05692" lon="4.71873">
        <ele>299.18273925781</ele>
        <time>2009-04-18T12:34:36Z</time>
      </trkpt>
      <trkpt lat="45.05666" lon="4.71845">
        <ele>302.56805419922</ele>
        <time>2009-04-18T12:34:41Z</time>
      </trkpt>
      <trkpt lat="45.05642" lon="4.71811">
        <ele>303.13629150391</ele>
        <time>2009-04-18T12:34:46Z</time>
      </trkpt>
      <trkpt lat="45.05629" lon="4.71781">
        <ele>304.94607543945</ele>
        <time>2009-04-18T12:34:50Z</time>
      </trkpt>
      <trkpt lat="45.05584" lon="4.7161">
        <ele>315.6321105957</ele>
        <time>2009-04-18T12:35:08Z</time>
      </trkpt>
      <trkpt lat="45.05582" lon="4.71496">
        <ele>328.40930175781</ele>
        <time>2009-04-18T12:35:20Z</time>
      </trkpt>
      <trkpt lat="45.05579" lon="4.71484">
        <ele>329.82400512695</ele>
        <time>2009-04-18T12:35:21Z</time>
      </trkpt>
      <trkpt lat="45.05571" lon="4.71476">
        <ele>329.60104370117</ele>
        <time>2009-04-18T12:35:23Z</time>
      </trkpt>
      <trkpt lat="45.05558" lon="4.71475">
        <ele>327.2204284668</ele>
        <time>2009-04-18T12:35:25Z</time>
      </trkpt>
      <trkpt lat="45.0554" lon="4.71482">
        <ele>322.42715454102</ele>
        <time>2009-04-18T12:35:27Z</time>
      </trkpt>
      <trkpt lat="45.05518" lon="4.71476">
        <ele>319.15084838867</ele>
        <time>2009-04-18T12:35:31Z</time>
      </trkpt>
      <trkpt lat="45.05499" lon="4.71447">
        <ele>320.84115600586</ele>
        <time>2009-04-18T12:35:35Z</time>
      </trkpt>
      <trkpt lat="45.05482" lon="4.71407">
        <ele>321.94790649414</ele>
        <time>2009-04-18T12:35:39Z</time>
      </trkpt>
      <trkpt lat="45.05477" lon="4.71387">
        <ele>321.92501831055</ele>
        <time>2009-04-18T12:35:42Z</time>
      </trkpt>
      <trkpt lat="45.05476" lon="4.7132">
        <ele>325.48217773438</ele>
        <time>2009-04-18T12:35:48Z</time>
      </trkpt>
      <trkpt lat="45.05482" lon="4.71303">
        <ele>326.72128295898</ele>
        <time>2009-04-18T12:35:50Z</time>
      </trkpt>
      <trkpt lat="45.05519" lon="4.71242">
        <ele>335.46328735352</ele>
        <time>2009-04-18T12:35:59Z</time>
      </trkpt>
      <trkpt lat="45.0552" lon="4.71221">
        <ele>337.59268188477</ele>
        <time>2009-04-18T12:36:01Z</time>
      </trkpt>
      <trkpt lat="45.05516" lon="4.71206">
        <ele>337.95767211914</ele>
        <time>2009-04-18T12:36:02Z</time>
      </trkpt>
      <trkpt lat="45.05506" lon="4.7119">
        <ele>336.99981689453</ele>
        <time>2009-04-18T12:36:04Z</time>
      </trkpt>
      <trkpt lat="45.05472" lon="4.71163">
        <ele>332.02572631836</ele>
        <time>2009-04-18T12:36:10Z</time>
      </trkpt>
      <trkpt lat="45.05458" lon="4.71146">
        <ele>330.42102050781</ele>
        <time>2009-04-18T12:36:13Z</time>
      </trkpt>
      <trkpt lat="45.05446" lon="4.71108">
        <ele>331.07708740234</ele>
        <time>2009-04-18T12:36:17Z</time>
      </trkpt>
      <trkpt lat="45.05439" lon="4.71058">
        <ele>332.59896850586</ele>
        <time>2009-04-18T12:36:22Z</time>
      </trkpt>
      <trkpt lat="45.05476" lon="4.71003">
        <ele>342.74826049805</ele>
        <time>2009-04-18T12:36:30Z</time>
      </trkpt>
      <trkpt lat="45.05475" lon="4.70981">
        <ele>344.39447021484</ele>
        <time>2009-04-18T12:36:32Z</time>
      </trkpt>
      <trkpt lat="45.05469" lon="4.70966">
        <ele>344.59588623047</ele>
        <time>2009-04-18T12:36:34Z</time>
      </trkpt>
      <trkpt lat="45.05433" lon="4.70927">
        <ele>340.51263427734</ele>
        <time>2009-04-18T12:36:41Z</time>
      </trkpt>
      <trkpt lat="45.05407" lon="4.70891">
        <ele>338.72125244141</ele>
        <time>2009-04-18T12:36:46Z</time>
      </trkpt>
      <trkpt lat="45.05393" lon="4.70841">
        <ele>340.66668701172</ele>
        <time>2009-04-18T12:36:51Z</time>
      </trkpt>
      <trkpt lat="45.05388" lon="4.70772">
        <ele>340.9909362793</ele>
        <time>2009-04-18T12:36:58Z</time>
      </trkpt>
      <trkpt lat="45.05398" lon="4.70738">
        <ele>342.42926025391</ele>
        <time>2009-04-18T12:37:02Z</time>
      </trkpt>
      <trkpt lat="45.0541" lon="4.7072">
        <ele>343.77200317383</ele>
        <time>2009-04-18T12:37:05Z</time>
      </trkpt>
      <trkpt lat="45.05467" lon="4.70703">
        <ele>350.93057250977</ele>
        <time>2009-04-18T12:37:13Z</time>
      </trkpt>
      <trkpt lat="45.05473" lon="4.70696">
        <ele>351.4856262207</ele>
        <time>2009-04-18T12:37:14Z</time>
      </trkpt>
      <trkpt lat="45.05475" lon="4.70671">
        <ele>350.83618164062</ele>
        <time>2009-04-18T12:37:17Z</time>
      </trkpt>
      <trkpt lat="45.05487" lon="4.70629">
        <ele>349.74969482422</ele>
        <time>2009-04-18T12:37:21Z</time>
      </trkpt>
      <trkpt lat="45.05512" lon="4.70606">
        <ele>351.23818969727</ele>
        <time>2009-04-18T12:37:26Z</time>
      </trkpt>
      <trkpt lat="45.05531" lon="4.70597">
        <ele>351.7897644043</ele>
        <time>2009-04-18T12:37:29Z</time>
      </trkpt>
      <trkpt lat="45.05573" lon="4.70599">
        <ele>354.75198364258</ele>
        <time>2009-04-18T12:37:35Z</time>
      </trkpt>
      <trkpt lat="45.0575" lon="4.7064">
        <ele>369.5950012207</ele>
        <time>2009-04-18T12:38:01Z</time>
      </trkpt>
      <trkpt lat="45.05827" lon="4.7064">
        <ele>370.52142333984</ele>
        <time>2009-04-18T12:38:12Z</time>
      </trkpt>
      <trkpt lat="45.0603" lon="4.70668">
        <ele>377.74084472656</ele>
        <time>2009-04-18T12:38:41Z</time>
      </trkpt>
      <trkpt lat="45.06056" lon="4.70656">
        <ele>378.54061889648</ele>
        <time>2009-04-18T12:38:45Z</time>
      </trkpt>
      <trkpt lat="45.06103" lon="4.70618">
        <ele>379.24893188477</ele>
        <time>2009-04-18T12:38:53Z</time>
      </trkpt>
      <trkpt lat="45.0623" lon="4.70617">
        <ele>391.04107666016</ele>
        <time>2009-04-18T12:39:11Z</time>
      </trkpt>
      <trkpt lat="45.06266" lon="4.70591">
        <ele>391.25448608398</ele>
        <time>2009-04-18T12:39:17Z</time>
      </trkpt>
      <trkpt lat="45.06269" lon="4.70566">
        <ele>391.00238037109</ele>
        <time>2009-04-18T12:39:20Z</time>
      </trkpt>
      <trkpt lat="45.06263" lon="4.70498">
        <ele>391.03991699219</ele>
        <time>2009-04-18T12:39:27Z</time>
      </trkpt>
      <trkpt lat="45.06267" lon="4.7047">
        <ele>391.88961791992</ele>
        <time>2009-04-18T12:39:30Z</time>
      </trkpt>
      <trkpt lat="45.06279" lon="4.7043">
        <ele>393.77825927734</ele>
        <time>2009-04-18T12:39:34Z</time>
      </trkpt>
      <trkpt lat="45.06337" lon="4.70295">
        <ele>401.90969848633</ele>
        <time>2009-04-18T12:39:50Z</time>
      </trkpt>
      <trkpt lat="45.06344" lon="4.70265">
        <ele>402.2922668457</ele>
        <time>2009-04-18T12:39:54Z</time>
      </trkpt>
      <trkpt lat="45.06342" lon="4.70212">
        <ele>402.7942199707</ele>
        <time>2009-04-18T12:39:59Z</time>
      </trkpt>
      <trkpt lat="45.06324" lon="4.70114">
        <ele>403.66329956055</ele>
        <time>2009-04-18T12:40:09Z</time>
      </trkpt>
      <trkpt lat="45.06319" lon="4.70043">
        <ele>405.51205444336</ele>
        <time>2009-04-18T12:40:17Z</time>
      </trkpt>
      <trkpt lat="45.06324" lon="4.70006">
        <ele>407.1208190918</ele>
        <time>2009-04-18T12:40:20Z</time>
      </trkpt>
      <trkpt lat="45.0633" lon="4.69988">
        <ele>407.77896118164</ele>
        <time>2009-04-18T12:40:22Z</time>
      </trkpt>
      <trkpt lat="45.06369" lon="4.69936">
        <ele>410.24041748047</ele>
        <time>2009-04-18T12:40:30Z</time>
      </trkpt>
      <trkpt lat="45.06477" lon="4.69826">
        <ele>415.10192871094</ele>
        <time>2009-04-18T12:40:49Z</time>
      </trkpt>
      <trkpt lat="45.06596" lon="4.69693">
        <ele>419.71157836914</ele>
        <time>2009-04-18T12:41:11Z</time>
      </trkpt>
      <trkpt lat="45.06602" lon="4.69602">
        <ele>420.72695922852</ele>
        <time>2009-04-18T12:41:21Z</time>
      </trkpt>
      <trkpt lat="45.066" lon="4.69578">
        <ele>420.94982910156</ele>
        <time>2009-04-18T12:41:23Z</time>
      </trkpt>
      <trkpt lat="45.06564" lon="4.69405">
        <ele>423.3076171875</ele>
        <time>2009-04-18T12:41:42Z</time>
      </trkpt>
      <trkpt lat="45.06549" lon="4.6934">
        <ele>424.41046142578</ele>
        <time>2009-04-18T12:41:49Z</time>
      </trkpt>
      <trkpt lat="45.06543" lon="4.69329">
        <ele>424.77099609375</ele>
        <time>2009-04-18T12:41:50Z</time>
      </trkpt>
      <trkpt lat="45.06529" lon="4.69313">
        <ele>425.71618652344</ele>
        <time>2009-04-18T12:41:53Z</time>
      </trkpt>
      <trkpt lat="45.06443" lon="4.69248">
        <ele>427.12155151367</ele>
        <time>2009-04-18T12:42:07Z</time>
      </trkpt>
      <trkpt lat="45.06371" lon="4.692">
        <ele>429.68350219727</ele>
        <time>2009-04-18T12:42:18Z</time>
      </trkpt>
      <trkpt lat="45.06289" lon="4.69124">
        <ele>431.38690185547</ele>
        <time>2009-04-18T12:42:32Z</time>
      </trkpt>
      <trkpt lat="45.06168" lon="4.69049">
        <ele>431.37448120117</ele>
        <time>2009-04-18T12:42:51Z</time>
      </trkpt>
      <trkpt lat="45.06132" lon="4.69018">
        <ele>431.13665771484</ele>
        <time>2009-04-18T12:42:58Z</time>
      </trkpt>
      <trkpt lat="45.06125" lon="4.68999">
        <ele>432.00616455078</ele>
        <time>2009-04-18T12:43:00Z</time>
      </trkpt>
      <trkpt lat="45.06123" lon="4.6898">
        <ele>432.14801025391</ele>
        <time>2009-04-18T12:43:02Z</time>
      </trkpt>
      <trkpt lat="45.06119" lon="4.68894">
        <ele>433.54440307617</ele>
        <time>2009-04-18T12:43:10Z</time>
      </trkpt>
      <trkpt lat="45.06096" lon="4.68804">
        <ele>433.66070556641</ele>
        <time>2009-04-18T12:43:20Z</time>
      </trkpt>
      <trkpt lat="45.06115" lon="4.68667">
        <ele>436.55889892578</ele>
        <time>2009-04-18T12:43:34Z</time>
      </trkpt>
      <trkpt lat="45.06122" lon="4.68573">
        <ele>436.35223388672</ele>
        <time>2009-04-18T12:43:44Z</time>
      </trkpt>
      <trkpt lat="45.06141" lon="4.68509">
        <ele>438.43887329102</ele>
        <time>2009-04-18T12:43:51Z</time>
      </trkpt>
      <trkpt lat="45.06147" lon="4.68456">
        <ele>439.79165649414</ele>
        <time>2009-04-18T12:43:57Z</time>
      </trkpt>
      <trkpt lat="45.06139" lon="4.68434">
        <ele>439.32998657227</ele>
        <time>2009-04-18T12:43:59Z</time>
      </trkpt>
      <trkpt lat="45.06122" lon="4.68425">
        <ele>437.96475219727</ele>
        <time>2009-04-18T12:44:02Z</time>
      </trkpt>
      <trkpt lat="45.06096" lon="4.68424">
        <ele>435.68142700195</ele>
        <time>2009-04-18T12:44:06Z</time>
      </trkpt>
      <trkpt lat="45.06071" lon="4.68407">
        <ele>434.84176635742</ele>
        <time>2009-04-18T12:44:10Z</time>
      </trkpt>
      <trkpt lat="45.06067" lon="4.68327">
        <ele>437.9384765625</ele>
        <time>2009-04-18T12:44:18Z</time>
      </trkpt>
      <trkpt lat="45.06039" lon="4.68195">
        <ele>439.65582275391</ele>
        <time>2009-04-18T12:44:32Z</time>
      </trkpt>
      <trkpt lat="45.06054" lon="4.68115">
        <ele>443.73809814453</ele>
        <time>2009-04-18T12:44:40Z</time>
      </trkpt>
      <trkpt lat="45.06062" lon="4.67992">
        <ele>442.68310546875</ele>
        <time>2009-04-18T12:44:53Z</time>
      </trkpt>
      <trkpt lat="45.06068" lon="4.67979">
        <ele>442.82205200195</ele>
        <time>2009-04-18T12:44:55Z</time>
      </trkpt>
      <trkpt lat="45.06087" lon="4.67958">
        <ele>444.10079956055</ele>
        <time>2009-04-18T12:44:58Z</time>
      </trkpt>
      <trkpt lat="45.06124" lon="4.67892">
        <ele>448.50692749023</ele>
        <time>2009-04-18T12:45:07Z</time>
      </trkpt>
      <trkpt lat="45.06126" lon="4.67848">
        <ele>449.08151245117</ele>
        <time>2009-04-18T12:45:11Z</time>
      </trkpt>
      <trkpt lat="45.06121" lon="4.67763">
        <ele>448.41836547852</ele>
        <time>2009-04-18T12:45:20Z</time>
      </trkpt>
      <trkpt lat="45.06123" lon="4.67746">
        <ele>448.51205444336</ele>
        <time>2009-04-18T12:45:22Z</time>
      </trkpt>
      <trkpt lat="45.06158" lon="4.67681">
        <ele>451.76303100586</ele>
        <time>2009-04-18T12:45:30Z</time>
      </trkpt>
      <trkpt lat="45.06165" lon="4.67639">
        <ele>451.31219482422</ele>
        <time>2009-04-18T12:45:34Z</time>
      </trkpt>
      <trkpt lat="45.06192" lon="4.67584">
        <ele>454.19812011719</ele>
        <time>2009-04-18T12:45:41Z</time>
      </trkpt>
      <trkpt lat="45.06196" lon="4.67554">
        <ele>452.62612915039</ele>
        <time>2009-04-18T12:45:44Z</time>
      </trkpt>
      <trkpt lat="45.06218" lon="4.67517">
        <ele>455.05444335938</ele>
        <time>2009-04-18T12:45:49Z</time>
      </trkpt>
      <trkpt lat="45.06257" lon="4.67468">
        <ele>460.52069091797</ele>
        <time>2009-04-18T12:45:57Z</time>
      </trkpt>
      <trkpt lat="45.06272" lon="4.67432">
        <ele>461.28713989258</ele>
        <time>2009-04-18T12:46:01Z</time>
      </trkpt>
      <trkpt lat="45.06295" lon="4.67343">
        <ele>458.87384033203</ele>
        <time>2009-04-18T12:46:11Z</time>
      </trkpt>
      <trkpt lat="45.06322" lon="4.67316">
        <ele>463.03881835938</ele>
        <time>2009-04-18T12:46:16Z</time>
      </trkpt>
      <trkpt lat="45.06355" lon="4.67271">
        <ele>464.07800292969</ele>
        <time>2009-04-18T12:46:22Z</time>
      </trkpt>
      <trkpt lat="45.06359" lon="4.67202">
        <ele>458.91424560547</ele>
        <time>2009-04-18T12:46:29Z</time>
      </trkpt>
      <trkpt lat="45.06368" lon="4.67176">
        <ele>458.25927734375</ele>
        <time>2009-04-18T12:46:32Z</time>
      </trkpt>
      <trkpt lat="45.06427" lon="4.67099">
        <ele>458.6201171875</ele>
        <time>2009-04-18T12:46:44Z</time>
      </trkpt>
      <trkpt lat="45.0648" lon="4.67068">
        <ele>462.7470703125</ele>
        <time>2009-04-18T12:46:52Z</time>
      </trkpt>
      <trkpt lat="45.06488" lon="4.67057">
        <ele>463.48263549805</ele>
        <time>2009-04-18T12:46:54Z</time>
      </trkpt>
      <trkpt lat="45.06502" lon="4.6696">
        <ele>464.50787353516</ele>
        <time>2009-04-18T12:47:04Z</time>
      </trkpt>
      <trkpt lat="45.06518" lon="4.66921">
        <ele>464.77529907227</ele>
        <time>2009-04-18T12:47:08Z</time>
      </trkpt>
      <trkpt lat="45.06555" lon="4.6686">
        <ele>464.79736328125</ele>
        <time>2009-04-18T12:47:17Z</time>
      </trkpt>
      <trkpt lat="45.06555" lon="4.66803">
        <ele>464.77249145508</ele>
        <time>2009-04-18T12:47:22Z</time>
      </trkpt>
      <trkpt lat="45.0657" lon="4.66704">
        <ele>464.18960571289</ele>
        <time>2009-04-18T12:47:33Z</time>
      </trkpt>
      <trkpt lat="45.06582" lon="4.66657">
        <ele>464.53091430664</ele>
        <time>2009-04-18T12:47:38Z</time>
      </trkpt>
      <trkpt lat="45.06598" lon="4.66622">
        <ele>464.31390380859</ele>
        <time>2009-04-18T12:47:42Z</time>
      </trkpt>
      <trkpt lat="45.06647" lon="4.66565">
        <ele>460.19183349609</ele>
        <time>2009-04-18T12:47:51Z</time>
      </trkpt>
      <trkpt lat="45.06652" lon="4.66526">
        <ele>459.39004516602</ele>
        <time>2009-04-18T12:47:55Z</time>
      </trkpt>
      <trkpt lat="45.06651" lon="4.66486">
        <ele>458.40805053711</ele>
        <time>2009-04-18T12:47:59Z</time>
      </trkpt>
      <trkpt lat="45.06642" lon="4.66448">
        <ele>456.86734008789</ele>
        <time>2009-04-18T12:48:04Z</time>
      </trkpt>
      <trkpt lat="45.06634" lon="4.66434">
        <ele>456.90774536133</ele>
        <time>2009-04-18T12:48:05Z</time>
      </trkpt>
      <trkpt lat="45.0659" lon="4.66388">
        <ele>459.54663085938</ele>
        <time>2009-04-18T12:48:13Z</time>
      </trkpt>
      <trkpt lat="45.06586" lon="4.66377">
        <ele>459.3235168457</ele>
        <time>2009-04-18T12:48:15Z</time>
      </trkpt>
      <trkpt lat="45.06584" lon="4.66342">
        <ele>457.43902587891</ele>
        <time>2009-04-18T12:48:18Z</time>
      </trkpt>
      <trkpt lat="45.0659" lon="4.66311">
        <ele>456.80770874023</ele>
        <time>2009-04-18T12:48:21Z</time>
      </trkpt>
      <trkpt lat="45.066" lon="4.66293">
        <ele>456.64898681641</ele>
        <time>2009-04-18T12:48:24Z</time>
      </trkpt>
      <trkpt lat="45.06617" lon="4.66282">
        <ele>456.37658691406</ele>
        <time>2009-04-18T12:48:26Z</time>
      </trkpt>
      <trkpt lat="45.06699" lon="4.66281">
        <ele>451.69482421875</ele>
        <time>2009-04-18T12:48:38Z</time>
      </trkpt>
      <trkpt lat="45.06717" lon="4.6627">
        <ele>451.15872192383</ele>
        <time>2009-04-18T12:48:41Z</time>
      </trkpt>
      <trkpt lat="45.06761" lon="4.66236">
        <ele>450.82852172852</ele>
        <time>2009-04-18T12:48:48Z</time>
      </trkpt>
      <trkpt lat="45.0681" lon="4.66206">
        <ele>451.72653198242</ele>
        <time>2009-04-18T12:48:56Z</time>
      </trkpt>
      <trkpt lat="45.06825" lon="4.66207">
        <ele>450.99978637695</ele>
        <time>2009-04-18T12:48:58Z</time>
      </trkpt>
      <trkpt lat="45.06876" lon="4.66232">
        <ele>448.45440673828</ele>
        <time>2009-04-18T12:49:06Z</time>
      </trkpt>
      <trkpt lat="45.0694" lon="4.66238">
        <ele>447.49118041992</ele>
        <time>2009-04-18T12:49:15Z</time>
      </trkpt>
      <trkpt lat="45.06999" lon="4.66252">
        <ele>443.80346679688</ele>
        <time>2009-04-18T12:49:24Z</time>
      </trkpt>
      <trkpt lat="45.07051" lon="4.66247">
        <ele>441.82080078125</ele>
        <time>2009-04-18T12:49:32Z</time>
      </trkpt>
      <trkpt lat="45.07084" lon="4.66226">
        <ele>441.6643371582</ele>
        <time>2009-04-18T12:49:37Z</time>
      </trkpt>
      <trkpt lat="45.07158" lon="4.66137">
        <ele>439.98547363281</ele>
        <time>2009-04-18T12:49:51Z</time>
      </trkpt>
      <trkpt lat="45.07163" lon="4.66121">
        <ele>440.05960083008</ele>
        <time>2009-04-18T12:49:53Z</time>
      </trkpt>
      <trkpt lat="45.07163" lon="4.66102">
        <ele>440.76541137695</ele>
        <time>2009-04-18T12:49:55Z</time>
      </trkpt>
      <trkpt lat="45.07143" lon="4.66045">
        <ele>442.05953979492</ele>
        <time>2009-04-18T12:50:01Z</time>
      </trkpt>
      <trkpt lat="45.07134" lon="4.6597">
        <ele>440.64868164062</ele>
        <time>2009-04-18T12:50:09Z</time>
      </trkpt>
      <trkpt lat="45.07128" lon="4.65956">
        <ele>441.17245483398</ele>
        <time>2009-04-18T12:50:10Z</time>
      </trkpt>
      <trkpt lat="45.07087" lon="4.65909">
        <ele>446.82437133789</ele>
        <time>2009-04-18T12:50:18Z</time>
      </trkpt>
      <trkpt lat="45.07083" lon="4.6589">
        <ele>448.30221557617</ele>
        <time>2009-04-18T12:50:20Z</time>
      </trkpt>
      <trkpt lat="45.07086" lon="4.65869">
        <ele>448.94152832031</ele>
        <time>2009-04-18T12:50:22Z</time>
      </trkpt>
      <trkpt lat="45.07089" lon="4.65861">
        <ele>449.03298950195</ele>
        <time>2009-04-18T12:50:23Z</time>
      </trkpt>
      <trkpt lat="45.07102" lon="4.6585">
        <ele>448.20205688477</ele>
        <time>2009-04-18T12:50:25Z</time>
      </trkpt>
      <trkpt lat="45.07158" lon="4.65837">
        <ele>443.46875</ele>
        <time>2009-04-18T12:50:34Z</time>
      </trkpt>
      <trkpt lat="45.07194" lon="4.65811">
        <ele>444.20367431641</ele>
        <time>2009-04-18T12:50:39Z</time>
      </trkpt>
      <trkpt lat="45.07244" lon="4.65787">
        <ele>442.87493896484</ele>
        <time>2009-04-18T12:50:47Z</time>
      </trkpt>
      <trkpt lat="45.07255" lon="4.65776">
        <ele>442.26580810547</ele>
        <time>2009-04-18T12:50:49Z</time>
      </trkpt>
      <trkpt lat="45.07272" lon="4.65744">
        <ele>441.79611206055</ele>
        <time>2009-04-18T12:50:53Z</time>
      </trkpt>
      <trkpt lat="45.07298" lon="4.65591">
        <ele>451.64349365234</ele>
        <time>2009-04-18T12:51:09Z</time>
      </trkpt>
      <trkpt lat="45.07321" lon="4.65527">
        <ele>447.77886962891</ele>
        <time>2009-04-18T12:51:16Z</time>
      </trkpt>
      <trkpt lat="45.07346" lon="4.65474">
        <ele>442.91864013672</ele>
        <time>2009-04-18T12:51:23Z</time>
      </trkpt>
      <trkpt lat="45.07351" lon="4.65453">
        <ele>442.82556152344</ele>
        <time>2009-04-18T12:51:25Z</time>
      </trkpt>
      <trkpt lat="45.07363" lon="4.65335">
        <ele>445.90081787109</ele>
        <time>2009-04-18T12:51:37Z</time>
      </trkpt>
      <trkpt lat="45.07383" lon="4.65277">
        <ele>443.68264770508</ele>
        <time>2009-04-18T12:51:44Z</time>
      </trkpt>
      <trkpt lat="45.07385" lon="4.65148">
        <ele>448.86651611328</ele>
        <time>2009-04-18T12:51:57Z</time>
      </trkpt>
      <trkpt lat="45.07403" lon="4.65046">
        <ele>442.5852355957</ele>
        <time>2009-04-18T12:52:08Z</time>
      </trkpt>
      <trkpt lat="45.07418" lon="4.65003">
        <ele>438.35092163086</ele>
        <time>2009-04-18T12:52:13Z</time>
      </trkpt>
      <trkpt lat="45.07429" lon="4.64983">
        <ele>436.22277832031</ele>
        <time>2009-04-18T12:52:15Z</time>
      </trkpt>
      <trkpt lat="45.07452" lon="4.64958">
        <ele>431.43081665039</ele>
        <time>2009-04-18T12:52:20Z</time>
      </trkpt>
      <trkpt lat="45.07491" lon="4.64935">
        <ele>422.89840698242</ele>
        <time>2009-04-18T12:52:26Z</time>
      </trkpt>
      <trkpt lat="45.07499" lon="4.64927">
        <ele>421.80270385742</ele>
        <time>2009-04-18T12:52:27Z</time>
      </trkpt>
      <trkpt lat="45.07506" lon="4.64907">
        <ele>422.13159179688</ele>
        <time>2009-04-18T12:52:29Z</time>
      </trkpt>
      <trkpt lat="45.07511" lon="4.64849">
        <ele>424.95678710938</ele>
        <time>2009-04-18T12:52:35Z</time>
      </trkpt>
      <trkpt lat="45.07506" lon="4.64785">
        <ele>423.52386474609</ele>
        <time>2009-04-18T12:52:42Z</time>
      </trkpt>
      <trkpt lat="45.07446" lon="4.64698">
        <ele>432.80380249023</ele>
        <time>2009-04-18T12:52:54Z</time>
      </trkpt>
      <trkpt lat="45.0744" lon="4.6468">
        <ele>432.74401855469</ele>
        <time>2009-04-18T12:52:56Z</time>
      </trkpt>
      <trkpt lat="45.0744" lon="4.64666">
        <ele>431.56625366211</ele>
        <time>2009-04-18T12:52:58Z</time>
      </trkpt>
      <trkpt lat="45.07445" lon="4.64636">
        <ele>432.57238769531</ele>
        <time>2009-04-18T12:53:01Z</time>
      </trkpt>
      <trkpt lat="45.07467" lon="4.64601">
        <ele>427.9069519043</ele>
        <time>2009-04-18T12:53:06Z</time>
      </trkpt>
      <trkpt lat="45.07479" lon="4.64556">
        <ele>429.5329284668</ele>
        <time>2009-04-18T12:53:11Z</time>
      </trkpt>
      <trkpt lat="45.07493" lon="4.64522">
        <ele>430.20590209961</ele>
        <time>2009-04-18T12:53:15Z</time>
      </trkpt>
      <trkpt lat="45.07538" lon="4.64448">
        <ele>423.22143554688</ele>
        <time>2009-04-18T12:53:25Z</time>
      </trkpt>
      <trkpt lat="45.07518" lon="4.64371">
        <ele>426.59475708008</ele>
        <time>2009-04-18T12:53:33Z</time>
      </trkpt>
      <trkpt lat="45.07512" lon="4.64223">
        <ele>420.73870849609</ele>
        <time>2009-04-18T12:53:48Z</time>
      </trkpt>
      <trkpt lat="45.07519" lon="4.64203">
        <ele>419.39819335938</ele>
        <time>2009-04-18T12:53:50Z</time>
      </trkpt>
      <trkpt lat="45.07549" lon="4.64166">
        <ele>415.90112304688</ele>
        <time>2009-04-18T12:53:56Z</time>
      </trkpt>
      <trkpt lat="45.07571" lon="4.64075">
        <ele>415.95315551758</ele>
        <time>2009-04-18T12:54:06Z</time>
      </trkpt>
      <trkpt lat="45.07574" lon="4.64015">
        <ele>417.28598022461</ele>
        <time>2009-04-18T12:54:12Z</time>
      </trkpt>
      <trkpt lat="45.0753" lon="4.6386">
        <ele>423.65161132812</ele>
        <time>2009-04-18T12:54:29Z</time>
      </trkpt>
      <trkpt lat="45.07528" lon="4.63832">
        <ele>424.32482910156</ele>
        <time>2009-04-18T12:54:32Z</time>
      </trkpt>
      <trkpt lat="45.07532" lon="4.6381">
        <ele>423.97589111328</ele>
        <time>2009-04-18T12:54:34Z</time>
      </trkpt>
      <trkpt lat="45.07545" lon="4.63793">
        <ele>422.57202148438</ele>
        <time>2009-04-18T12:54:37Z</time>
      </trkpt>
      <trkpt lat="45.07618" lon="4.63745">
        <ele>422.17620849609</ele>
        <time>2009-04-18T12:54:49Z</time>
      </trkpt>
      <trkpt lat="45.07704" lon="4.63716">
        <ele>430.66119384766</ele>
        <time>2009-04-18T12:55:01Z</time>
      </trkpt>
      <trkpt lat="45.07716" lon="4.63696">
        <ele>431.31655883789</ele>
        <time>2009-04-18T12:55:04Z</time>
      </trkpt>
      <trkpt lat="45.07731" lon="4.63618">
        <ele>437.07522583008</ele>
        <time>2009-04-18T12:55:12Z</time>
      </trkpt>
      <trkpt lat="45.07738" lon="4.63602">
        <ele>438.8828125</ele>
        <time>2009-04-18T12:55:14Z</time>
      </trkpt>
      <trkpt lat="45.07761" lon="4.63575">
        <ele>442.08251953125</ele>
        <time>2009-04-18T12:55:19Z</time>
      </trkpt>
      <trkpt lat="45.07815" lon="4.63535">
        <ele>445.23080444336</ele>
        <time>2009-04-18T12:55:27Z</time>
      </trkpt>
      <trkpt lat="45.07849" lon="4.63519">
        <ele>445.90100097656</ele>
        <time>2009-04-18T12:55:33Z</time>
      </trkpt>
      <trkpt lat="45.07876" lon="4.63517">
        <ele>445.83474731445</ele>
        <time>2009-04-18T12:55:36Z</time>
      </trkpt>
      <trkpt lat="45.07896" lon="4.63525">
        <ele>444.44729614258</ele>
        <time>2009-04-18T12:55:39Z</time>
      </trkpt>
      <trkpt lat="45.07932" lon="4.6357">
        <ele>440.08117675781</ele>
        <time>2009-04-18T12:55:46Z</time>
      </trkpt>
      <trkpt lat="45.07951" lon="4.63576">
        <ele>440.33163452148</ele>
        <time>2009-04-18T12:55:49Z</time>
      </trkpt>
      <trkpt lat="45.07973" lon="4.63566">
        <ele>442.15673828125</ele>
        <time>2009-04-18T12:55:53Z</time>
      </trkpt>
      <trkpt lat="45.07986" lon="4.63546">
        <ele>444.24475097656</ele>
        <time>2009-04-18T12:55:55Z</time>
      </trkpt>
      <trkpt lat="45.08036" lon="4.63428">
        <ele>453.58758544922</ele>
        <time>2009-04-18T12:56:09Z</time>
      </trkpt>
      <trkpt lat="45.08086" lon="4.63396">
        <ele>450.70684814453</ele>
        <time>2009-04-18T12:56:17Z</time>
      </trkpt>
      <trkpt lat="45.08094" lon="4.63377">
        <ele>453.16891479492</ele>
        <time>2009-04-18T12:56:20Z</time>
      </trkpt>
      <trkpt lat="45.08093" lon="4.63353">
        <ele>456.37509155273</ele>
        <time>2009-04-18T12:56:22Z</time>
      </trkpt>
      <trkpt lat="45.08081" lon="4.63335">
        <ele>459.24349975586</ele>
        <time>2009-04-18T12:56:25Z</time>
      </trkpt>
      <trkpt lat="45.08061" lon="4.63332">
        <ele>463.93072509766</ele>
        <time>2009-04-18T12:56:27Z</time>
      </trkpt>
      <trkpt lat="45.08045" lon="4.63338">
        <ele>466.11331176758</ele>
        <time>2009-04-18T12:56:30Z</time>
      </trkpt>
      <trkpt lat="45.08034" lon="4.63356">
        <ele>465.23870849609</ele>
        <time>2009-04-18T12:56:32Z</time>
      </trkpt>
      <trkpt lat="45.08023" lon="4.63398">
        <ele>459.95520019531</ele>
        <time>2009-04-18T12:56:37Z</time>
      </trkpt>
      <trkpt lat="45.08012" lon="4.63422">
        <ele>457.56567382812</ele>
        <time>2009-04-18T12:56:40Z</time>
      </trkpt>
      <trkpt lat="45.08005" lon="4.6343">
        <ele>457.40542602539</ele>
        <time>2009-04-18T12:56:41Z</time>
      </trkpt>
      <trkpt lat="45.0798" lon="4.63442">
        <ele>456.94952392578</ele>
        <time>2009-04-18T12:56:45Z</time>
      </trkpt>
      <trkpt lat="45.07948" lon="4.6344">
        <ele>458.26681518555</ele>
        <time>2009-04-18T12:56:50Z</time>
      </trkpt>
      <trkpt lat="45.07912" lon="4.6341">
        <ele>465.99032592773</ele>
        <time>2009-04-18T12:56:56Z</time>
      </trkpt>
      <trkpt lat="45.07895" lon="4.63404">
        <ele>468.56372070312</ele>
        <time>2009-04-18T12:56:58Z</time>
      </trkpt>
      <trkpt lat="45.07865" lon="4.63411">
        <ele>468.92807006836</ele>
        <time>2009-04-18T12:57:02Z</time>
      </trkpt>
      <trkpt lat="45.07817" lon="4.63433">
        <ele>467.67950439453</ele>
        <time>2009-04-18T12:57:10Z</time>
      </trkpt>
      <trkpt lat="45.07734" lon="4.63456">
        <ele>467.74713134766</ele>
        <time>2009-04-18T12:57:22Z</time>
      </trkpt>
      <trkpt lat="45.07716" lon="4.6345">
        <ele>465.60403442383</ele>
        <time>2009-04-18T12:57:25Z</time>
      </trkpt>
      <trkpt lat="45.0771" lon="4.63426">
        <ele>467.62359619141</ele>
        <time>2009-04-18T12:57:27Z</time>
      </trkpt>
      <trkpt lat="45.07711" lon="4.6341">
        <ele>469.25262451172</ele>
        <time>2009-04-18T12:57:29Z</time>
      </trkpt>
      <trkpt lat="45.07724" lon="4.63388">
        <ele>472.62002563477</ele>
        <time>2009-04-18T12:57:32Z</time>
      </trkpt>
      <trkpt lat="45.0784" lon="4.63341">
        <ele>484.41226196289</ele>
        <time>2009-04-18T12:57:49Z</time>
      </trkpt>
      <trkpt lat="45.07898" lon="4.6331">
        <ele>487.30407714844</ele>
        <time>2009-04-18T12:57:58Z</time>
      </trkpt>
      <trkpt lat="45.07936" lon="4.63281">
        <ele>489.57708740234</ele>
        <time>2009-04-18T12:58:04Z</time>
      </trkpt>
      <trkpt lat="45.07964" lon="4.63235">
        <ele>493.73095703125</ele>
        <time>2009-04-18T12:58:11Z</time>
      </trkpt>
      <trkpt lat="45.07971" lon="4.6323">
        <ele>494.09243774414</ele>
        <time>2009-04-18T12:58:12Z</time>
      </trkpt>
      <trkpt lat="45.08018" lon="4.63227">
        <ele>493.1884765625</ele>
        <time>2009-04-18T12:58:19Z</time>
      </trkpt>
      <trkpt lat="45.0804" lon="4.6322">
        <ele>492.5432434082</ele>
        <time>2009-04-18T12:58:22Z</time>
      </trkpt>
      <trkpt lat="45.0816" lon="4.63113">
        <ele>506.34014892578</ele>
        <time>2009-04-18T12:58:42Z</time>
      </trkpt>
      <trkpt lat="45.08195" lon="4.63105">
        <ele>507.29605102539</ele>
        <time>2009-04-18T12:58:48Z</time>
      </trkpt>
      <trkpt lat="45.08231" lon="4.63107">
        <ele>506.83361816406</ele>
        <time>2009-04-18T12:58:53Z</time>
      </trkpt>
      <trkpt lat="45.08253" lon="4.63099">
        <ele>508.08895874023</ele>
        <time>2009-04-18T12:58:56Z</time>
      </trkpt>
      <trkpt lat="45.0837" lon="4.62864">
        <ele>523.38323974609</ele>
        <time>2009-04-18T12:59:25Z</time>
      </trkpt>
      <trkpt lat="45.08444" lon="4.6274">
        <ele>527.9853515625</ele>
        <time>2009-04-18T12:59:42Z</time>
      </trkpt>
      <trkpt lat="45.08453" lon="4.62733">
        <ele>528.87963867188</ele>
        <time>2009-04-18T12:59:43Z</time>
      </trkpt>
      <trkpt lat="45.08474" lon="4.62732">
        <ele>529.89916992188</ele>
        <time>2009-04-18T12:59:46Z</time>
      </trkpt>
      <trkpt lat="45.08489" lon="4.6274">
        <ele>530.08111572266</ele>
        <time>2009-04-18T12:59:49Z</time>
      </trkpt>
      <trkpt lat="45.08539" lon="4.6282">
        <ele>531.94689941406</ele>
        <time>2009-04-18T13:00:00Z</time>
      </trkpt>
      <trkpt lat="45.08583" lon="4.62862">
        <ele>535.171875</ele>
        <time>2009-04-18T13:00:07Z</time>
      </trkpt>
      <trkpt lat="45.08608" lon="4.62871">
        <ele>535.28436279297</ele>
        <time>2009-04-18T13:00:11Z</time>
      </trkpt>
      <trkpt lat="45.08669" lon="4.62872">
        <ele>537.81549072266</ele>
        <time>2009-04-18T13:00:20Z</time>
      </trkpt>
      <trkpt lat="45.08669" lon="4.62831">
        <ele>540.71429443359</ele>
        <time>2009-04-18T13:00:24Z</time>
      </trkpt>
      <trkpt lat="45.08655" lon="4.62834">
        <ele>540.67236328125</ele>
        <time>2009-04-18T13:00:26Z</time>
      </trkpt>
      <trkpt lat="45.08625" lon="4.62819">
        <ele>540.8603515625</ele>
        <time>2009-04-18T13:00:31Z</time>
      </trkpt>
      <trkpt lat="45.08599" lon="4.62784">
        <ele>542.70599365234</ele>
        <time>2009-04-18T13:00:36Z</time>
      </trkpt>
      <trkpt lat="45.08592" lon="4.62754">
        <ele>544.72100830078</ele>
        <time>2009-04-18T13:00:39Z</time>
      </trkpt>
      <trkpt lat="45.08593" lon="4.62706">
        <ele>546.11730957031</ele>
        <time>2009-04-18T13:00:44Z</time>
      </trkpt>
      <trkpt lat="45.08589" lon="4.62651">
        <ele>547.68621826172</ele>
        <time>2009-04-18T13:00:50Z</time>
      </trkpt>
      <trkpt lat="45.08577" lon="4.6259">
        <ele>549.12506103516</ele>
        <time>2009-04-18T13:00:56Z</time>
      </trkpt>
      <trkpt lat="45.08525" lon="4.62415">
        <ele>557.513671875</ele>
        <time>2009-04-18T13:01:16Z</time>
      </trkpt>
      <trkpt lat="45.08499" lon="4.62341">
        <ele>562.99908447266</ele>
        <time>2009-04-18T13:01:24Z</time>
      </trkpt>
      <trkpt lat="45.08456" lon="4.62239">
        <ele>569.72039794922</ele>
        <time>2009-04-18T13:01:36Z</time>
      </trkpt>
      <trkpt lat="45.08439" lon="4.62177">
        <ele>572.79748535156</ele>
        <time>2009-04-18T13:01:43Z</time>
      </trkpt>
      <trkpt lat="45.08438" lon="4.62159">
        <ele>573.53704833984</ele>
        <time>2009-04-18T13:01:45Z</time>
      </trkpt>
      <trkpt lat="45.0846" lon="4.62077">
        <ele>577.55096435547</ele>
        <time>2009-04-18T13:01:54Z</time>
      </trkpt>
      <trkpt lat="45.08472" lon="4.6201">
        <ele>577.97979736328</ele>
        <time>2009-04-18T13:02:01Z</time>
      </trkpt>
      <trkpt lat="45.08475" lon="4.61871">
        <ele>579.06341552734</ele>
        <time>2009-04-18T13:02:15Z</time>
      </trkpt>
      <trkpt lat="45.08489" lon="4.61794">
        <ele>584.85809326172</ele>
        <time>2009-04-18T13:02:23Z</time>
      </trkpt>
      <trkpt lat="45.08494" lon="4.61717">
        <ele>588.68133544922</ele>
        <time>2009-04-18T13:02:31Z</time>
      </trkpt>
      <trkpt lat="45.08491" lon="4.61672">
        <ele>589.56640625</ele>
        <time>2009-04-18T13:02:36Z</time>
      </trkpt>
      <trkpt lat="45.08493" lon="4.61469">
        <ele>594.19470214844</ele>
        <time>2009-04-18T13:02:56Z</time>
      </trkpt>
      <trkpt lat="45.08496" lon="4.61448">
        <ele>593.83581542969</ele>
        <time>2009-04-18T13:02:58Z</time>
      </trkpt>
      <trkpt lat="45.08505" lon="4.61425">
        <ele>594.1953125</ele>
        <time>2009-04-18T13:03:01Z</time>
      </trkpt>
      <trkpt lat="45.08519" lon="4.61414">
        <ele>595.66912841797</ele>
        <time>2009-04-18T13:03:03Z</time>
      </trkpt>
      <trkpt lat="45.08574" lon="4.61398">
        <ele>601.74237060547</ele>
        <time>2009-04-18T13:03:12Z</time>
      </trkpt>
      <trkpt lat="45.08638" lon="4.61354">
        <ele>607.37408447266</ele>
        <time>2009-04-18T13:03:22Z</time>
      </trkpt>
      <trkpt lat="45.08699" lon="4.61348">
        <ele>618.11828613281</ele>
        <time>2009-04-18T13:03:31Z</time>
      </trkpt>
      <trkpt lat="45.08711" lon="4.61334">
        <ele>618.12042236328</ele>
        <time>2009-04-18T13:03:33Z</time>
      </trkpt>
      <trkpt lat="45.08715" lon="4.61314">
        <ele>619.8740234375</ele>
        <time>2009-04-18T13:03:35Z</time>
      </trkpt>
      <trkpt lat="45.08714" lon="4.6129">
        <ele>620.85864257812</ele>
        <time>2009-04-18T13:03:38Z</time>
      </trkpt>
      <trkpt lat="45.08705" lon="4.61263">
        <ele>620.09552001953</ele>
        <time>2009-04-18T13:03:41Z</time>
      </trkpt>
      <trkpt lat="45.08691" lon="4.61243">
        <ele>618.32293701172</ele>
        <time>2009-04-18T13:03:43Z</time>
      </trkpt>
      <trkpt lat="45.08636" lon="4.61193">
        <ele>613.40307617188</ele>
        <time>2009-04-18T13:03:53Z</time>
      </trkpt>
      <trkpt lat="45.08625" lon="4.61166">
        <ele>614.60437011719</ele>
        <time>2009-04-18T13:03:56Z</time>
      </trkpt>
      <trkpt lat="45.08589" lon="4.61012">
        <ele>625.91363525391</ele>
        <time>2009-04-18T13:04:13Z</time>
      </trkpt>
      <trkpt lat="45.08583" lon="4.60967">
        <ele>627.107421875</ele>
        <time>2009-04-18T13:04:17Z</time>
      </trkpt>
      <trkpt lat="45.08577" lon="4.60828">
        <ele>631.6572265625</ele>
        <time>2009-04-18T13:04:32Z</time>
      </trkpt>
      <trkpt lat="45.0855" lon="4.60747">
        <ele>630.88189697266</ele>
        <time>2009-04-18T13:04:41Z</time>
      </trkpt>
      <trkpt lat="45.08546" lon="4.60722">
        <ele>630.87841796875</ele>
        <time>2009-04-18T13:04:43Z</time>
      </trkpt>
      <trkpt lat="45.08549" lon="4.60675">
        <ele>633.26184082031</ele>
        <time>2009-04-18T13:04:48Z</time>
      </trkpt>
      <trkpt lat="45.08576" lon="4.60586">
        <ele>637.58721923828</ele>
        <time>2009-04-18T13:04:58Z</time>
      </trkpt>
      <trkpt lat="45.08599" lon="4.60529">
        <ele>636.49346923828</ele>
        <time>2009-04-18T13:05:05Z</time>
      </trkpt>
      <trkpt lat="45.08624" lon="4.60504">
        <ele>636.34796142578</ele>
        <time>2009-04-18T13:05:09Z</time>
      </trkpt>
      <trkpt lat="45.08642" lon="4.60498">
        <ele>637.32360839844</ele>
        <time>2009-04-18T13:05:12Z</time>
      </trkpt>
      <trkpt lat="45.08659" lon="4.605">
        <ele>639.26245117188</ele>
        <time>2009-04-18T13:05:14Z</time>
      </trkpt>
      <trkpt lat="45.08685" lon="4.60512">
        <ele>640.55432128906</ele>
        <time>2009-04-18T13:05:18Z</time>
      </trkpt>
      <trkpt lat="45.08744" lon="4.60582">
        <ele>648.01129150391</ele>
        <time>2009-04-18T13:05:29Z</time>
      </trkpt>
      <trkpt lat="45.08777" lon="4.6061">
        <ele>648.69610595703</ele>
        <time>2009-04-18T13:05:35Z</time>
      </trkpt>
      <trkpt lat="45.08839" lon="4.60647">
        <ele>649.09393310547</ele>
        <time>2009-04-18T13:05:45Z</time>
      </trkpt>
      <trkpt lat="45.08865" lon="4.60674">
        <ele>647.54772949219</ele>
        <time>2009-04-18T13:05:49Z</time>
      </trkpt>
      <trkpt lat="45.08875" lon="4.60708">
        <ele>648.9892578125</ele>
        <time>2009-04-18T13:05:53Z</time>
      </trkpt>
      <trkpt lat="45.08877" lon="4.6073">
        <ele>650.98181152344</ele>
        <time>2009-04-18T13:05:55Z</time>
      </trkpt>
      <trkpt lat="45.08873" lon="4.60876">
        <ele>660.69897460938</ele>
        <time>2009-04-18T13:06:10Z</time>
      </trkpt>
      <trkpt lat="45.08877" lon="4.60932">
        <ele>663.28778076172</ele>
        <time>2009-04-18T13:06:16Z</time>
      </trkpt>
      <trkpt lat="45.08881" lon="4.60964">
        <ele>665.36474609375</ele>
        <time>2009-04-18T13:06:19Z</time>
      </trkpt>
      <trkpt lat="45.08891" lon="4.60991">
        <ele>667.51995849609</ele>
        <time>2009-04-18T13:06:22Z</time>
      </trkpt>
      <trkpt lat="45.08902" lon="4.61003">
        <ele>669.09057617188</ele>
        <time>2009-04-18T13:06:24Z</time>
      </trkpt>
      <trkpt lat="45.08921" lon="4.61006">
        <ele>671.01885986328</ele>
        <time>2009-04-18T13:06:27Z</time>
      </trkpt>
      <trkpt lat="45.08942" lon="4.60998">
        <ele>674.46771240234</ele>
        <time>2009-04-18T13:06:30Z</time>
      </trkpt>
      <trkpt lat="45.09016" lon="4.60907">
        <ele>671.49792480469</ele>
        <time>2009-04-18T13:06:44Z</time>
      </trkpt>
      <trkpt lat="45.0904" lon="4.6089">
        <ele>669.93823242188</ele>
        <time>2009-04-18T13:06:48Z</time>
      </trkpt>
      <trkpt lat="45.09069" lon="4.60882">
        <ele>671.61492919922</ele>
        <time>2009-04-18T13:06:53Z</time>
      </trkpt>
      <trkpt lat="45.09113" lon="4.60887">
        <ele>673.09631347656</ele>
        <time>2009-04-18T13:06:59Z</time>
      </trkpt>
      <trkpt lat="45.09162" lon="4.60917">
        <ele>678.4130859375</ele>
        <time>2009-04-18T13:07:07Z</time>
      </trkpt>
      <trkpt lat="45.09197" lon="4.60957">
        <ele>681.96453857422</ele>
        <time>2009-04-18T13:07:13Z</time>
      </trkpt>
      <trkpt lat="45.09217" lon="4.61009">
        <ele>689.79949951172</ele>
        <time>2009-04-18T13:07:19Z</time>
      </trkpt>
      <trkpt lat="45.09233" lon="4.61037">
        <ele>691.96295166016</ele>
        <time>2009-04-18T13:07:23Z</time>
      </trkpt>
      <trkpt lat="45.09253" lon="4.61063">
        <ele>693.81030273438</ele>
        <time>2009-04-18T13:07:27Z</time>
      </trkpt>
      <trkpt lat="45.09267" lon="4.61069">
        <ele>696.03460693359</ele>
        <time>2009-04-18T13:07:29Z</time>
      </trkpt>
      <trkpt lat="45.09325" lon="4.61064">
        <ele>698.95318603516</ele>
        <time>2009-04-18T13:07:37Z</time>
      </trkpt>
      <trkpt lat="45.09345" lon="4.61057">
        <ele>700.42211914062</ele>
        <time>2009-04-18T13:07:40Z</time>
      </trkpt>
      <trkpt lat="45.0936" lon="4.6104">
        <ele>700.35986328125</ele>
        <time>2009-04-18T13:07:43Z</time>
      </trkpt>
      <trkpt lat="45.09368" lon="4.60957">
        <ele>688.09118652344</ele>
        <time>2009-04-18T13:07:52Z</time>
      </trkpt>
      <trkpt lat="45.09374" lon="4.60945">
        <ele>687.34527587891</ele>
        <time>2009-04-18T13:07:53Z</time>
      </trkpt>
      <trkpt lat="45.09393" lon="4.60931">
        <ele>689.16009521484</ele>
        <time>2009-04-18T13:07:56Z</time>
      </trkpt>
      <trkpt lat="45.09427" lon="4.60924">
        <ele>693.0546875</ele>
        <time>2009-04-18T13:08:01Z</time>
      </trkpt>
      <trkpt lat="45.09456" lon="4.60928">
        <ele>693.49139404297</ele>
        <time>2009-04-18T13:08:05Z</time>
      </trkpt>
      <trkpt lat="45.09571" lon="4.60973">
        <ele>705.4765625</ele>
        <time>2009-04-18T13:08:23Z</time>
      </trkpt>
      <trkpt lat="45.09586" lon="4.60971">
        <ele>706.05120849609</ele>
        <time>2009-04-18T13:08:25Z</time>
      </trkpt>
      <trkpt lat="45.09598" lon="4.60963">
        <ele>706.09594726562</ele>
        <time>2009-04-18T13:08:27Z</time>
      </trkpt>
      <trkpt lat="45.09614" lon="4.60937">
        <ele>704.92980957031</ele>
        <time>2009-04-18T13:08:30Z</time>
      </trkpt>
      <trkpt lat="45.09615" lon="4.60877">
        <ele>702.11047363281</ele>
        <time>2009-04-18T13:08:36Z</time>
      </trkpt>
      <trkpt lat="45.09605" lon="4.60774">
        <ele>703.21850585938</ele>
        <time>2009-04-18T13:08:47Z</time>
      </trkpt>
      <trkpt lat="45.09577" lon="4.60639">
        <ele>712.04333496094</ele>
        <time>2009-04-18T13:09:01Z</time>
      </trkpt>
      <trkpt lat="45.09563" lon="4.60513">
        <ele>717.85699462891</ele>
        <time>2009-04-18T13:09:14Z</time>
      </trkpt>
      <trkpt lat="45.09556" lon="4.60408">
        <ele>726.06372070312</ele>
        <time>2009-04-18T13:09:25Z</time>
      </trkpt>
      <trkpt lat="45.09537" lon="4.6032">
        <ele>722.53643798828</ele>
        <time>2009-04-18T13:09:35Z</time>
      </trkpt>
      <trkpt lat="45.09543" lon="4.60307">
        <ele>722.57403564453</ele>
        <time>2009-04-18T13:09:36Z</time>
      </trkpt>
      <trkpt lat="45.09576" lon="4.60285">
        <ele>726.51129150391</ele>
        <time>2009-04-18T13:09:41Z</time>
      </trkpt>
      <trkpt lat="45.09624" lon="4.60185">
        <ele>731.59619140625</ele>
        <time>2009-04-18T13:09:54Z</time>
      </trkpt>
      <trkpt lat="45.09637" lon="4.60134">
        <ele>736.11218261719</ele>
        <time>2009-04-18T13:09:59Z</time>
      </trkpt>
      <trkpt lat="45.09665" lon="4.59932">
        <ele>749.08123779297</ele>
        <time>2009-04-18T13:10:20Z</time>
      </trkpt>
      <trkpt lat="45.09652" lon="4.59804">
        <ele>750.28601074219</ele>
        <time>2009-04-18T13:10:34Z</time>
      </trkpt>
      <trkpt lat="45.09652" lon="4.59742">
        <ele>754.66619873047</ele>
        <time>2009-04-18T13:10:40Z</time>
      </trkpt>
      <trkpt lat="45.0964" lon="4.59696">
        <ele>755.83721923828</ele>
        <time>2009-04-18T13:10:45Z</time>
      </trkpt>
      <trkpt lat="45.09583" lon="4.5959">
        <ele>748.01214599609</ele>
        <time>2009-04-18T13:10:58Z</time>
      </trkpt>
      <trkpt lat="45.09568" lon="4.59542">
        <ele>749.97326660156</ele>
        <time>2009-04-18T13:11:04Z</time>
      </trkpt>
      <trkpt lat="45.0956" lon="4.59482">
        <ele>757.19598388672</ele>
        <time>2009-04-18T13:11:10Z</time>
      </trkpt>
      <trkpt lat="45.09547" lon="4.59442">
        <ele>763.26275634766</ele>
        <time>2009-04-18T13:11:15Z</time>
      </trkpt>
      <trkpt lat="45.0953" lon="4.59417">
        <ele>764.17279052734</ele>
        <time>2009-04-18T13:11:18Z</time>
      </trkpt>
      <trkpt lat="45.09481" lon="4.59374">
        <ele>764.22265625</ele>
        <time>2009-04-18T13:11:26Z</time>
      </trkpt>
      <trkpt lat="45.09454" lon="4.59342">
        <ele>764.25036621094</ele>
        <time>2009-04-18T13:11:31Z</time>
      </trkpt>
      <trkpt lat="45.09443" lon="4.59325">
        <ele>763.6103515625</ele>
        <time>2009-04-18T13:11:34Z</time>
      </trkpt>
      <trkpt lat="45.09434" lon="4.59297">
        <ele>764.26617431641</ele>
        <time>2009-04-18T13:11:37Z</time>
      </trkpt>
      <trkpt lat="45.09423" lon="4.59208">
        <ele>768.62719726562</ele>
        <time>2009-04-18T13:11:46Z</time>
      </trkpt>
      <trkpt lat="45.09425" lon="4.59136">
        <ele>773.13305664062</ele>
        <time>2009-04-18T13:11:54Z</time>
      </trkpt>
      <trkpt lat="45.09406" lon="4.58956">
        <ele>779.12316894531</ele>
        <time>2009-04-18T13:12:12Z</time>
      </trkpt>
      <trkpt lat="45.09405" lon="4.58867">
        <ele>788.02856445312</ele>
        <time>2009-04-18T13:12:21Z</time>
      </trkpt>
      <trkpt lat="45.09389" lon="4.58763">
        <ele>788.50286865234</ele>
        <time>2009-04-18T13:12:32Z</time>
      </trkpt>
      <trkpt lat="45.09385" lon="4.58681">
        <ele>788.58721923828</ele>
        <time>2009-04-18T13:12:40Z</time>
      </trkpt>
      <trkpt lat="45.09391" lon="4.58651">
        <ele>789.5634765625</ele>
        <time>2009-04-18T13:12:44Z</time>
      </trkpt>
      <trkpt lat="45.09413" lon="4.58609">
        <ele>792.87561035156</ele>
        <time>2009-04-18T13:12:49Z</time>
      </trkpt>
      <trkpt lat="45.09462" lon="4.58543">
        <ele>793.66540527344</ele>
        <time>2009-04-18T13:12:59Z</time>
      </trkpt>
      <trkpt lat="45.0949" lon="4.58526">
        <ele>795.52410888672</ele>
        <time>2009-04-18T13:13:03Z</time>
      </trkpt>
      <trkpt lat="45.09508" lon="4.58525">
        <ele>796.45373535156</ele>
        <time>2009-04-18T13:13:06Z</time>
      </trkpt>
      <trkpt lat="45.09519" lon="4.58531">
        <ele>796.96356201172</ele>
        <time>2009-04-18T13:13:07Z</time>
      </trkpt>
      <trkpt lat="45.09618" lon="4.58629">
        <ele>816.82122802734</ele>
        <time>2009-04-18T13:13:25Z</time>
      </trkpt>
      <trkpt lat="45.09646" lon="4.58645">
        <ele>818.84686279297</ele>
        <time>2009-04-18T13:13:29Z</time>
      </trkpt>
      <trkpt lat="45.09692" lon="4.58639">
        <ele>818.9384765625</ele>
        <time>2009-04-18T13:13:36Z</time>
      </trkpt>
      <trkpt lat="45.09764" lon="4.58587">
        <ele>817.36871337891</ele>
        <time>2009-04-18T13:13:48Z</time>
      </trkpt>
      <trkpt lat="45.09785" lon="4.58581">
        <ele>821.4599609375</ele>
        <time>2009-04-18T13:13:51Z</time>
      </trkpt>
      <trkpt lat="45.0981" lon="4.58555">
        <ele>824.95111083984</ele>
        <time>2009-04-18T13:13:55Z</time>
      </trkpt>
      <trkpt lat="45.09824" lon="4.58523">
        <ele>826.80682373047</ele>
        <time>2009-04-18T13:13:59Z</time>
      </trkpt>
      <trkpt lat="45.09834" lon="4.58459">
        <ele>827.24188232422</ele>
        <time>2009-04-18T13:14:06Z</time>
      </trkpt>
      <trkpt lat="45.09834" lon="4.58362">
        <ele>823.90673828125</ele>
        <time>2009-04-18T13:14:16Z</time>
      </trkpt>
      <trkpt lat="45.09839" lon="4.58336">
        <ele>825.12731933594</ele>
        <time>2009-04-18T13:14:18Z</time>
      </trkpt>
      <trkpt lat="45.0985" lon="4.58323">
        <ele>827.38879394531</ele>
        <time>2009-04-18T13:14:20Z</time>
      </trkpt>
      <trkpt lat="45.09878" lon="4.58311">
        <ele>835.63208007812</ele>
        <time>2009-04-18T13:14:25Z</time>
      </trkpt>
      <trkpt lat="45.09895" lon="4.58292">
        <ele>838.24285888672</ele>
        <time>2009-04-18T13:14:28Z</time>
      </trkpt>
      <trkpt lat="45.09955" lon="4.58155">
        <ele>841.24670410156</ele>
        <time>2009-04-18T13:14:44Z</time>
      </trkpt>
      <trkpt lat="45.09984" lon="4.58079">
        <ele>845.38995361328</ele>
        <time>2009-04-18T13:14:53Z</time>
      </trkpt>
      <trkpt lat="45.10007" lon="4.57997">
        <ele>850.4384765625</ele>
        <time>2009-04-18T13:15:02Z</time>
      </trkpt>
      <trkpt lat="45.1001" lon="4.57938">
        <ele>854.07952880859</ele>
        <time>2009-04-18T13:15:08Z</time>
      </trkpt>
      <trkpt lat="45.09979" lon="4.57807">
        <ele>854.28283691406</ele>
        <time>2009-04-18T13:15:22Z</time>
      </trkpt>
      <trkpt lat="45.09971" lon="4.57717">
        <ele>848.53430175781</ele>
        <time>2009-04-18T13:15:32Z</time>
      </trkpt>
      <trkpt lat="45.0998" lon="4.57699">
        <ele>850.35662841797</ele>
        <time>2009-04-18T13:15:34Z</time>
      </trkpt>
      <trkpt lat="45.10056" lon="4.57612">
        <ele>866.05773925781</ele>
        <time>2009-04-18T13:15:48Z</time>
      </trkpt>
      <trkpt lat="45.10149" lon="4.57434">
        <ele>864.19586181641</ele>
        <time>2009-04-18T13:16:10Z</time>
      </trkpt>
      <trkpt lat="45.10157" lon="4.57429">
        <ele>865.52563476562</ele>
        <time>2009-04-18T13:16:12Z</time>
      </trkpt>
      <trkpt lat="45.10252" lon="4.57423">
        <ele>883.77746582031</ele>
        <time>2009-04-18T13:16:25Z</time>
      </trkpt>
      <trkpt lat="45.10262" lon="4.5742">
        <ele>886.84375</ele>
        <time>2009-04-18T13:16:27Z</time>
      </trkpt>
      <trkpt lat="45.1027" lon="4.57408">
        <ele>887.09558105469</ele>
        <time>2009-04-18T13:16:29Z</time>
      </trkpt>
      <trkpt lat="45.10319" lon="4.57202">
        <ele>876.69311523438</ele>
        <time>2009-04-18T13:16:51Z</time>
      </trkpt>
      <trkpt lat="45.10325" lon="4.57118">
        <ele>873.15393066406</ele>
        <time>2009-04-18T13:16:59Z</time>
      </trkpt>
      <trkpt lat="45.1035" lon="4.57032">
        <ele>882.83233642578</ele>
        <time>2009-04-18T13:17:09Z</time>
      </trkpt>
      <trkpt lat="45.10353" lon="4.56959">
        <ele>881.37664794922</ele>
        <time>2009-04-18T13:17:16Z</time>
      </trkpt>
      <trkpt lat="45.10373" lon="4.5688">
        <ele>886.50103759766</ele>
        <time>2009-04-18T13:17:25Z</time>
      </trkpt>
      <trkpt lat="45.10398" lon="4.56703">
        <ele>889.16900634766</ele>
        <time>2009-04-18T13:17:43Z</time>
      </trkpt>
      <trkpt lat="45.10424" lon="4.5661">
        <ele>892.03552246094</ele>
        <time>2009-04-18T13:17:54Z</time>
      </trkpt>
      <trkpt lat="45.10461" lon="4.5651">
        <ele>895.78369140625</ele>
        <time>2009-04-18T13:18:05Z</time>
      </trkpt>
      <trkpt lat="45.10505" lon="4.56337">
        <ele>903.21759033203</ele>
        <time>2009-04-18T13:18:24Z</time>
      </trkpt>
      <trkpt lat="45.10514" lon="4.56259">
        <ele>903.97332763672</ele>
        <time>2009-04-18T13:18:32Z</time>
      </trkpt>
      <trkpt lat="45.10511" lon="4.56174">
        <ele>906.11907958984</ele>
        <time>2009-04-18T13:18:41Z</time>
      </trkpt>
      <trkpt lat="45.10494" lon="4.56046">
        <ele>918.94921875</ele>
        <time>2009-04-18T13:18:54Z</time>
      </trkpt>
      <trkpt lat="45.105" lon="4.55917">
        <ele>923.00433349609</ele>
        <time>2009-04-18T13:19:07Z</time>
      </trkpt>
      <trkpt lat="45.10492" lon="4.5582">
        <ele>932.98156738281</ele>
        <time>2009-04-18T13:19:17Z</time>
      </trkpt>
      <trkpt lat="45.10452" lon="4.55663">
        <ele>943.77075195312</ele>
        <time>2009-04-18T13:19:34Z</time>
      </trkpt>
      <trkpt lat="45.10402" lon="4.5554">
        <ele>948.43609619141</ele>
        <time>2009-04-18T13:19:49Z</time>
      </trkpt>
      <trkpt lat="45.1039" lon="4.55464">
        <ele>946.47387695312</ele>
        <time>2009-04-18T13:19:57Z</time>
      </trkpt>
      <trkpt lat="45.10342" lon="4.5535">
        <ele>951.96032714844</ele>
        <time>2009-04-18T13:20:10Z</time>
      </trkpt>
      <trkpt lat="45.1033" lon="4.55311">
        <ele>953.91253662109</ele>
        <time>2009-04-18T13:20:14Z</time>
      </trkpt>
      <trkpt lat="45.10324" lon="4.55283">
        <ele>955.78485107422</ele>
        <time>2009-04-18T13:20:17Z</time>
      </trkpt>
      <trkpt lat="45.10327" lon="4.5522">
        <ele>954.99377441406</ele>
        <time>2009-04-18T13:20:24Z</time>
      </trkpt>
      <trkpt lat="45.10321" lon="4.55152">
        <ele>958.06628417969</ele>
        <time>2009-04-18T13:20:31Z</time>
      </trkpt>
      <trkpt lat="45.1031" lon="4.55133">
        <ele>960.03424072266</ele>
        <time>2009-04-18T13:20:33Z</time>
      </trkpt>
      <trkpt lat="45.10263" lon="4.55103">
        <ele>970.28363037109</ele>
        <time>2009-04-18T13:20:41Z</time>
      </trkpt>
      <trkpt lat="45.10238" lon="4.55079">
        <ele>974.16516113281</ele>
        <time>2009-04-18T13:20:45Z</time>
      </trkpt>
      <trkpt lat="45.10202" lon="4.55025">
        <ele>977.25323486328</ele>
        <time>2009-04-18T13:20:53Z</time>
      </trkpt>
      <trkpt lat="45.10175" lon="4.54993">
        <ele>981.87145996094</ele>
        <time>2009-04-18T13:20:58Z</time>
      </trkpt>
      <trkpt lat="45.10139" lon="4.54967">
        <ele>988.59649658203</ele>
        <time>2009-04-18T13:21:04Z</time>
      </trkpt>
      <trkpt lat="45.10121" lon="4.54948">
        <ele>991.18792724609</ele>
        <time>2009-04-18T13:21:07Z</time>
      </trkpt>
      <trkpt lat="45.10102" lon="4.54918">
        <ele>993.10046386719</ele>
        <time>2009-04-18T13:21:11Z</time>
      </trkpt>
      <trkpt lat="45.10024" lon="4.54731">
        <ele>1003.2210083008</ele>
        <time>2009-04-18T13:21:33Z</time>
      </trkpt>
      <trkpt lat="45.1002" lon="4.54705">
        <ele>1005.2448730469</ele>
        <time>2009-04-18T13:21:36Z</time>
      </trkpt>
      <trkpt lat="45.10023" lon="4.54594">
        <ele>1009.5436401367</ele>
        <time>2009-04-18T13:21:47Z</time>
      </trkpt>
      <trkpt lat="45.1003" lon="4.54569">
        <ele>1010.0987548828</ele>
        <time>2009-04-18T13:21:50Z</time>
      </trkpt>
      <trkpt lat="45.10039" lon="4.54557">
        <ele>1008.8104858398</ele>
        <time>2009-04-18T13:21:52Z</time>
      </trkpt>
      <trkpt lat="45.10057" lon="4.54511">
        <ele>1009.5114135742</ele>
        <time>2009-04-18T13:21:57Z</time>
      </trkpt>
      <trkpt lat="45.10059" lon="4.54479">
        <ele>1010.9927368164</ele>
        <time>2009-04-18T13:22:00Z</time>
      </trkpt>
      <trkpt lat="45.10054" lon="4.54433">
        <ele>1014.1820068359</ele>
        <time>2009-04-18T13:22:05Z</time>
      </trkpt>
      <trkpt lat="45.10055" lon="4.54392">
        <ele>1017.4219360352</ele>
        <time>2009-04-18T13:22:09Z</time>
      </trkpt>
      <trkpt lat="45.10104" lon="4.54312">
        <ele>1010.6679077148</ele>
        <time>2009-04-18T13:22:20Z</time>
      </trkpt>
      <trkpt lat="45.10115" lon="4.54283">
        <ele>1012.7846679688</ele>
        <time>2009-04-18T13:22:24Z</time>
      </trkpt>
      <trkpt lat="45.10128" lon="4.54186">
        <ele>1022.9331054688</ele>
        <time>2009-04-18T13:22:34Z</time>
      </trkpt>
      <trkpt lat="45.10139" lon="4.54175">
        <ele>1022.775390625</ele>
        <time>2009-04-18T13:22:36Z</time>
      </trkpt>
      <trkpt lat="45.10166" lon="4.54164">
        <ele>1021.5335083008</ele>
        <time>2009-04-18T13:22:40Z</time>
      </trkpt>
      <trkpt lat="45.10202" lon="4.54165">
        <ele>1025.1307373047</ele>
        <time>2009-04-18T13:22:45Z</time>
      </trkpt>
      <trkpt lat="45.10217" lon="4.54173">
        <ele>1024.7845458984</ele>
        <time>2009-04-18T13:22:47Z</time>
      </trkpt>
      <trkpt lat="45.10238" lon="4.54195">
        <ele>1020.8218383789</ele>
        <time>2009-04-18T13:22:51Z</time>
      </trkpt>
      <trkpt lat="45.10348" lon="4.54259">
        <ele>1011.666809082</ele>
        <time>2009-04-18T13:23:08Z</time>
      </trkpt>
      <trkpt lat="45.10371" lon="4.54251">
        <ele>1011.1998291016</ele>
        <time>2009-04-18T13:23:12Z</time>
      </trkpt>
      <trkpt lat="45.10408" lon="4.54213">
        <ele>1013.8359375</ele>
        <time>2009-04-18T13:23:18Z</time>
      </trkpt>
      <trkpt lat="45.10434" lon="4.54194">
        <ele>1014.1926879883</ele>
        <time>2009-04-18T13:23:22Z</time>
      </trkpt>
      <trkpt lat="45.10467" lon="4.54188">
        <ele>1011.0043945312</ele>
        <time>2009-04-18T13:23:27Z</time>
      </trkpt>
      <trkpt lat="45.10616" lon="4.54208">
        <ele>1011.6497192383</ele>
        <time>2009-04-18T13:23:49Z</time>
      </trkpt>
      <trkpt lat="45.10683" lon="4.54238">
        <ele>1016.7525024414</ele>
        <time>2009-04-18T13:23:59Z</time>
      </trkpt>
      <trkpt lat="45.10809" lon="4.5433">
        <ele>1033.2075195312</ele>
        <time>2009-04-18T13:24:19Z</time>
      </trkpt>
      <trkpt lat="45.10851" lon="4.54353">
        <ele>1032.8780517578</ele>
        <time>2009-04-18T13:24:26Z</time>
      </trkpt>
      <trkpt lat="45.10874" lon="4.54352">
        <ele>1030.6596679688</ele>
        <time>2009-04-18T13:24:29Z</time>
      </trkpt>
      <trkpt lat="45.10899" lon="4.54337">
        <ele>1032.423828125</ele>
        <time>2009-04-18T13:24:33Z</time>
      </trkpt>
      <trkpt lat="45.10953" lon="4.54275">
        <ele>1042.2821044922</ele>
        <time>2009-04-18T13:24:43Z</time>
      </trkpt>
      <trkpt lat="45.10995" lon="4.54235">
        <ele>1047.9549560547</ele>
        <time>2009-04-18T13:24:51Z</time>
      </trkpt>
      <trkpt lat="45.11036" lon="4.5421">
        <ele>1052.6975097656</ele>
        <time>2009-04-18T13:24:57Z</time>
      </trkpt>
      <trkpt lat="45.11138" lon="4.54172">
        <ele>1068.3776855469</ele>
        <time>2009-04-18T13:25:12Z</time>
      </trkpt>
      <trkpt lat="45.11158" lon="4.54172">
        <ele>1070.9710693359</ele>
        <time>2009-04-18T13:25:15Z</time>
      </trkpt>
      <trkpt lat="45.11167" lon="4.5418">
        <ele>1070.9677734375</ele>
        <time>2009-04-18T13:25:17Z</time>
      </trkpt>
      <trkpt lat="45.11169" lon="4.54193">
        <ele>1069.6469726562</ele>
        <time>2009-04-18T13:25:18Z</time>
      </trkpt>
      <trkpt lat="45.11171" lon="4.54302">
        <ele>1059.6463623047</ele>
        <time>2009-04-18T13:25:29Z</time>
      </trkpt>
      <trkpt lat="45.11176" lon="4.54334">
        <ele>1060.5987548828</ele>
        <time>2009-04-18T13:25:33Z</time>
      </trkpt>
      <trkpt lat="45.11209" lon="4.54421">
        <ele>1061.7919921875</ele>
        <time>2009-04-18T13:25:43Z</time>
      </trkpt>
      <trkpt lat="45.11222" lon="4.54486">
        <ele>1050.2774658203</ele>
        <time>2009-04-18T13:25:50Z</time>
      </trkpt>
      <trkpt lat="45.11232" lon="4.54493">
        <ele>1050.5100097656</ele>
        <time>2009-04-18T13:25:51Z</time>
      </trkpt>
      <trkpt lat="45.11255" lon="4.54493">
        <ele>1052.6538085938</ele>
        <time>2009-04-18T13:25:54Z</time>
      </trkpt>
      <trkpt lat="45.11272" lon="4.54478">
        <ele>1052.9715576172</ele>
        <time>2009-04-18T13:25:57Z</time>
      </trkpt>
      <trkpt lat="45.11316" lon="4.54418">
        <ele>1067.3391113281</ele>
        <time>2009-04-18T13:26:06Z</time>
      </trkpt>
      <trkpt lat="45.11348" lon="4.54383">
        <ele>1078.3063964844</ele>
        <time>2009-04-18T13:26:12Z</time>
      </trkpt>
      <trkpt lat="45.11382" lon="4.54364">
        <ele>1082.3656005859</ele>
        <time>2009-04-18T13:26:17Z</time>
      </trkpt>
      <trkpt lat="45.11405" lon="4.54356">
        <ele>1083.4329833984</ele>
        <time>2009-04-18T13:26:21Z</time>
      </trkpt>
      <trkpt lat="45.11451" lon="4.54357">
        <ele>1082.025390625</ele>
        <time>2009-04-18T13:26:27Z</time>
      </trkpt>
      <trkpt lat="45.11479" lon="4.54373">
        <ele>1075.1726074219</ele>
        <time>2009-04-18T13:26:32Z</time>
      </trkpt>
      <trkpt lat="45.11524" lon="4.54384">
        <ele>1067.0743408203</ele>
        <time>2009-04-18T13:26:38Z</time>
      </trkpt>
      <trkpt lat="45.11542" lon="4.54378">
        <ele>1066.2720947266</ele>
        <time>2009-04-18T13:26:41Z</time>
      </trkpt>
      <trkpt lat="45.11555" lon="4.54367">
        <ele>1068.0238037109</ele>
        <time>2009-04-18T13:26:43Z</time>
      </trkpt>
      <trkpt lat="45.11603" lon="4.5431">
        <ele>1080.3316650391</ele>
        <time>2009-04-18T13:26:52Z</time>
      </trkpt>
      <trkpt lat="45.11623" lon="4.54297">
        <ele>1081.9611816406</ele>
        <time>2009-04-18T13:26:55Z</time>
      </trkpt>
      <trkpt lat="45.11682" lon="4.54286">
        <ele>1075.1888427734</ele>
        <time>2009-04-18T13:27:04Z</time>
      </trkpt>
      <trkpt lat="45.11703" lon="4.54277">
        <ele>1072.9566650391</ele>
        <time>2009-04-18T13:27:07Z</time>
      </trkpt>
      <trkpt lat="45.11718" lon="4.54262">
        <ele>1072.2130126953</ele>
        <time>2009-04-18T13:27:10Z</time>
      </trkpt>
      <trkpt lat="45.11723" lon="4.54237">
        <ele>1073.4506835938</ele>
        <time>2009-04-18T13:27:13Z</time>
      </trkpt>
      <trkpt lat="45.11726" lon="4.54164">
        <ele>1075.7307128906</ele>
        <time>2009-04-18T13:27:20Z</time>
      </trkpt>
      <trkpt lat="45.11722" lon="4.53971">
        <ele>1076.4050292969</ele>
        <time>2009-04-18T13:27:40Z</time>
      </trkpt>
      <trkpt lat="45.11685" lon="4.53851">
        <ele>1083.6369628906</ele>
        <time>2009-04-18T13:27:53Z</time>
      </trkpt>
      <trkpt lat="45.11682" lon="4.53829">
        <ele>1084.1788330078</ele>
        <time>2009-04-18T13:27:55Z</time>
      </trkpt>
      <trkpt lat="45.11688" lon="4.53747">
        <ele>1085.9992675781</ele>
        <time>2009-04-18T13:28:04Z</time>
      </trkpt>
      <trkpt lat="45.11694" lon="4.53719">
        <ele>1087.4614257812</ele>
        <time>2009-04-18T13:28:07Z</time>
      </trkpt>
      <trkpt lat="45.11711" lon="4.53679">
        <ele>1087.4720458984</ele>
        <time>2009-04-18T13:28:11Z</time>
      </trkpt>
      <trkpt lat="45.11732" lon="4.53652">
        <ele>1085.5678710938</ele>
        <time>2009-04-18T13:28:16Z</time>
      </trkpt>
      <trkpt lat="45.11777" lon="4.53628">
        <ele>1083.0520019531</ele>
        <time>2009-04-18T13:28:23Z</time>
      </trkpt>
      <trkpt lat="45.11857" lon="4.53612">
        <ele>1081.0317382812</ele>
        <time>2009-04-18T13:28:34Z</time>
      </trkpt>
      <trkpt lat="45.11918" lon="4.53587">
        <ele>1083.6040039062</ele>
        <time>2009-04-18T13:28:43Z</time>
      </trkpt>
      <trkpt lat="45.11925" lon="4.53614">
        <ele>1080.6995849609</ele>
        <time>2009-04-18T13:28:46Z</time>
      </trkpt>
      <trkpt lat="45.11933" lon="4.53623">
        <ele>1080.0200195312</ele>
        <time>2009-04-18T13:28:48Z</time>
      </trkpt>
      <trkpt lat="45.1199" lon="4.53652">
        <ele>1079.8487548828</ele>
        <time>2009-04-18T13:28:57Z</time>
      </trkpt>
      <trkpt lat="45.12016" lon="4.53681">
        <ele>1078.4897460938</ele>
        <time>2009-04-18T13:29:01Z</time>
      </trkpt>
      <trkpt lat="45.12081" lon="4.53797">
        <ele>1065.4224853516</ele>
        <time>2009-04-18T13:29:16Z</time>
      </trkpt>
      <trkpt lat="45.12109" lon="4.53836">
        <ele>1060.6104736328</ele>
        <time>2009-04-18T13:29:22Z</time>
      </trkpt>
      <trkpt lat="45.12175" lon="4.53857">
        <ele>1066.5640869141</ele>
        <time>2009-04-18T13:29:32Z</time>
      </trkpt>
      <trkpt lat="45.12185" lon="4.53866">
        <ele>1064.5441894531</ele>
        <time>2009-04-18T13:29:34Z</time>
      </trkpt>
      <trkpt lat="45.12193" lon="4.53877">
        <ele>1061.8430175781</ele>
        <time>2009-04-18T13:29:35Z</time>
      </trkpt>
      <trkpt lat="45.12216" lon="4.53933">
        <ele>1048.2113037109</ele>
        <time>2009-04-18T13:29:42Z</time>
      </trkpt>
      <trkpt lat="45.12236" lon="4.53959">
        <ele>1044.7286376953</ele>
        <time>2009-04-18T13:29:46Z</time>
      </trkpt>
      <trkpt lat="45.12246" lon="4.53963">
        <ele>1045.5570068359</ele>
        <time>2009-04-18T13:29:47Z</time>
      </trkpt>
      <trkpt lat="45.12278" lon="4.53962">
        <ele>1041.8175048828</ele>
        <time>2009-04-18T13:29:52Z</time>
      </trkpt>
      <trkpt lat="45.12342" lon="4.53923">
        <ele>1045.4432373047</ele>
        <time>2009-04-18T13:30:02Z</time>
      </trkpt>
      <trkpt lat="45.12358" lon="4.53917">
        <ele>1049.7655029297</ele>
        <time>2009-04-18T13:30:04Z</time>
      </trkpt>
      <trkpt lat="45.12377" lon="4.53922">
        <ele>1051.1416015625</ele>
        <time>2009-04-18T13:30:07Z</time>
      </trkpt>
      <trkpt lat="45.12391" lon="4.53934">
        <ele>1049.3486328125</ele>
        <time>2009-04-18T13:30:10Z</time>
      </trkpt>
      <trkpt lat="45.12408" lon="4.53974">
        <ele>1038.6044921875</ele>
        <time>2009-04-18T13:30:14Z</time>
      </trkpt>
      <trkpt lat="45.1243" lon="4.54005">
        <ele>1033.5366210938</ele>
        <time>2009-04-18T13:30:19Z</time>
      </trkpt>
      <trkpt lat="45.12468" lon="4.54032">
        <ele>1039.1522216797</ele>
        <time>2009-04-18T13:30:25Z</time>
      </trkpt>
      <trkpt lat="45.12483" lon="4.54053">
        <ele>1039.9958496094</ele>
        <time>2009-04-18T13:30:28Z</time>
      </trkpt>
      <trkpt lat="45.12496" lon="4.54133">
        <ele>1032.1932373047</ele>
        <time>2009-04-18T13:30:36Z</time>
      </trkpt>
      <trkpt lat="45.12511" lon="4.54164">
        <ele>1034.8082275391</ele>
        <time>2009-04-18T13:30:40Z</time>
      </trkpt>
      <trkpt lat="45.12513" lon="4.54189">
        <ele>1035.0118408203</ele>
        <time>2009-04-18T13:30:43Z</time>
      </trkpt>
      <trkpt lat="45.12512" lon="4.54199">
        <ele>1034.2626953125</ele>
        <time>2009-04-18T13:30:44Z</time>
      </trkpt>
      <trkpt lat="45.12493" lon="4.54243">
        <ele>1023.8176269531</ele>
        <time>2009-04-18T13:30:49Z</time>
      </trkpt>
      <trkpt lat="45.1249" lon="4.54321">
        <ele>1021.0653686523</ele>
        <time>2009-04-18T13:30:57Z</time>
      </trkpt>
      <trkpt lat="45.12499" lon="4.54422">
        <ele>1012.1317138672</ele>
        <time>2009-04-18T13:31:07Z</time>
      </trkpt>
      <trkpt lat="45.12509" lon="4.54454">
        <ele>1007.0565795898</ele>
        <time>2009-04-18T13:31:11Z</time>
      </trkpt>
      <trkpt lat="45.12531" lon="4.54484">
        <ele>1004.2797851562</ele>
        <time>2009-04-18T13:31:15Z</time>
      </trkpt>
      <trkpt lat="45.12595" lon="4.54503">
        <ele>1013.7042236328</ele>
        <time>2009-04-18T13:31:25Z</time>
      </trkpt>
      <trkpt lat="45.12621" lon="4.54516">
        <ele>1018.9727783203</ele>
        <time>2009-04-18T13:31:29Z</time>
      </trkpt>
      <trkpt lat="45.12633" lon="4.54534">
        <ele>1019.8040771484</ele>
        <time>2009-04-18T13:31:31Z</time>
      </trkpt>
      <trkpt lat="45.12638" lon="4.54555">
        <ele>1018.0951538086</ele>
        <time>2009-04-18T13:31:34Z</time>
      </trkpt>
      <trkpt lat="45.12598" lon="4.54789">
        <ele>992.91589355469</ele>
        <time>2009-04-18T13:31:58Z</time>
      </trkpt>
      <trkpt lat="45.126" lon="4.54818">
        <ele>991.84027099609</ele>
        <time>2009-04-18T13:32:01Z</time>
      </trkpt>
      <trkpt lat="45.12608" lon="4.54854">
        <ele>990.78436279297</ele>
        <time>2009-04-18T13:32:05Z</time>
      </trkpt>
      <trkpt lat="45.12623" lon="4.54894">
        <ele>989.60290527344</ele>
        <time>2009-04-18T13:32:10Z</time>
      </trkpt>
      <trkpt lat="45.12637" lon="4.54917">
        <ele>990.49255371094</ele>
        <time>2009-04-18T13:32:13Z</time>
      </trkpt>
      <trkpt lat="45.12661" lon="4.54944">
        <ele>992.23022460938</ele>
        <time>2009-04-18T13:32:17Z</time>
      </trkpt>
      <trkpt lat="45.12689" lon="4.55001">
        <ele>989.20385742188</ele>
        <time>2009-04-18T13:32:24Z</time>
      </trkpt>
      <trkpt lat="45.12695" lon="4.55031">
        <ele>987.27642822266</ele>
        <time>2009-04-18T13:32:27Z</time>
      </trkpt>
      <trkpt lat="45.12702" lon="4.5512">
        <ele>976.78686523438</ele>
        <time>2009-04-18T13:32:36Z</time>
      </trkpt>
      <trkpt lat="45.12719" lon="4.55192">
        <ele>971.48370361328</ele>
        <time>2009-04-18T13:32:44Z</time>
      </trkpt>
      <trkpt lat="45.12834" lon="4.5538">
        <ele>964.08557128906</ele>
        <time>2009-04-18T13:33:10Z</time>
      </trkpt>
      <trkpt lat="45.1288" lon="4.55445">
        <ele>953.50396728516</ele>
        <time>2009-04-18T13:33:19Z</time>
      </trkpt>
      <trkpt lat="45.12909" lon="4.55468">
        <ele>950.89459228516</ele>
        <time>2009-04-18T13:33:24Z</time>
      </trkpt>
      <trkpt lat="45.12939" lon="4.55479">
        <ele>947.11901855469</ele>
        <time>2009-04-18T13:33:28Z</time>
      </trkpt>
      <trkpt lat="45.12986" lon="4.55485">
        <ele>943.19445800781</ele>
        <time>2009-04-18T13:33:35Z</time>
      </trkpt>
      <trkpt lat="45.13035" lon="4.55476">
        <ele>939.92950439453</ele>
        <time>2009-04-18T13:33:42Z</time>
      </trkpt>
      <trkpt lat="45.13056" lon="4.55464">
        <ele>939.49041748047</ele>
        <time>2009-04-18T13:33:46Z</time>
      </trkpt>
      <trkpt lat="45.13149" lon="4.55354">
        <ele>940.15411376953</ele>
        <time>2009-04-18T13:34:03Z</time>
      </trkpt>
      <trkpt lat="45.13172" lon="4.5535">
        <ele>937.38592529297</ele>
        <time>2009-04-18T13:34:06Z</time>
      </trkpt>
      <trkpt lat="45.13187" lon="4.55359">
        <ele>937.56787109375</ele>
        <time>2009-04-18T13:34:09Z</time>
      </trkpt>
      <trkpt lat="45.13276" lon="4.55467">
        <ele>917.48889160156</ele>
        <time>2009-04-18T13:34:26Z</time>
      </trkpt>
      <trkpt lat="45.13295" lon="4.55484">
        <ele>913.47766113281</ele>
        <time>2009-04-18T13:34:29Z</time>
      </trkpt>
      <trkpt lat="45.13338" lon="4.55494">
        <ele>913.73968505859</ele>
        <time>2009-04-18T13:34:35Z</time>
      </trkpt>
      <trkpt lat="45.13401" lon="4.55494">
        <ele>919.61962890625</ele>
        <time>2009-04-18T13:34:44Z</time>
      </trkpt>
      <trkpt lat="45.13421" lon="4.55511">
        <ele>917.84393310547</ele>
        <time>2009-04-18T13:34:48Z</time>
      </trkpt>
      <trkpt lat="45.1344" lon="4.55554">
        <ele>915.38708496094</ele>
        <time>2009-04-18T13:34:53Z</time>
      </trkpt>
      <trkpt lat="45.13442" lon="4.55594">
        <ele>911.85034179688</ele>
        <time>2009-04-18T13:34:57Z</time>
      </trkpt>
      <trkpt lat="45.13432" lon="4.55625">
        <ele>911.22863769531</ele>
        <time>2009-04-18T13:35:00Z</time>
      </trkpt>
      <trkpt lat="45.13404" lon="4.55667">
        <ele>903.77478027344</ele>
        <time>2009-04-18T13:35:06Z</time>
      </trkpt>
      <trkpt lat="45.13365" lon="4.55742">
        <ele>900.58349609375</ele>
        <time>2009-04-18T13:35:16Z</time>
      </trkpt>
      <trkpt lat="45.13327" lon="4.55841">
        <ele>900.86340332031</ele>
        <time>2009-04-18T13:35:27Z</time>
      </trkpt>
      <trkpt lat="45.13304" lon="4.5589">
        <ele>896.716796875</ele>
        <time>2009-04-18T13:35:33Z</time>
      </trkpt>
      <trkpt lat="45.13288" lon="4.55919">
        <ele>893.80926513672</ele>
        <time>2009-04-18T13:35:37Z</time>
      </trkpt>
      <trkpt lat="45.13217" lon="4.56022">
        <ele>884.23114013672</ele>
        <time>2009-04-18T13:35:52Z</time>
      </trkpt>
      <trkpt lat="45.1318" lon="4.56114">
        <ele>881.89788818359</ele>
        <time>2009-04-18T13:36:03Z</time>
      </trkpt>
      <trkpt lat="45.13147" lon="4.56162">
        <ele>875.38641357422</ele>
        <time>2009-04-18T13:36:09Z</time>
      </trkpt>
      <trkpt lat="45.13139" lon="4.56188">
        <ele>872.50115966797</ele>
        <time>2009-04-18T13:36:12Z</time>
      </trkpt>
      <trkpt lat="45.13137" lon="4.56235">
        <ele>870.11871337891</ele>
        <time>2009-04-18T13:36:17Z</time>
      </trkpt>
      <trkpt lat="45.1314" lon="4.56252">
        <ele>869.90032958984</ele>
        <time>2009-04-18T13:36:19Z</time>
      </trkpt>
      <trkpt lat="45.13202" lon="4.56374">
        <ele>861.88531494141</ele>
        <time>2009-04-18T13:36:34Z</time>
      </trkpt>
      <trkpt lat="45.13229" lon="4.56456">
        <ele>854.42437744141</ele>
        <time>2009-04-18T13:36:43Z</time>
      </trkpt>
      <trkpt lat="45.13236" lon="4.56492">
        <ele>851.27923583984</ele>
        <time>2009-04-18T13:36:47Z</time>
      </trkpt>
      <trkpt lat="45.13238" lon="4.56537">
        <ele>852.4609375</ele>
        <time>2009-04-18T13:36:52Z</time>
      </trkpt>
      <trkpt lat="45.13234" lon="4.56576">
        <ele>852.53533935547</ele>
        <time>2009-04-18T13:36:56Z</time>
      </trkpt>
      <trkpt lat="45.13189" lon="4.56716">
        <ele>845.16345214844</ele>
        <time>2009-04-18T13:37:12Z</time>
      </trkpt>
      <trkpt lat="45.13182" lon="4.56785">
        <ele>842.05316162109</ele>
        <time>2009-04-18T13:37:19Z</time>
      </trkpt>
      <trkpt lat="45.13195" lon="4.56856">
        <ele>839.87371826172</ele>
        <time>2009-04-18T13:37:26Z</time>
      </trkpt>
      <trkpt lat="45.13256" lon="4.57076">
        <ele>823.84313964844</ele>
        <time>2009-04-18T13:37:50Z</time>
      </trkpt>
      <trkpt lat="45.13273" lon="4.57086">
        <ele>821.49444580078</ele>
        <time>2009-04-18T13:37:53Z</time>
      </trkpt>
      <trkpt lat="45.13298" lon="4.57085">
        <ele>820.48785400391</ele>
        <time>2009-04-18T13:37:57Z</time>
      </trkpt>
      <trkpt lat="45.13317" lon="4.57077">
        <ele>820.64733886719</ele>
        <time>2009-04-18T13:37:59Z</time>
      </trkpt>
      <trkpt lat="45.13334" lon="4.57061">
        <ele>821.75939941406</ele>
        <time>2009-04-18T13:38:02Z</time>
      </trkpt>
      <trkpt lat="45.13366" lon="4.57007">
        <ele>818.12420654297</ele>
        <time>2009-04-18T13:38:10Z</time>
      </trkpt>
      <trkpt lat="45.13461" lon="4.56824">
        <ele>810.59466552734</ele>
        <time>2009-04-18T13:38:33Z</time>
      </trkpt>
      <trkpt lat="45.13494" lon="4.56788">
        <ele>805.62921142578</ele>
        <time>2009-04-18T13:38:39Z</time>
      </trkpt>
      <trkpt lat="45.13536" lon="4.5676">
        <ele>801.44830322266</ele>
        <time>2009-04-18T13:38:45Z</time>
      </trkpt>
      <trkpt lat="45.13558" lon="4.5673">
        <ele>800.56091308594</ele>
        <time>2009-04-18T13:38:50Z</time>
      </trkpt>
      <trkpt lat="45.13573" lon="4.56693">
        <ele>800.42663574219</ele>
        <time>2009-04-18T13:38:54Z</time>
      </trkpt>
      <trkpt lat="45.13582" lon="4.56625">
        <ele>798.41809082031</ele>
        <time>2009-04-18T13:39:01Z</time>
      </trkpt>
      <trkpt lat="45.13577" lon="4.56569">
        <ele>797.93481445312</ele>
        <time>2009-04-18T13:39:07Z</time>
      </trkpt>
      <trkpt lat="45.1356" lon="4.56501">
        <ele>801.75018310547</ele>
        <time>2009-04-18T13:39:14Z</time>
      </trkpt>
      <trkpt lat="45.1356" lon="4.56473">
        <ele>804.525390625</ele>
        <time>2009-04-18T13:39:17Z</time>
      </trkpt>
      <trkpt lat="45.13569" lon="4.56462">
        <ele>804.11315917969</ele>
        <time>2009-04-18T13:39:19Z</time>
      </trkpt>
      <trkpt lat="45.13596" lon="4.56462">
        <ele>800.72198486328</ele>
        <time>2009-04-18T13:39:23Z</time>
      </trkpt>
      <trkpt lat="45.13634" lon="4.56477">
        <ele>795.07098388672</ele>
        <time>2009-04-18T13:39:29Z</time>
      </trkpt>
      <trkpt lat="45.13705" lon="4.56495">
        <ele>791.90014648438</ele>
        <time>2009-04-18T13:39:39Z</time>
      </trkpt>
      <trkpt lat="45.1373" lon="4.56513">
        <ele>791.15289306641</ele>
        <time>2009-04-18T13:39:43Z</time>
      </trkpt>
      <trkpt lat="45.13808" lon="4.56641">
        <ele>785.34466552734</ele>
        <time>2009-04-18T13:40:00Z</time>
      </trkpt>
      <trkpt lat="45.13831" lon="4.56704">
        <ele>780.12982177734</ele>
        <time>2009-04-18T13:40:08Z</time>
      </trkpt>
      <trkpt lat="45.13882" lon="4.56917">
        <ele>758.30407714844</ele>
        <time>2009-04-18T13:40:30Z</time>
      </trkpt>
      <trkpt lat="45.13888" lon="4.56927">
        <ele>757.83898925781</ele>
        <time>2009-04-18T13:40:32Z</time>
      </trkpt>
      <trkpt lat="45.13912" lon="4.56942">
        <ele>759.33172607422</ele>
        <time>2009-04-18T13:40:36Z</time>
      </trkpt>
      <trkpt lat="45.14018" lon="4.56977">
        <ele>752.95642089844</ele>
        <time>2009-04-18T13:40:51Z</time>
      </trkpt>
      <trkpt lat="45.1406" lon="4.57004">
        <ele>747.46594238281</ele>
        <time>2009-04-18T13:40:58Z</time>
      </trkpt>
      <trkpt lat="45.14095" lon="4.57037">
        <ele>739.34973144531</ele>
        <time>2009-04-18T13:41:04Z</time>
      </trkpt>
      <trkpt lat="45.14143" lon="4.57037">
        <ele>737.55505371094</ele>
        <time>2009-04-18T13:41:11Z</time>
      </trkpt>
      <trkpt lat="45.14173" lon="4.57007">
        <ele>743.05987548828</ele>
        <time>2009-04-18T13:41:16Z</time>
      </trkpt>
      <trkpt lat="45.14225" lon="4.5692">
        <ele>741.77764892578</ele>
        <time>2009-04-18T13:41:28Z</time>
      </trkpt>
      <trkpt lat="45.14247" lon="4.56888">
        <ele>739.07995605469</ele>
        <time>2009-04-18T13:41:33Z</time>
      </trkpt>
      <trkpt lat="45.14266" lon="4.56869">
        <ele>740.21362304688</ele>
        <time>2009-04-18T13:41:36Z</time>
      </trkpt>
      <trkpt lat="45.1429" lon="4.56855">
        <ele>740.19134521484</ele>
        <time>2009-04-18T13:41:40Z</time>
      </trkpt>
      <trkpt lat="45.14315" lon="4.56852">
        <ele>738.56079101562</ele>
        <time>2009-04-18T13:41:43Z</time>
      </trkpt>
      <trkpt lat="45.1433" lon="4.5687">
        <ele>737.57464599609</ele>
        <time>2009-04-18T13:41:46Z</time>
      </trkpt>
      <trkpt lat="45.14333" lon="4.56892">
        <ele>737.70349121094</ele>
        <time>2009-04-18T13:41:48Z</time>
      </trkpt>
      <trkpt lat="45.14328" lon="4.56919">
        <ele>738.02380371094</ele>
        <time>2009-04-18T13:41:51Z</time>
      </trkpt>
      <trkpt lat="45.14288" lon="4.56982">
        <ele>737.61364746094</ele>
        <time>2009-04-18T13:42:00Z</time>
      </trkpt>
      <trkpt lat="45.14279" lon="4.57003">
        <ele>736.103515625</ele>
        <time>2009-04-18T13:42:02Z</time>
      </trkpt>
      <trkpt lat="45.14249" lon="4.57121">
        <ele>731.57659912109</ele>
        <time>2009-04-18T13:42:15Z</time>
      </trkpt>
      <trkpt lat="45.14231" lon="4.57148">
        <ele>729.75830078125</ele>
        <time>2009-04-18T13:42:19Z</time>
      </trkpt>
      <trkpt lat="45.14207" lon="4.57176">
        <ele>726.36309814453</ele>
        <time>2009-04-18T13:42:23Z</time>
      </trkpt>
      <trkpt lat="45.14124" lon="4.57247">
        <ele>719.857421875</ele>
        <time>2009-04-18T13:42:37Z</time>
      </trkpt>
      <trkpt lat="45.14053" lon="4.5727">
        <ele>709.83428955078</ele>
        <time>2009-04-18T13:42:48Z</time>
      </trkpt>
      <trkpt lat="45.14003" lon="4.57297">
        <ele>705.28643798828</ele>
        <time>2009-04-18T13:42:56Z</time>
      </trkpt>
      <trkpt lat="45.13955" lon="4.57351">
        <ele>701.21057128906</ele>
        <time>2009-04-18T13:43:05Z</time>
      </trkpt>
      <trkpt lat="45.13936" lon="4.5738">
        <ele>698.83209228516</ele>
        <time>2009-04-18T13:43:09Z</time>
      </trkpt>
      <trkpt lat="45.13915" lon="4.57423">
        <ele>694.92553710938</ele>
        <time>2009-04-18T13:43:14Z</time>
      </trkpt>
      <trkpt lat="45.13901" lon="4.57484">
        <ele>694.02111816406</ele>
        <time>2009-04-18T13:43:21Z</time>
      </trkpt>
      <trkpt lat="45.13894" lon="4.57873">
        <ele>662.69311523438</ele>
        <time>2009-04-18T13:44:00Z</time>
      </trkpt>
      <trkpt lat="45.139" lon="4.57893">
        <ele>660.69262695312</ele>
        <time>2009-04-18T13:44:02Z</time>
      </trkpt>
      <trkpt lat="45.13911" lon="4.57909">
        <ele>659.64282226562</ele>
        <time>2009-04-18T13:44:05Z</time>
      </trkpt>
      <trkpt lat="45.13969" lon="4.57929">
        <ele>667.39605712891</ele>
        <time>2009-04-18T13:44:13Z</time>
      </trkpt>
      <trkpt lat="45.13977" lon="4.57947">
        <ele>667.61004638672</ele>
        <time>2009-04-18T13:44:15Z</time>
      </trkpt>
      <trkpt lat="45.13977" lon="4.57972">
        <ele>665.75012207031</ele>
        <time>2009-04-18T13:44:18Z</time>
      </trkpt>
      <trkpt lat="45.13968" lon="4.58015">
        <ele>660.97229003906</ele>
        <time>2009-04-18T13:44:23Z</time>
      </trkpt>
      <trkpt lat="45.13966" lon="4.58085">
        <ele>659.50787353516</ele>
        <time>2009-04-18T13:44:30Z</time>
      </trkpt>
      <trkpt lat="45.13969" lon="4.58218">
        <ele>649.15667724609</ele>
        <time>2009-04-18T13:44:43Z</time>
      </trkpt>
      <trkpt lat="45.13975" lon="4.58261">
        <ele>643.07135009766</ele>
        <time>2009-04-18T13:44:48Z</time>
      </trkpt>
      <trkpt lat="45.13989" lon="4.58284">
        <ele>640.60314941406</ele>
        <time>2009-04-18T13:44:51Z</time>
      </trkpt>
      <trkpt lat="45.14001" lon="4.58295">
        <ele>639.76831054688</ele>
        <time>2009-04-18T13:44:53Z</time>
      </trkpt>
      <trkpt lat="45.14035" lon="4.5831">
        <ele>637.09741210938</ele>
        <time>2009-04-18T13:44:58Z</time>
      </trkpt>
      <trkpt lat="45.14053" lon="4.58311">
        <ele>637.2421875</ele>
        <time>2009-04-18T13:45:01Z</time>
      </trkpt>
      <trkpt lat="45.14077" lon="4.58302">
        <ele>640.10467529297</ele>
        <time>2009-04-18T13:45:04Z</time>
      </trkpt>
      <trkpt lat="45.14141" lon="4.58258">
        <ele>648.16693115234</ele>
        <time>2009-04-18T13:45:15Z</time>
      </trkpt>
      <trkpt lat="45.14156" lon="4.58259">
        <ele>647.12255859375</ele>
        <time>2009-04-18T13:45:17Z</time>
      </trkpt>
      <trkpt lat="45.1417" lon="4.58275">
        <ele>646.42913818359</ele>
        <time>2009-04-18T13:45:19Z</time>
      </trkpt>
      <trkpt lat="45.14167" lon="4.58342">
        <ele>643.16107177734</ele>
        <time>2009-04-18T13:45:26Z</time>
      </trkpt>
      <trkpt lat="45.14126" lon="4.58414">
        <ele>638.71325683594</ele>
        <time>2009-04-18T13:45:36Z</time>
      </trkpt>
      <trkpt lat="45.1412" lon="4.58454">
        <ele>636.20190429688</ele>
        <time>2009-04-18T13:45:40Z</time>
      </trkpt>
      <trkpt lat="45.14132" lon="4.58763">
        <ele>618.33294677734</ele>
        <time>2009-04-18T13:46:11Z</time>
      </trkpt>
      <trkpt lat="45.14142" lon="4.58848">
        <ele>607.70355224609</ele>
        <time>2009-04-18T13:46:20Z</time>
      </trkpt>
      <trkpt lat="45.14155" lon="4.58862">
        <ele>609.49334716797</ele>
        <time>2009-04-18T13:46:22Z</time>
      </trkpt>
      <trkpt lat="45.14192" lon="4.58887">
        <ele>617.93725585938</ele>
        <time>2009-04-18T13:46:28Z</time>
      </trkpt>
      <trkpt lat="45.14197" lon="4.58918">
        <ele>613.95867919922</ele>
        <time>2009-04-18T13:46:32Z</time>
      </trkpt>
      <trkpt lat="45.14196" lon="4.59017">
        <ele>603.93969726562</ele>
        <time>2009-04-18T13:46:42Z</time>
      </trkpt>
      <trkpt lat="45.142" lon="4.59045">
        <ele>601.56109619141</ele>
        <time>2009-04-18T13:46:45Z</time>
      </trkpt>
      <trkpt lat="45.14245" lon="4.59202">
        <ele>594.31170654297</ele>
        <time>2009-04-18T13:47:02Z</time>
      </trkpt>
      <trkpt lat="45.14256" lon="4.59233">
        <ele>591.58087158203</ele>
        <time>2009-04-18T13:47:05Z</time>
      </trkpt>
      <trkpt lat="45.14275" lon="4.59266">
        <ele>587.26208496094</ele>
        <time>2009-04-18T13:47:10Z</time>
      </trkpt>
      <trkpt lat="45.14298" lon="4.59288">
        <ele>584.63696289062</ele>
        <time>2009-04-18T13:47:14Z</time>
      </trkpt>
      <trkpt lat="45.14319" lon="4.59295">
        <ele>584.92022705078</ele>
        <time>2009-04-18T13:47:17Z</time>
      </trkpt>
      <trkpt lat="45.14341" lon="4.59293">
        <ele>587.30438232422</ele>
        <time>2009-04-18T13:47:20Z</time>
      </trkpt>
      <trkpt lat="45.14391" lon="4.59267">
        <ele>593.93524169922</ele>
        <time>2009-04-18T13:47:28Z</time>
      </trkpt>
      <trkpt lat="45.14401" lon="4.59266">
        <ele>594.18469238281</ele>
        <time>2009-04-18T13:47:29Z</time>
      </trkpt>
      <trkpt lat="45.14406" lon="4.59269">
        <ele>594.07196044922</ele>
        <time>2009-04-18T13:47:30Z</time>
      </trkpt>
      <trkpt lat="45.14408" lon="4.59277">
        <ele>593.66729736328</ele>
        <time>2009-04-18T13:47:31Z</time>
      </trkpt>
      <trkpt lat="45.14408" lon="4.59307">
        <ele>591.95941162109</ele>
        <time>2009-04-18T13:47:34Z</time>
      </trkpt>
      <trkpt lat="45.14401" lon="4.59334">
        <ele>589.17315673828</ele>
        <time>2009-04-18T13:47:37Z</time>
      </trkpt>
      <trkpt lat="45.14376" lon="4.59385">
        <ele>585.34423828125</ele>
        <time>2009-04-18T13:47:43Z</time>
      </trkpt>
      <trkpt lat="45.14262" lon="4.59474">
        <ele>568.51110839844</ele>
        <time>2009-04-18T13:48:02Z</time>
      </trkpt>
      <trkpt lat="45.14225" lon="4.5951">
        <ele>564.24438476562</ele>
        <time>2009-04-18T13:48:09Z</time>
      </trkpt>
      <trkpt lat="45.14192" lon="4.59548">
        <ele>561.61059570312</ele>
        <time>2009-04-18T13:48:15Z</time>
      </trkpt>
      <trkpt lat="45.14169" lon="4.59585">
        <ele>560.40667724609</ele>
        <time>2009-04-18T13:48:20Z</time>
      </trkpt>
      <trkpt lat="45.14158" lon="4.59613">
        <ele>556.17987060547</ele>
        <time>2009-04-18T13:48:23Z</time>
      </trkpt>
      <trkpt lat="45.14159" lon="4.59636">
        <ele>555.63256835938</ele>
        <time>2009-04-18T13:48:25Z</time>
      </trkpt>
      <trkpt lat="45.14249" lon="4.59934">
        <ele>541.41790771484</ele>
        <time>2009-04-18T13:48:58Z</time>
      </trkpt>
      <trkpt lat="45.14281" lon="4.60018">
        <ele>540.75640869141</ele>
        <time>2009-04-18T13:49:08Z</time>
      </trkpt>
      <trkpt lat="45.14315" lon="4.60149">
        <ele>528.07684326172</ele>
        <time>2009-04-18T13:49:22Z</time>
      </trkpt>
      <trkpt lat="45.14335" lon="4.60197">
        <ele>523.263671875</ele>
        <time>2009-04-18T13:49:28Z</time>
      </trkpt>
      <trkpt lat="45.14417" lon="4.60311">
        <ele>520.09210205078</ele>
        <time>2009-04-18T13:49:45Z</time>
      </trkpt>
      <trkpt lat="45.14433" lon="4.60363">
        <ele>516.90405273438</ele>
        <time>2009-04-18T13:49:50Z</time>
      </trkpt>
      <trkpt lat="45.14502" lon="4.60505">
        <ele>509.25387573242</ele>
        <time>2009-04-18T13:50:08Z</time>
      </trkpt>
      <trkpt lat="45.1472" lon="4.60833">
        <ele>504.68960571289</ele>
        <time>2009-04-18T13:50:54Z</time>
      </trkpt>
      <trkpt lat="45.14791" lon="4.60963">
        <ele>502.99713134766</ele>
        <time>2009-04-18T13:51:11Z</time>
      </trkpt>
      <trkpt lat="45.14813" lon="4.61013">
        <ele>500.18969726562</ele>
        <time>2009-04-18T13:51:17Z</time>
      </trkpt>
      <trkpt lat="45.14866" lon="4.61093">
        <ele>499.40573120117</ele>
        <time>2009-04-18T13:51:28Z</time>
      </trkpt>
      <trkpt lat="45.14893" lon="4.61173">
        <ele>492.08740234375</ele>
        <time>2009-04-18T13:51:37Z</time>
      </trkpt>
      <trkpt lat="45.14919" lon="4.61233">
        <ele>487.11477661133</ele>
        <time>2009-04-18T13:51:44Z</time>
      </trkpt>
      <trkpt lat="45.1494" lon="4.61273">
        <ele>487.05078125</ele>
        <time>2009-04-18T13:51:49Z</time>
      </trkpt>
      <trkpt lat="45.15013" lon="4.61387">
        <ele>485.5104675293</ele>
        <time>2009-04-18T13:52:05Z</time>
      </trkpt>
      <trkpt lat="45.1506" lon="4.61498">
        <ele>480.15670776367</ele>
        <time>2009-04-18T13:52:18Z</time>
      </trkpt>
      <trkpt lat="45.15079" lon="4.61523">
        <ele>478.9375</ele>
        <time>2009-04-18T13:52:22Z</time>
      </trkpt>
      <trkpt lat="45.15089" lon="4.61545">
        <ele>478.12506103516</ele>
        <time>2009-04-18T13:52:25Z</time>
      </trkpt>
      <trkpt lat="45.15117" lon="4.61618">
        <ele>478.08599853516</ele>
        <time>2009-04-18T13:52:33Z</time>
      </trkpt>
      <trkpt lat="45.15146" lon="4.6174">
        <ele>477.45321655273</ele>
        <time>2009-04-18T13:52:46Z</time>
      </trkpt>
      <trkpt lat="45.15177" lon="4.61815">
        <ele>476.77725219727</ele>
        <time>2009-04-18T13:52:55Z</time>
      </trkpt>
      <trkpt lat="45.1525" lon="4.6193">
        <ele>477.7253112793</ele>
        <time>2009-04-18T13:53:11Z</time>
      </trkpt>
      <trkpt lat="45.15321" lon="4.62061">
        <ele>474.48956298828</ele>
        <time>2009-04-18T13:53:28Z</time>
      </trkpt>
      <trkpt lat="45.15524" lon="4.62394">
        <ele>469.35787963867</ele>
        <time>2009-04-18T13:54:13Z</time>
      </trkpt>
      <trkpt lat="45.15572" lon="4.62476">
        <ele>467.02145385742</ele>
        <time>2009-04-18T13:54:23Z</time>
      </trkpt>
      <trkpt lat="45.15592" lon="4.62555">
        <ele>464.66903686523</ele>
        <time>2009-04-18T13:54:32Z</time>
      </trkpt>
      <trkpt lat="45.15626" lon="4.62627">
        <ele>466.51312255859</ele>
        <time>2009-04-18T13:54:41Z</time>
      </trkpt>
      <trkpt lat="45.15759" lon="4.62877">
        <ele>459.83004760742</ele>
        <time>2009-04-18T13:55:13Z</time>
      </trkpt>
      <trkpt lat="45.15759" lon="4.62915">
        <ele>460.12213134766</ele>
        <time>2009-04-18T13:55:17Z</time>
      </trkpt>
      <trkpt lat="45.15737" lon="4.62983">
        <ele>458.78936767578</ele>
        <time>2009-04-18T13:55:24Z</time>
      </trkpt>
      <trkpt lat="45.15735" lon="4.63021">
        <ele>458.51910400391</ele>
        <time>2009-04-18T13:55:28Z</time>
      </trkpt>
      <trkpt lat="45.15738" lon="4.63043">
        <ele>458.02557373047</ele>
        <time>2009-04-18T13:55:30Z</time>
      </trkpt>
      <trkpt lat="45.15758" lon="4.63097">
        <ele>457.31747436523</ele>
        <time>2009-04-18T13:55:37Z</time>
      </trkpt>
      <trkpt lat="45.15773" lon="4.63117">
        <ele>457.92276000977</ele>
        <time>2009-04-18T13:55:40Z</time>
      </trkpt>
      <trkpt lat="45.15809" lon="4.63149">
        <ele>459.44366455078</ele>
        <time>2009-04-18T13:55:46Z</time>
      </trkpt>
      <trkpt lat="45.15823" lon="4.63155">
        <ele>460.47601318359</ele>
        <time>2009-04-18T13:55:48Z</time>
      </trkpt>
      <trkpt lat="45.15833" lon="4.63171">
        <ele>459.32608032227</ele>
        <time>2009-04-18T13:55:50Z</time>
      </trkpt>
      <trkpt lat="45.15893" lon="4.63219">
        <ele>459.45727539062</ele>
        <time>2009-04-18T13:56:00Z</time>
      </trkpt>
      <trkpt lat="45.15945" lon="4.63315">
        <ele>455.81762695312</ele>
        <time>2009-04-18T13:56:12Z</time>
      </trkpt>
      <trkpt lat="45.15989" lon="4.63355">
        <ele>457.97494506836</ele>
        <time>2009-04-18T13:56:20Z</time>
      </trkpt>
      <trkpt lat="45.1615" lon="4.63561">
        <ele>455.19161987305</ele>
        <time>2009-04-18T13:56:51Z</time>
      </trkpt>
      <trkpt lat="45.16196" lon="4.63621">
        <ele>455.88760375977</ele>
        <time>2009-04-18T13:57:00Z</time>
      </trkpt>
      <trkpt lat="45.16212" lon="4.63661">
        <ele>455.12426757812</ele>
        <time>2009-04-18T13:57:05Z</time>
      </trkpt>
      <trkpt lat="45.16238" lon="4.63739">
        <ele>454.04153442383</ele>
        <time>2009-04-18T13:57:14Z</time>
      </trkpt>
      <trkpt lat="45.16243" lon="4.63764">
        <ele>453.35925292969</ele>
        <time>2009-04-18T13:57:16Z</time>
      </trkpt>
      <trkpt lat="45.16252" lon="4.63863">
        <ele>450.69845581055</ele>
        <time>2009-04-18T13:57:27Z</time>
      </trkpt>
      <trkpt lat="45.16253" lon="4.63932">
        <ele>446.8779296875</ele>
        <time>2009-04-18T13:57:34Z</time>
      </trkpt>
      <trkpt lat="45.16286" lon="4.64061">
        <ele>445.82931518555</ele>
        <time>2009-04-18T13:57:48Z</time>
      </trkpt>
      <trkpt lat="45.16303" lon="4.64109">
        <ele>445.34454345703</ele>
        <time>2009-04-18T13:57:53Z</time>
      </trkpt>
      <trkpt lat="45.16358" lon="4.6418">
        <ele>444.95104980469</ele>
        <time>2009-04-18T13:58:04Z</time>
      </trkpt>
      <trkpt lat="45.16363" lon="4.64211">
        <ele>443.38153076172</ele>
        <time>2009-04-18T13:58:07Z</time>
      </trkpt>
      <trkpt lat="45.16361" lon="4.64281">
        <ele>439.69094848633</ele>
        <time>2009-04-18T13:58:14Z</time>
      </trkpt>
      <trkpt lat="45.16328" lon="4.64437">
        <ele>441.36361694336</ele>
        <time>2009-04-18T13:58:31Z</time>
      </trkpt>
      <trkpt lat="45.16304" lon="4.64531">
        <ele>443.52163696289</ele>
        <time>2009-04-18T13:58:41Z</time>
      </trkpt>
      <trkpt lat="45.16299" lon="4.64568">
        <ele>443.90982055664</ele>
        <time>2009-04-18T13:58:45Z</time>
      </trkpt>
      <trkpt lat="45.16303" lon="4.64665">
        <ele>444.43505859375</ele>
        <time>2009-04-18T13:58:55Z</time>
      </trkpt>
      <trkpt lat="45.16328" lon="4.64755">
        <ele>444.16796875</ele>
        <time>2009-04-18T13:59:05Z</time>
      </trkpt>
      <trkpt lat="45.16332" lon="4.64782">
        <ele>444.75714111328</ele>
        <time>2009-04-18T13:59:07Z</time>
      </trkpt>
      <trkpt lat="45.16326" lon="4.6487">
        <ele>443.66744995117</ele>
        <time>2009-04-18T13:59:16Z</time>
      </trkpt>
      <trkpt lat="45.16345" lon="4.64991">
        <ele>444.00509643555</ele>
        <time>2009-04-18T13:59:29Z</time>
      </trkpt>
      <trkpt lat="45.16342" lon="4.65108">
        <ele>438.80899047852</ele>
        <time>2009-04-18T13:59:41Z</time>
      </trkpt>
      <trkpt lat="45.16346" lon="4.65127">
        <ele>438.62112426758</ele>
        <time>2009-04-18T13:59:43Z</time>
      </trkpt>
      <trkpt lat="45.16404" lon="4.65268">
        <ele>439.26751708984</ele>
        <time>2009-04-18T14:00:00Z</time>
      </trkpt>
      <trkpt lat="45.16481" lon="4.65424">
        <ele>436.29364013672</ele>
        <time>2009-04-18T14:00:19Z</time>
      </trkpt>
      <trkpt lat="45.16503" lon="4.65454">
        <ele>436.44946289062</ele>
        <time>2009-04-18T14:00:23Z</time>
      </trkpt>
      <trkpt lat="45.16524" lon="4.65469">
        <ele>436.13580322266</ele>
        <time>2009-04-18T14:00:27Z</time>
      </trkpt>
      <trkpt lat="45.16541" lon="4.65474">
        <ele>436.31457519531</ele>
        <time>2009-04-18T14:00:29Z</time>
      </trkpt>
      <trkpt lat="45.1659" lon="4.65473">
        <ele>438.38204956055</ele>
        <time>2009-04-18T14:00:36Z</time>
      </trkpt>
      <trkpt lat="45.16602" lon="4.6548">
        <ele>438.5094909668</ele>
        <time>2009-04-18T14:00:38Z</time>
      </trkpt>
      <trkpt lat="45.16611" lon="4.655">
        <ele>437.33416748047</ele>
        <time>2009-04-18T14:00:41Z</time>
      </trkpt>
      <trkpt lat="45.16612" lon="4.65521">
        <ele>439.25366210938</ele>
        <time>2009-04-18T14:00:43Z</time>
      </trkpt>
      <trkpt lat="45.16608" lon="4.65539">
        <ele>440.43731689453</ele>
        <time>2009-04-18T14:00:45Z</time>
      </trkpt>
      <trkpt lat="45.1654" lon="4.65624">
        <ele>441.96356201172</ele>
        <time>2009-04-18T14:00:58Z</time>
      </trkpt>
      <trkpt lat="45.16533" lon="4.65641">
        <ele>442.97567749023</ele>
        <time>2009-04-18T14:01:00Z</time>
      </trkpt>
      <trkpt lat="45.16524" lon="4.65749">
        <ele>448.99667358398</ele>
        <time>2009-04-18T14:01:11Z</time>
      </trkpt>
      <trkpt lat="45.16479" lon="4.65869">
        <ele>450.345703125</ele>
        <time>2009-04-18T14:01:25Z</time>
      </trkpt>
      <trkpt lat="45.16443" lon="4.66017">
        <ele>456.88671875</ele>
        <time>2009-04-18T14:01:41Z</time>
      </trkpt>
      <trkpt lat="45.16453" lon="4.66261">
        <ele>452.67016601562</ele>
        <time>2009-04-18T14:02:06Z</time>
      </trkpt>
      <trkpt lat="45.16452" lon="4.66431">
        <ele>448.99655151367</ele>
        <time>2009-04-18T14:02:23Z</time>
      </trkpt>
      <trkpt lat="45.16468" lon="4.66657">
        <ele>454.34033203125</ele>
        <time>2009-04-18T14:02:46Z</time>
      </trkpt>
      <trkpt lat="45.16461" lon="4.66745">
        <ele>458.25357055664</ele>
        <time>2009-04-18T14:02:55Z</time>
      </trkpt>
      <trkpt lat="45.16464" lon="4.66784">
        <ele>458.13385009766</ele>
        <time>2009-04-18T14:02:59Z</time>
      </trkpt>
      <trkpt lat="45.16491" lon="4.66943">
        <ele>455.23291015625</ele>
        <time>2009-04-18T14:03:16Z</time>
      </trkpt>
      <trkpt lat="45.16499" lon="4.67089">
        <ele>456.05346679688</ele>
        <time>2009-04-18T14:03:31Z</time>
      </trkpt>
      <trkpt lat="45.16496" lon="4.67188">
        <ele>457.12054443359</ele>
        <time>2009-04-18T14:03:41Z</time>
      </trkpt>
      <trkpt lat="45.16492" lon="4.67197">
        <ele>457.11334228516</ele>
        <time>2009-04-18T14:03:42Z</time>
      </trkpt>
      <trkpt lat="45.16488" lon="4.67264">
        <ele>457.54141235352</ele>
        <time>2009-04-18T14:03:49Z</time>
      </trkpt>
      <trkpt lat="45.16489" lon="4.67307">
        <ele>457.05276489258</ele>
        <time>2009-04-18T14:03:53Z</time>
      </trkpt>
      <trkpt lat="45.16515" lon="4.67373">
        <ele>456.59579467773</ele>
        <time>2009-04-18T14:04:01Z</time>
      </trkpt>
      <trkpt lat="45.16526" lon="4.67378">
        <ele>456.84274291992</ele>
        <time>2009-04-18T14:04:03Z</time>
      </trkpt>
      <trkpt lat="45.16566" lon="4.67482">
        <ele>453.6125793457</ele>
        <time>2009-04-18T14:04:15Z</time>
      </trkpt>
      <trkpt lat="45.16585" lon="4.67516">
        <ele>451.97888183594</ele>
        <time>2009-04-18T14:04:19Z</time>
      </trkpt>
      <trkpt lat="45.16702" lon="4.67637">
        <ele>444.28897094727</ele>
        <time>2009-04-18T14:04:40Z</time>
      </trkpt>
      <trkpt lat="45.16738" lon="4.67668">
        <ele>443.15167236328</ele>
        <time>2009-04-18T14:04:46Z</time>
      </trkpt>
      <trkpt lat="45.1682" lon="4.67846">
        <ele>440.09213256836</ele>
        <time>2009-04-18T14:05:08Z</time>
      </trkpt>
      <trkpt lat="45.16835" lon="4.67891">
        <ele>439.32229614258</ele>
        <time>2009-04-18T14:05:13Z</time>
      </trkpt>
      <trkpt lat="45.16835" lon="4.67931">
        <ele>438.51525878906</ele>
        <time>2009-04-18T14:05:17Z</time>
      </trkpt>
      <trkpt lat="45.1681" lon="4.6802">
        <ele>435.36859130859</ele>
        <time>2009-04-18T14:05:27Z</time>
      </trkpt>
      <trkpt lat="45.1681" lon="4.68049">
        <ele>435.27053833008</ele>
        <time>2009-04-18T14:05:30Z</time>
      </trkpt>
      <trkpt lat="45.16823" lon="4.68143">
        <ele>433.91860961914</ele>
        <time>2009-04-18T14:05:39Z</time>
      </trkpt>
      <trkpt lat="45.16856" lon="4.68262">
        <ele>430.47903442383</ele>
        <time>2009-04-18T14:05:52Z</time>
      </trkpt>
      <trkpt lat="45.16914" lon="4.68416">
        <ele>428.00772094727</ele>
        <time>2009-04-18T14:06:10Z</time>
      </trkpt>
      <trkpt lat="45.16919" lon="4.68487">
        <ele>425.53634643555</ele>
        <time>2009-04-18T14:06:18Z</time>
      </trkpt>
      <trkpt lat="45.16941" lon="4.68559">
        <ele>423.25518798828</ele>
        <time>2009-04-18T14:06:26Z</time>
      </trkpt>
      <trkpt lat="45.16953" lon="4.68644">
        <ele>421.92825317383</ele>
        <time>2009-04-18T14:06:34Z</time>
      </trkpt>
      <trkpt lat="45.16946" lon="4.68792">
        <ele>422.46939086914</ele>
        <time>2009-04-18T14:06:50Z</time>
      </trkpt>
      <trkpt lat="45.16913" lon="4.6889">
        <ele>418.99688720703</ele>
        <time>2009-04-18T14:07:01Z</time>
      </trkpt>
      <trkpt lat="45.16863" lon="4.69124">
        <ele>409.93856811523</ele>
        <time>2009-04-18T14:07:26Z</time>
      </trkpt>
      <trkpt lat="45.16862" lon="4.69156">
        <ele>409.2526550293</ele>
        <time>2009-04-18T14:07:29Z</time>
      </trkpt>
      <trkpt lat="45.16873" lon="4.69374">
        <ele>402.99017333984</ele>
        <time>2009-04-18T14:07:51Z</time>
      </trkpt>
      <trkpt lat="45.16887" lon="4.69623">
        <ele>403.65350341797</ele>
        <time>2009-04-18T14:08:17Z</time>
      </trkpt>
      <trkpt lat="45.1691" lon="4.69723">
        <ele>400.99990844727</ele>
        <time>2009-04-18T14:08:27Z</time>
      </trkpt>
      <trkpt lat="45.16927" lon="4.69918">
        <ele>397.87850952148</ele>
        <time>2009-04-18T14:08:47Z</time>
      </trkpt>
      <trkpt lat="45.17045" lon="4.70335">
        <ele>404.00152587891</ele>
        <time>2009-04-18T14:09:33Z</time>
      </trkpt>
      <trkpt lat="45.17144" lon="4.70896">
        <ele>406.09088134766</ele>
        <time>2009-04-18T14:10:32Z</time>
      </trkpt>
      <trkpt lat="45.17155" lon="4.70934">
        <ele>405.65121459961</ele>
        <time>2009-04-18T14:10:36Z</time>
      </trkpt>
      <trkpt lat="45.17243" lon="4.71115">
        <ele>406.63589477539</ele>
        <time>2009-04-18T14:10:59Z</time>
      </trkpt>
      <trkpt lat="45.17254" lon="4.71146">
        <ele>406.41424560547</ele>
        <time>2009-04-18T14:11:02Z</time>
      </trkpt>
      <trkpt lat="45.17512" lon="4.71951">
        <ele>384.32138061523</ele>
        <time>2009-04-18T14:12:32Z</time>
      </trkpt>
      <trkpt lat="45.1753" lon="4.72034">
        <ele>382.69232177734</ele>
        <time>2009-04-18T14:12:41Z</time>
      </trkpt>
      <trkpt lat="45.1754" lon="4.72108">
        <ele>381.35589599609</ele>
        <time>2009-04-18T14:12:49Z</time>
      </trkpt>
      <trkpt lat="45.17549" lon="4.72134">
        <ele>381.07174682617</ele>
        <time>2009-04-18T14:12:52Z</time>
      </trkpt>
      <trkpt lat="45.17817" lon="4.72672">
        <ele>378.8723449707</ele>
        <time>2009-04-18T14:13:59Z</time>
      </trkpt>
      <trkpt lat="45.17884" lon="4.72749">
        <ele>377.61087036133</ele>
        <time>2009-04-18T14:14:11Z</time>
      </trkpt>
      <trkpt lat="45.18018" lon="4.7285">
        <ele>380.15679931641</ele>
        <time>2009-04-18T14:14:33Z</time>
      </trkpt>
      <trkpt lat="45.18039" lon="4.72874">
        <ele>380.26010131836</ele>
        <time>2009-04-18T14:14:37Z</time>
      </trkpt>
      <trkpt lat="45.18069" lon="4.72927">
        <ele>379.71759033203</ele>
        <time>2009-04-18T14:14:44Z</time>
      </trkpt>
      <trkpt lat="45.18159" lon="4.73057">
        <ele>378.61138916016</ele>
        <time>2009-04-18T14:15:03Z</time>
      </trkpt>
      <trkpt lat="45.18173" lon="4.73068">
        <ele>378.24130249023</ele>
        <time>2009-04-18T14:15:05Z</time>
      </trkpt>
      <trkpt lat="45.18197" lon="4.73076">
        <ele>377.31646728516</ele>
        <time>2009-04-18T14:15:09Z</time>
      </trkpt>
      <trkpt lat="45.18241" lon="4.73078">
        <ele>376.66760253906</ele>
        <time>2009-04-18T14:15:15Z</time>
      </trkpt>
      <trkpt lat="45.18298" lon="4.73069">
        <ele>378.20404052734</ele>
        <time>2009-04-18T14:15:23Z</time>
      </trkpt>
      <trkpt lat="45.18313" lon="4.73072">
        <ele>378.21905517578</ele>
        <time>2009-04-18T14:15:25Z</time>
      </trkpt>
      <trkpt lat="45.18336" lon="4.73094">
        <ele>377.4743347168</ele>
        <time>2009-04-18T14:15:29Z</time>
      </trkpt>
      <trkpt lat="45.18359" lon="4.73135">
        <ele>376.81762695312</ele>
        <time>2009-04-18T14:15:35Z</time>
      </trkpt>
      <trkpt lat="45.18414" lon="4.7321">
        <ele>376.61224365234</ele>
        <time>2009-04-18T14:15:46Z</time>
      </trkpt>
      <trkpt lat="45.18442" lon="4.73238">
        <ele>375.54983520508</ele>
        <time>2009-04-18T14:15:51Z</time>
      </trkpt>
      <trkpt lat="45.1847" lon="4.73256">
        <ele>375.8391418457</ele>
        <time>2009-04-18T14:15:55Z</time>
      </trkpt>
      <trkpt lat="45.18543" lon="4.73281">
        <ele>376.33123779297</ele>
        <time>2009-04-18T14:16:06Z</time>
      </trkpt>
      <trkpt lat="45.18574" lon="4.7332">
        <ele>374.54699707031</ele>
        <time>2009-04-18T14:16:12Z</time>
      </trkpt>
      <trkpt lat="45.18629" lon="4.73452">
        <ele>374.01428222656</ele>
        <time>2009-04-18T14:16:28Z</time>
      </trkpt>
      <trkpt lat="45.18653" lon="4.73561">
        <ele>375.88650512695</ele>
        <time>2009-04-18T14:16:39Z</time>
      </trkpt>
      <trkpt lat="45.18665" lon="4.73646">
        <ele>376.85946655273</ele>
        <time>2009-04-18T14:16:48Z</time>
      </trkpt>
      <trkpt lat="45.18673" lon="4.73675">
        <ele>376.48867797852</ele>
        <time>2009-04-18T14:16:51Z</time>
      </trkpt>
      <trkpt lat="45.18723" lon="4.73675">
        <ele>374.80978393555</ele>
        <time>2009-04-18T14:16:58Z</time>
      </trkpt>
      <trkpt lat="45.18753" lon="4.73663">
        <ele>373.93579101562</ele>
        <time>2009-04-18T14:17:03Z</time>
      </trkpt>
      <trkpt lat="45.18875" lon="4.73595">
        <ele>371.14541625977</ele>
        <time>2009-04-18T14:17:22Z</time>
      </trkpt>
      <trkpt lat="45.1889" lon="4.73592">
        <ele>370.68145751953</ele>
        <time>2009-04-18T14:17:24Z</time>
      </trkpt>
      <trkpt lat="45.18914" lon="4.73604">
        <ele>369.35827636719</ele>
        <time>2009-04-18T14:17:28Z</time>
      </trkpt>
      <trkpt lat="45.18952" lon="4.73664">
        <ele>367.94839477539</ele>
        <time>2009-04-18T14:17:36Z</time>
      </trkpt>
      <trkpt lat="45.18982" lon="4.7369">
        <ele>367.06945800781</ele>
        <time>2009-04-18T14:17:41Z</time>
      </trkpt>
      <trkpt lat="45.19007" lon="4.73721">
        <ele>365.4528503418</ele>
        <time>2009-04-18T14:17:46Z</time>
      </trkpt>
      <trkpt lat="45.19016" lon="4.73837">
        <ele>359.65930175781</ele>
        <time>2009-04-18T14:17:58Z</time>
      </trkpt>
      <trkpt lat="45.1904" lon="4.73907">
        <ele>358.3332824707</ele>
        <time>2009-04-18T14:18:06Z</time>
      </trkpt>
      <trkpt lat="45.19042" lon="4.74113">
        <ele>349.46463012695</ele>
        <time>2009-04-18T14:18:27Z</time>
      </trkpt>
      <trkpt lat="45.1905" lon="4.74199">
        <ele>346.21368408203</ele>
        <time>2009-04-18T14:18:36Z</time>
      </trkpt>
      <trkpt lat="45.1915" lon="4.74523">
        <ele>336.48345947266</ele>
        <time>2009-04-18T14:19:12Z</time>
      </trkpt>
      <trkpt lat="45.19192" lon="4.74689">
        <ele>337.64608764648</ele>
        <time>2009-04-18T14:19:30Z</time>
      </trkpt>
      <trkpt lat="45.1919" lon="4.74702">
        <ele>337.2848815918</ele>
        <time>2009-04-18T14:19:31Z</time>
      </trkpt>
      <trkpt lat="45.19175" lon="4.74719">
        <ele>334.53588867188</ele>
        <time>2009-04-18T14:19:34Z</time>
      </trkpt>
      <trkpt lat="45.19128" lon="4.74761">
        <ele>329.6418762207</ele>
        <time>2009-04-18T14:19:42Z</time>
      </trkpt>
      <trkpt lat="45.19091" lon="4.74773">
        <ele>325.19586181641</ele>
        <time>2009-04-18T14:19:47Z</time>
      </trkpt>
      <trkpt lat="45.19082" lon="4.74779">
        <ele>323.9465637207</ele>
        <time>2009-04-18T14:19:49Z</time>
      </trkpt>
      <trkpt lat="45.19077" lon="4.74789">
        <ele>322.81854248047</ele>
        <time>2009-04-18T14:19:50Z</time>
      </trkpt>
      <trkpt lat="45.19073" lon="4.7481">
        <ele>322.29528808594</ele>
        <time>2009-04-18T14:19:52Z</time>
      </trkpt>
      <trkpt lat="45.19073" lon="4.74868">
        <ele>322.76580810547</ele>
        <time>2009-04-18T14:19:58Z</time>
      </trkpt>
      <trkpt lat="45.19062" lon="4.74994">
        <ele>310.10510253906</ele>
        <time>2009-04-18T14:20:11Z</time>
      </trkpt>
      <trkpt lat="45.19073" lon="4.75017">
        <ele>311.18643188477</ele>
        <time>2009-04-18T14:20:14Z</time>
      </trkpt>
      <trkpt lat="45.1916" lon="4.75088">
        <ele>315.8352355957</ele>
        <time>2009-04-18T14:20:28Z</time>
      </trkpt>
      <trkpt lat="45.19178" lon="4.75098">
        <ele>315.64453125</ele>
        <time>2009-04-18T14:20:31Z</time>
      </trkpt>
      <trkpt lat="45.19212" lon="4.75105">
        <ele>320.97525024414</ele>
        <time>2009-04-18T14:20:36Z</time>
      </trkpt>
      <trkpt lat="45.19219" lon="4.75112">
        <ele>320.69467163086</ele>
        <time>2009-04-18T14:20:37Z</time>
      </trkpt>
      <trkpt lat="45.19236" lon="4.75166">
        <ele>312.77490234375</ele>
        <time>2009-04-18T14:20:43Z</time>
      </trkpt>
      <trkpt lat="45.19261" lon="4.75217">
        <ele>310.23767089844</ele>
        <time>2009-04-18T14:20:50Z</time>
      </trkpt>
      <trkpt lat="45.19303" lon="4.75344">
        <ele>305.82107543945</ele>
        <time>2009-04-18T14:21:04Z</time>
      </trkpt>
      <trkpt lat="45.19327" lon="4.75384">
        <ele>311.49905395508</ele>
        <time>2009-04-18T14:21:09Z</time>
      </trkpt>
      <trkpt lat="45.19328" lon="4.75394">
        <ele>310.52514648438</ele>
        <time>2009-04-18T14:21:10Z</time>
      </trkpt>
      <trkpt lat="45.19314" lon="4.75449">
        <ele>301.6015625</ele>
        <time>2009-04-18T14:21:16Z</time>
      </trkpt>
      <trkpt lat="45.19315" lon="4.75488">
        <ele>302.76586914062</ele>
        <time>2009-04-18T14:21:20Z</time>
      </trkpt>
      <trkpt lat="45.19309" lon="4.75523">
        <ele>301.49755859375</ele>
        <time>2009-04-18T14:21:24Z</time>
      </trkpt>
      <trkpt lat="45.19295" lon="4.75571">
        <ele>298.24142456055</ele>
        <time>2009-04-18T14:21:29Z</time>
      </trkpt>
      <trkpt lat="45.19273" lon="4.75607">
        <ele>293.455078125</ele>
        <time>2009-04-18T14:21:34Z</time>
      </trkpt>
      <trkpt lat="45.19247" lon="4.75633">
        <ele>288.76565551758</ele>
        <time>2009-04-18T14:21:39Z</time>
      </trkpt>
      <trkpt lat="45.19218" lon="4.75688">
        <ele>297.36840820312</ele>
        <time>2009-04-18T14:21:46Z</time>
      </trkpt>
      <trkpt lat="45.192" lon="4.75693">
        <ele>295.91784667969</ele>
        <time>2009-04-18T14:21:48Z</time>
      </trkpt>
      <trkpt lat="45.19163" lon="4.75667">
        <ele>282.10369873047</ele>
        <time>2009-04-18T14:21:54Z</time>
      </trkpt>
      <trkpt lat="45.19106" lon="4.75658">
        <ele>279.73693847656</ele>
        <time>2009-04-18T14:22:03Z</time>
      </trkpt>
      <trkpt lat="45.1905" lon="4.75653">
        <ele>273.54556274414</ele>
        <time>2009-04-18T14:22:11Z</time>
      </trkpt>
      <trkpt lat="45.19038" lon="4.7566">
        <ele>272.86349487305</ele>
        <time>2009-04-18T14:22:13Z</time>
      </trkpt>
      <trkpt lat="45.19036" lon="4.7567">
        <ele>273.37423706055</ele>
        <time>2009-04-18T14:22:14Z</time>
      </trkpt>
      <trkpt lat="45.19041" lon="4.75687">
        <ele>273.76574707031</ele>
        <time>2009-04-18T14:22:16Z</time>
      </trkpt>
      <trkpt lat="45.19076" lon="4.75715">
        <ele>281.41888427734</ele>
        <time>2009-04-18T14:22:21Z</time>
      </trkpt>
      <trkpt lat="45.19102" lon="4.75755">
        <ele>289.42608642578</ele>
        <time>2009-04-18T14:22:27Z</time>
      </trkpt>
      <trkpt lat="45.19106" lon="4.75776">
        <ele>289.94174194336</ele>
        <time>2009-04-18T14:22:29Z</time>
      </trkpt>
      <trkpt lat="45.19106" lon="4.75806">
        <ele>288.98254394531</ele>
        <time>2009-04-18T14:22:32Z</time>
      </trkpt>
      <trkpt lat="45.19101" lon="4.75843">
        <ele>287.12084960938</ele>
        <time>2009-04-18T14:22:36Z</time>
      </trkpt>
      <trkpt lat="45.19079" lon="4.75885">
        <ele>284.32971191406</ele>
        <time>2009-04-18T14:22:41Z</time>
      </trkpt>
      <trkpt lat="45.19059" lon="4.75899">
        <ele>280.72598266602</ele>
        <time>2009-04-18T14:22:45Z</time>
      </trkpt>
      <trkpt lat="45.18975" lon="4.75924">
        <ele>262.49105834961</ele>
        <time>2009-04-18T14:22:57Z</time>
      </trkpt>
      <trkpt lat="45.18968" lon="4.75929">
        <ele>261.5947265625</ele>
        <time>2009-04-18T14:22:58Z</time>
      </trkpt>
      <trkpt lat="45.18965" lon="4.7594">
        <ele>261.93609619141</ele>
        <time>2009-04-18T14:22:59Z</time>
      </trkpt>
      <trkpt lat="45.18966" lon="4.75954">
        <ele>263.18600463867</ele>
        <time>2009-04-18T14:23:01Z</time>
      </trkpt>
      <trkpt lat="45.19001" lon="4.76022">
        <ele>275.86734008789</ele>
        <time>2009-04-18T14:23:09Z</time>
      </trkpt>
      <trkpt lat="45.19009" lon="4.7605">
        <ele>277.7721862793</ele>
        <time>2009-04-18T14:23:12Z</time>
      </trkpt>
      <trkpt lat="45.19004" lon="4.76095">
        <ele>272.70227050781</ele>
        <time>2009-04-18T14:23:17Z</time>
      </trkpt>
      <trkpt lat="45.18993" lon="4.76134">
        <ele>268.83142089844</ele>
        <time>2009-04-18T14:23:21Z</time>
      </trkpt>
      <trkpt lat="45.1899" lon="4.76161">
        <ele>268.21795654297</ele>
        <time>2009-04-18T14:23:24Z</time>
      </trkpt>
      <trkpt lat="45.18996" lon="4.76229">
        <ele>261.52825927734</ele>
        <time>2009-04-18T14:23:31Z</time>
      </trkpt>
      <trkpt lat="45.19002" lon="4.7626">
        <ele>258.83013916016</ele>
        <time>2009-04-18T14:23:34Z</time>
      </trkpt>
      <trkpt lat="45.19043" lon="4.76344">
        <ele>268.42974853516</ele>
        <time>2009-04-18T14:23:45Z</time>
      </trkpt>
      <trkpt lat="45.19047" lon="4.76373">
        <ele>268.49258422852</ele>
        <time>2009-04-18T14:23:48Z</time>
      </trkpt>
      <trkpt lat="45.19045" lon="4.76464">
        <ele>263.10955810547</ele>
        <time>2009-04-18T14:23:57Z</time>
      </trkpt>
      <trkpt lat="45.19027" lon="4.76512">
        <ele>253.50804138184</ele>
        <time>2009-04-18T14:24:03Z</time>
      </trkpt>
      <trkpt lat="45.19029" lon="4.76567">
        <ele>255.46330261231</ele>
        <time>2009-04-18T14:24:08Z</time>
      </trkpt>
      <trkpt lat="45.19026" lon="4.76586">
        <ele>254.57769775391</ele>
        <time>2009-04-18T14:24:10Z</time>
      </trkpt>
      <trkpt lat="45.1898" lon="4.76656">
        <ele>245.4485168457</ele>
        <time>2009-04-18T14:24:20Z</time>
      </trkpt>
      <trkpt lat="45.18977" lon="4.76693">
        <ele>245.21907043457</ele>
        <time>2009-04-18T14:24:24Z</time>
      </trkpt>
      <trkpt lat="45.18981" lon="4.7671">
        <ele>244.48056030273</ele>
        <time>2009-04-18T14:24:26Z</time>
      </trkpt>
      <trkpt lat="45.18992" lon="4.76723">
        <ele>242.27760314941</ele>
        <time>2009-04-18T14:24:28Z</time>
      </trkpt>
      <trkpt lat="45.19048" lon="4.76741">
        <ele>239.33277893066</ele>
        <time>2009-04-18T14:24:36Z</time>
      </trkpt>
      <trkpt lat="45.19096" lon="4.76745">
        <ele>238.65090942383</ele>
        <time>2009-04-18T14:24:43Z</time>
      </trkpt>
      <trkpt lat="45.19128" lon="4.76738">
        <ele>241.44816589356</ele>
        <time>2009-04-18T14:24:48Z</time>
      </trkpt>
      <trkpt lat="45.19159" lon="4.7674">
        <ele>241.44792175293</ele>
        <time>2009-04-18T14:24:52Z</time>
      </trkpt>
      <trkpt lat="45.19184" lon="4.76748">
        <ele>242.52233886719</ele>
        <time>2009-04-18T14:24:56Z</time>
      </trkpt>
      <trkpt lat="45.19213" lon="4.7677">
        <ele>244.63972473144</ele>
        <time>2009-04-18T14:25:00Z</time>
      </trkpt>
      <trkpt lat="45.19225" lon="4.76801">
        <ele>241.77066040039</ele>
        <time>2009-04-18T14:25:04Z</time>
      </trkpt>
      <trkpt lat="45.19228" lon="4.7688">
        <ele>236.65640258789</ele>
        <time>2009-04-18T14:25:12Z</time>
      </trkpt>
      <trkpt lat="45.19225" lon="4.76907">
        <ele>236.10034179688</ele>
        <time>2009-04-18T14:25:15Z</time>
      </trkpt>
      <trkpt lat="45.19213" lon="4.76936">
        <ele>236.69792175293</ele>
        <time>2009-04-18T14:25:18Z</time>
      </trkpt>
      <trkpt lat="45.19172" lon="4.77002">
        <ele>233.88565063477</ele>
        <time>2009-04-18T14:25:27Z</time>
      </trkpt>
      <trkpt lat="45.19161" lon="4.77032">
        <ele>239.40174865723</ele>
        <time>2009-04-18T14:25:31Z</time>
      </trkpt>
      <trkpt lat="45.19148" lon="4.77044">
        <ele>241.82266235352</ele>
        <time>2009-04-18T14:25:33Z</time>
      </trkpt>
      <trkpt lat="45.19111" lon="4.77063">
        <ele>240.59819030762</ele>
        <time>2009-04-18T14:25:39Z</time>
      </trkpt>
      <trkpt lat="45.19077" lon="4.77106">
        <ele>233.19648742676</ele>
        <time>2009-04-18T14:25:45Z</time>
      </trkpt>
      <trkpt lat="45.19049" lon="4.77126">
        <ele>240.79029846191</ele>
        <time>2009-04-18T14:25:50Z</time>
      </trkpt>
      <trkpt lat="45.19019" lon="4.77194">
        <ele>243.00604248047</ele>
        <time>2009-04-18T14:25:58Z</time>
      </trkpt>
      <trkpt lat="45.19018" lon="4.77208">
        <ele>242.56430053711</ele>
        <time>2009-04-18T14:25:59Z</time>
      </trkpt>
      <trkpt lat="45.19021" lon="4.77236">
        <ele>240.41967773438</ele>
        <time>2009-04-18T14:26:02Z</time>
      </trkpt>
      <trkpt lat="45.19028" lon="4.77257">
        <ele>238.29878234863</ele>
        <time>2009-04-18T14:26:05Z</time>
      </trkpt>
      <trkpt lat="45.19089" lon="4.77396">
        <ele>227.19206237793</ele>
        <time>2009-04-18T14:26:21Z</time>
      </trkpt>
      <trkpt lat="45.19092" lon="4.77438">
        <ele>228.10186767578</ele>
        <time>2009-04-18T14:26:26Z</time>
      </trkpt>
      <trkpt lat="45.19079" lon="4.77477">
        <ele>232.61531066894</ele>
        <time>2009-04-18T14:26:30Z</time>
      </trkpt>
      <trkpt lat="45.19084" lon="4.77517">
        <ele>231.80700683594</ele>
        <time>2009-04-18T14:26:34Z</time>
      </trkpt>
      <trkpt lat="45.19099" lon="4.7757">
        <ele>231.04762268066</ele>
        <time>2009-04-18T14:26:40Z</time>
      </trkpt>
      <trkpt lat="45.19168" lon="4.77695">
        <ele>211.47892761231</ele>
        <time>2009-04-18T14:26:56Z</time>
      </trkpt>
      <trkpt lat="45.19249" lon="4.7778">
        <ele>195.79136657715</ele>
        <time>2009-04-18T14:27:11Z</time>
      </trkpt>
      <trkpt lat="45.19261" lon="4.77804">
        <ele>199.00148010254</ele>
        <time>2009-04-18T14:27:14Z</time>
      </trkpt>
      <trkpt lat="45.19267" lon="4.77827">
        <ele>201.36492919922</ele>
        <time>2009-04-18T14:27:16Z</time>
      </trkpt>
      <trkpt lat="45.19267" lon="4.77917">
        <ele>210.94309997559</ele>
        <time>2009-04-18T14:27:25Z</time>
      </trkpt>
      <trkpt lat="45.19262" lon="4.77994">
        <ele>214.67529296875</ele>
        <time>2009-04-18T14:27:33Z</time>
      </trkpt>
      <trkpt lat="45.19268" lon="4.78061">
        <ele>207.91720581055</ele>
        <time>2009-04-18T14:27:40Z</time>
      </trkpt>
      <trkpt lat="45.19278" lon="4.78123">
        <ele>198.59814453125</ele>
        <time>2009-04-18T14:27:47Z</time>
      </trkpt>
      <trkpt lat="45.19279" lon="4.78145">
        <ele>195.30474853516</ele>
        <time>2009-04-18T14:27:49Z</time>
      </trkpt>
      <trkpt lat="45.19273" lon="4.7819">
        <ele>189.1925201416</ele>
        <time>2009-04-18T14:27:54Z</time>
      </trkpt>
      <trkpt lat="45.19261" lon="4.78217">
        <ele>184.87733459473</ele>
        <time>2009-04-18T14:27:57Z</time>
      </trkpt>
      <trkpt lat="45.19237" lon="4.78244">
        <ele>184.71212768555</ele>
        <time>2009-04-18T14:28:01Z</time>
      </trkpt>
      <trkpt lat="45.1917" lon="4.78294">
        <ele>191.27725219727</ele>
        <time>2009-04-18T14:28:12Z</time>
      </trkpt>
      <trkpt lat="45.19101" lon="4.78389">
        <ele>188.71728515625</ele>
        <time>2009-04-18T14:28:26Z</time>
      </trkpt>
      <trkpt lat="45.19098" lon="4.78408">
        <ele>187.58944702148</ele>
        <time>2009-04-18T14:28:28Z</time>
      </trkpt>
      <trkpt lat="45.19119" lon="4.78511">
        <ele>179.79469299316</ele>
        <time>2009-04-18T14:28:39Z</time>
      </trkpt>
      <trkpt lat="45.19126" lon="4.78646">
        <ele>178.50090026856</ele>
        <time>2009-04-18T14:28:53Z</time>
      </trkpt>
      <trkpt lat="45.1913" lon="4.7867">
        <ele>177.0380859375</ele>
        <time>2009-04-18T14:28:55Z</time>
      </trkpt>
      <trkpt lat="45.1915" lon="4.7873">
        <ele>172.29884338379</ele>
        <time>2009-04-18T14:29:02Z</time>
      </trkpt>
      <trkpt lat="45.19191" lon="4.78787">
        <ele>165.17620849609</ele>
        <time>2009-04-18T14:29:10Z</time>
      </trkpt>
      <trkpt lat="45.19205" lon="4.78817">
        <ele>164.48161315918</ele>
        <time>2009-04-18T14:29:14Z</time>
      </trkpt>
      <trkpt lat="45.1921" lon="4.78863">
        <ele>165.13999938965</ele>
        <time>2009-04-18T14:29:19Z</time>
      </trkpt>
      <trkpt lat="45.19208" lon="4.78907">
        <ele>167.29368591309</ele>
        <time>2009-04-18T14:29:23Z</time>
      </trkpt>
      <trkpt lat="45.19202" lon="4.7894">
        <ele>168.48590087891</ele>
        <time>2009-04-18T14:29:27Z</time>
      </trkpt>
      <trkpt lat="45.19182" lon="4.78986">
        <ele>172.69239807129</ele>
        <time>2009-04-18T14:29:32Z</time>
      </trkpt>
      <trkpt lat="45.19174" lon="4.79037">
        <ele>166.40086364746</ele>
        <time>2009-04-18T14:29:38Z</time>
      </trkpt>
      <trkpt lat="45.1913" lon="4.7913">
        <ele>163.27243041992</ele>
        <time>2009-04-18T14:29:49Z</time>
      </trkpt>
      <trkpt lat="45.19119" lon="4.79259">
        <ele>155.95545959473</ele>
        <time>2009-04-18T14:30:02Z</time>
      </trkpt>
      <trkpt lat="45.191" lon="4.79311">
        <ele>156.86331176758</ele>
        <time>2009-04-18T14:30:08Z</time>
      </trkpt>
      <trkpt lat="45.1909" lon="4.79383">
        <ele>148.17176818848</ele>
        <time>2009-04-18T14:30:16Z</time>
      </trkpt>
      <trkpt lat="45.19076" lon="4.79438">
        <ele>142.98432922363</ele>
        <time>2009-04-18T14:30:22Z</time>
      </trkpt>
      <trkpt lat="45.19067" lon="4.79524">
        <ele>138.24694824219</ele>
        <time>2009-04-18T14:30:30Z</time>
      </trkpt>
      <trkpt lat="45.1906" lon="4.79547">
        <ele>137.49865722656</ele>
        <time>2009-04-18T14:30:33Z</time>
      </trkpt>
      <trkpt lat="45.19045" lon="4.79573">
        <ele>136.97436523438</ele>
        <time>2009-04-18T14:30:36Z</time>
      </trkpt>
      <trkpt lat="45.19021" lon="4.79602">
        <ele>136.85334777832</ele>
        <time>2009-04-18T14:30:41Z</time>
      </trkpt>
      <trkpt lat="45.19009" lon="4.79612">
        <ele>136.88691711426</ele>
        <time>2009-04-18T14:30:43Z</time>
      </trkpt>
      <trkpt lat="45.18999" lon="4.79614">
        <ele>137.18328857422</ele>
        <time>2009-04-18T14:30:44Z</time>
      </trkpt>
      <trkpt lat="45.1867" lon="4.79624">
        <ele>141.49517822266</ele>
        <time>2009-04-18T14:31:32Z</time>
      </trkpt>
      <trkpt lat="45.18657" lon="4.79818">
        <ele>138.26988220215</ele>
        <time>2009-04-18T14:31:52Z</time>
      </trkpt>
      <trkpt lat="45.18656" lon="4.79915">
        <ele>136.04002380371</ele>
        <time>2009-04-18T14:32:02Z</time>
      </trkpt>
      <trkpt lat="45.1866" lon="4.79994">
        <ele>134.21829223633</ele>
        <time>2009-04-18T14:32:10Z</time>
      </trkpt>
      <trkpt lat="45.18659" lon="4.80093">
        <ele>133.7897644043</ele>
        <time>2009-04-18T14:32:20Z</time>
      </trkpt>
      <trkpt lat="45.18657" lon="4.80119">
        <ele>133.24432373047</ele>
        <time>2009-04-18T14:32:23Z</time>
      </trkpt>
      <trkpt lat="45.18649" lon="4.80149">
        <ele>132.76013183594</ele>
        <time>2009-04-18T14:32:26Z</time>
      </trkpt>
      <trkpt lat="45.18468" lon="4.8059">
        <ele>128.01190185547</ele>
        <time>2009-04-18T14:33:18Z</time>
      </trkpt>
      <trkpt lat="45.18379" lon="4.80825">
        <ele>128.95457458496</ele>
        <time>2009-04-18T14:33:45Z</time>
      </trkpt>
      <trkpt lat="45.1837" lon="4.80916">
        <ele>130.11001586914</ele>
        <time>2009-04-18T14:33:54Z</time>
      </trkpt>
      <trkpt lat="45.18373" lon="4.80991">
        <ele>131.82897949219</ele>
        <time>2009-04-18T14:34:02Z</time>
      </trkpt>
      <trkpt lat="45.18413" lon="4.81269">
        <ele>127.22773742676</ele>
        <time>2009-04-18T14:34:31Z</time>
      </trkpt>
      <trkpt lat="45.18425" lon="4.81345">
        <ele>129.53605651856</ele>
        <time>2009-04-18T14:34:39Z</time>
      </trkpt>
      <trkpt lat="45.18426" lon="4.81383">
        <ele>132.64961242676</ele>
        <time>2009-04-18T14:34:43Z</time>
      </trkpt>
      <trkpt lat="45.18416" lon="4.8139">
        <ele>132.75314331055</ele>
        <time>2009-04-18T14:34:44Z</time>
      </trkpt>
      <trkpt lat="45.18418" lon="4.81403">
        <ele>133.91438293457</ele>
        <time>2009-04-18T14:34:46Z</time>
      </trkpt>
      <trkpt lat="45.18096" lon="4.81492">
        <ele>139.38916015625</ele>
        <time>2009-04-18T14:35:33Z</time>
      </trkpt>
      <trkpt lat="45.18064" lon="4.81498">
        <ele>140.15316772461</ele>
        <time>2009-04-18T14:35:38Z</time>
      </trkpt>
      <trkpt lat="45.1805" lon="4.81478">
        <ele>139.50332641602</ele>
        <time>2009-04-18T14:35:41Z</time>
      </trkpt>
      <trkpt lat="45.18" lon="4.81444">
        <ele>138.31079101562</ele>
        <time>2009-04-18T14:35:49Z</time>
      </trkpt>
      <trkpt lat="45.17929" lon="4.81411">
        <ele>135.71917724609</ele>
        <time>2009-04-18T14:36:00Z</time>
      </trkpt>
      <trkpt lat="45.17878" lon="4.81398">
        <ele>133.47128295898</ele>
        <time>2009-04-18T14:36:07Z</time>
      </trkpt>
      <trkpt lat="45.17835" lon="4.81397">
        <ele>132.10256958008</ele>
        <time>2009-04-18T14:36:13Z</time>
      </trkpt>
      <trkpt lat="45.17809" lon="4.81404">
        <ele>132.14433288574</ele>
        <time>2009-04-18T14:36:17Z</time>
      </trkpt>
      <trkpt lat="45.1778" lon="4.81418">
        <ele>132.36029052734</ele>
        <time>2009-04-18T14:36:22Z</time>
      </trkpt>
      <trkpt lat="45.17738" lon="4.81447">
        <ele>131.50494384766</ele>
        <time>2009-04-18T14:36:28Z</time>
      </trkpt>
      <trkpt lat="45.17732" lon="4.81447">
        <ele>131.43840026856</ele>
        <time>2009-04-18T14:36:29Z</time>
      </trkpt>
      <trkpt lat="45.17728" lon="4.81454">
        <ele>131.3791809082</ele>
        <time>2009-04-18T14:36:30Z</time>
      </trkpt>
      <trkpt lat="45.17733" lon="4.81467">
        <ele>131.35760498047</ele>
        <time>2009-04-18T14:36:32Z</time>
      </trkpt>
      <trkpt lat="45.17713" lon="4.81543">
        <ele>130.92581176758</ele>
        <time>2009-04-18T14:36:40Z</time>
      </trkpt>
      <trkpt lat="45.17715" lon="4.81696">
        <ele>131.04261779785</ele>
        <time>2009-04-18T14:36:55Z</time>
      </trkpt>
      <trkpt lat="45.17711" lon="4.81746">
        <ele>131.4440612793</ele>
        <time>2009-04-18T14:37:01Z</time>
      </trkpt>
      <trkpt lat="45.17701" lon="4.81793">
        <ele>132.31721496582</ele>
        <time>2009-04-18T14:37:06Z</time>
      </trkpt>
      <trkpt lat="45.17674" lon="4.81889">
        <ele>132.38966369629</ele>
        <time>2009-04-18T14:37:16Z</time>
      </trkpt>
      <trkpt lat="45.17667" lon="4.81887">
        <ele>132.35855102539</ele>
        <time>2009-04-18T14:37:17Z</time>
      </trkpt>
      <trkpt lat="45.17659" lon="4.81897">
        <ele>132.23576354981</ele>
        <time>2009-04-18T14:37:19Z</time>
      </trkpt>
      <trkpt lat="45.1766" lon="4.81905">
        <ele>132.14019775391</ele>
        <time>2009-04-18T14:37:19Z</time>
      </trkpt>
      <trkpt lat="45.17666" lon="4.8191">
        <ele>132.08012390137</ele>
        <time>2009-04-18T14:37:20Z</time>
      </trkpt>
      <trkpt lat="45.17623" lon="4.81989">
        <ele>131.58537292481</ele>
        <time>2009-04-18T14:37:31Z</time>
      </trkpt>
      <trkpt lat="45.17597" lon="4.82058">
        <ele>131.95080566406</ele>
        <time>2009-04-18T14:37:39Z</time>
      </trkpt>
      <trkpt lat="45.17575" lon="4.82088">
        <ele>132.15341186523</ele>
        <time>2009-04-18T14:37:43Z</time>
      </trkpt>
      <trkpt lat="45.17531" lon="4.8213">
        <ele>133.40600585938</ele>
        <time>2009-04-18T14:37:51Z</time>
      </trkpt>
      <trkpt lat="45.17523" lon="4.82123">
        <ele>133.66787719727</ele>
        <time>2009-04-18T14:37:52Z</time>
      </trkpt>
      <trkpt lat="45.17512" lon="4.82123">
        <ele>134.04621887207</ele>
        <time>2009-04-18T14:37:54Z</time>
      </trkpt>
      <trkpt lat="45.17506" lon="4.82131">
        <ele>134.34465026856</ele>
        <time>2009-04-18T14:37:55Z</time>
      </trkpt>
      <trkpt lat="45.17504" lon="4.82143">
        <ele>134.54655456543</ele>
        <time>2009-04-18T14:37:56Z</time>
      </trkpt>
      <trkpt lat="45.17461" lon="4.82169">
        <ele>137.71136474609</ele>
        <time>2009-04-18T14:38:03Z</time>
      </trkpt>
      <trkpt lat="45.17457" lon="4.82179">
        <ele>137.58212280273</ele>
        <time>2009-04-18T14:38:04Z</time>
      </trkpt>
      <trkpt lat="45.17416" lon="4.82207">
        <ele>138.70256042481</ele>
        <time>2009-04-18T14:38:11Z</time>
      </trkpt>
      <trkpt lat="45.17353" lon="4.82261">
        <ele>148.16708374023</ele>
        <time>2009-04-18T14:38:21Z</time>
      </trkpt>
      <trkpt lat="45.17315" lon="4.82301">
        <ele>148.43363952637</ele>
        <time>2009-04-18T14:38:28Z</time>
      </trkpt>
      <trkpt lat="45.17292" lon="4.82344">
        <ele>148.32752990723</ele>
        <time>2009-04-18T14:38:34Z</time>
      </trkpt>
      <trkpt lat="45.1728" lon="4.82356">
        <ele>149.74607849121</ele>
        <time>2009-04-18T14:38:36Z</time>
      </trkpt>
      <trkpt lat="45.17279" lon="4.82374">
        <ele>147.71810913086</ele>
        <time>2009-04-18T14:38:38Z</time>
      </trkpt>
      <trkpt lat="45.17284" lon="4.82384">
        <ele>145.64506530762</ele>
        <time>2009-04-18T14:38:39Z</time>
      </trkpt>
      <trkpt lat="45.17308" lon="4.82403">
        <ele>140.07470703125</ele>
        <time>2009-04-18T14:38:43Z</time>
      </trkpt>
      <trkpt lat="45.17316" lon="4.82415">
        <ele>138.1784362793</ele>
        <time>2009-04-18T14:38:44Z</time>
      </trkpt>
      <trkpt lat="45.17339" lon="4.82472">
        <ele>137.96903991699</ele>
        <time>2009-04-18T14:38:51Z</time>
      </trkpt>
      <trkpt lat="45.17395" lon="4.82555">
        <ele>144.87252807617</ele>
        <time>2009-04-18T14:39:03Z</time>
      </trkpt>
      <trkpt lat="45.17418" lon="4.82602">
        <ele>144.58779907227</ele>
        <time>2009-04-18T14:39:09Z</time>
      </trkpt>
      <trkpt lat="45.17422" lon="4.82632">
        <ele>146.22636413574</ele>
        <time>2009-04-18T14:39:12Z</time>
      </trkpt>
      <trkpt lat="45.17418" lon="4.82688">
        <ele>145.39102172852</ele>
        <time>2009-04-18T14:39:18Z</time>
      </trkpt>
      <trkpt lat="45.17385" lon="4.82799">
        <ele>160.85568237305</ele>
        <time>2009-04-18T14:39:30Z</time>
      </trkpt>
      <trkpt lat="45.17365" lon="4.82883">
        <ele>170.20533752441</ele>
        <time>2009-04-18T14:39:39Z</time>
      </trkpt>
      <trkpt lat="45.17368" lon="4.82906">
        <ele>168.48759460449</ele>
        <time>2009-04-18T14:39:41Z</time>
      </trkpt>
      <trkpt lat="45.17379" lon="4.82929">
        <ele>165.08474731445</ele>
        <time>2009-04-18T14:39:44Z</time>
      </trkpt>
      <trkpt lat="45.17415" lon="4.82985">
        <ele>157.33462524414</ele>
        <time>2009-04-18T14:39:52Z</time>
      </trkpt>
      <trkpt lat="45.17463" lon="4.83014">
        <ele>160.79913330078</ele>
        <time>2009-04-18T14:39:59Z</time>
      </trkpt>
      <trkpt lat="45.17482" lon="4.83014">
        <ele>159.04504394531</ele>
        <time>2009-04-18T14:40:02Z</time>
      </trkpt>
      <trkpt lat="45.17563" lon="4.82996">
        <ele>154.15692138672</ele>
        <time>2009-04-18T14:40:14Z</time>
      </trkpt>
      <trkpt lat="45.17649" lon="4.82961">
        <ele>149.0262298584</ele>
        <time>2009-04-18T14:40:27Z</time>
      </trkpt>
      <trkpt lat="45.17668" lon="4.82963">
        <ele>149.15501403809</ele>
        <time>2009-04-18T14:40:30Z</time>
      </trkpt>
      <trkpt lat="45.17683" lon="4.82971">
        <ele>149.34980773926</ele>
        <time>2009-04-18T14:40:32Z</time>
      </trkpt>
      <trkpt lat="45.1769" lon="4.82981">
        <ele>149.83638000488</ele>
        <time>2009-04-18T14:40:33Z</time>
      </trkpt>
      <trkpt lat="45.177" lon="4.83018">
        <ele>153.04708862305</ele>
        <time>2009-04-18T14:40:37Z</time>
      </trkpt>
      <trkpt lat="45.17715" lon="4.83144">
        <ele>166.00334167481</ele>
        <time>2009-04-18T14:40:50Z</time>
      </trkpt>
      <trkpt lat="45.17779" lon="4.83321">
        <ele>164.56350708008</ele>
        <time>2009-04-18T14:41:11Z</time>
      </trkpt>
      <trkpt lat="45.17799" lon="4.83345">
        <ele>162.68675231934</ele>
        <time>2009-04-18T14:41:15Z</time>
      </trkpt>
      <trkpt lat="45.17833" lon="4.83349">
        <ele>153.30836486816</ele>
        <time>2009-04-18T14:41:19Z</time>
      </trkpt>
      <trkpt lat="45.17867" lon="4.83345">
        <ele>152.32043457031</ele>
        <time>2009-04-18T14:41:24Z</time>
      </trkpt>
      <trkpt lat="45.17956" lon="4.833">
        <ele>151.81292724609</ele>
        <time>2009-04-18T14:41:38Z</time>
      </trkpt>
      <trkpt lat="45.17983" lon="4.83301">
        <ele>154.13926696777</ele>
        <time>2009-04-18T14:41:42Z</time>
      </trkpt>
      <trkpt lat="45.18004" lon="4.83319">
        <ele>156.37818908691</ele>
        <time>2009-04-18T14:41:45Z</time>
      </trkpt>
      <trkpt lat="45.18041" lon="4.83364">
        <ele>163.27734375</ele>
        <time>2009-04-18T14:41:53Z</time>
      </trkpt>
      <trkpt lat="45.18102" lon="4.83458">
        <ele>165.10537719727</ele>
        <time>2009-04-18T14:42:06Z</time>
      </trkpt>
      <trkpt lat="45.18104" lon="4.83473">
        <ele>166.11047363281</ele>
        <time>2009-04-18T14:42:07Z</time>
      </trkpt>
      <trkpt lat="45.18096" lon="4.83496">
        <ele>165.6551361084</ele>
        <time>2009-04-18T14:42:10Z</time>
      </trkpt>
      <trkpt lat="45.18021" lon="4.83573">
        <ele>175.98083496094</ele>
        <time>2009-04-18T14:42:23Z</time>
      </trkpt>
      <trkpt lat="45.1797" lon="4.83665">
        <ele>173.16047668457</ele>
        <time>2009-04-18T14:42:35Z</time>
      </trkpt>
      <trkpt lat="45.17929" lon="4.83799">
        <ele>172.86903381348</ele>
        <time>2009-04-18T14:42:50Z</time>
      </trkpt>
      <trkpt lat="45.179" lon="4.83933">
        <ele>178.57270812988</ele>
        <time>2009-04-18T14:43:04Z</time>
      </trkpt>
      <trkpt lat="45.17894" lon="4.8421">
        <ele>177.20353698731</ele>
        <time>2009-04-18T14:43:32Z</time>
      </trkpt>
      <trkpt lat="45.17867" lon="4.84284">
        <ele>182.9580078125</ele>
        <time>2009-04-18T14:43:41Z</time>
      </trkpt>
      <trkpt lat="45.17863" lon="4.84311">
        <ele>183.11433410644</ele>
        <time>2009-04-18T14:43:44Z</time>
      </trkpt>
      <trkpt lat="45.17862" lon="4.84396">
        <ele>182.388671875</ele>
        <time>2009-04-18T14:43:52Z</time>
      </trkpt>
      <trkpt lat="45.17871" lon="4.84467">
        <ele>180.24647521973</ele>
        <time>2009-04-18T14:44:00Z</time>
      </trkpt>
      <trkpt lat="45.17912" lon="4.84584">
        <ele>172.59309387207</ele>
        <time>2009-04-18T14:44:13Z</time>
      </trkpt>
      <trkpt lat="45.17967" lon="4.84719">
        <ele>185.14263916016</ele>
        <time>2009-04-18T14:44:29Z</time>
      </trkpt>
      <trkpt lat="45.17975" lon="4.84751">
        <ele>184.91215515137</ele>
        <time>2009-04-18T14:44:32Z</time>
      </trkpt>
      <trkpt lat="45.17979" lon="4.84822">
        <ele>185.87864685059</ele>
        <time>2009-04-18T14:44:40Z</time>
      </trkpt>
      <trkpt lat="45.17973" lon="4.84936">
        <ele>189.59501647949</ele>
        <time>2009-04-18T14:44:51Z</time>
      </trkpt>
      <trkpt lat="45.18108" lon="4.851">
        <ele>176.23695373535</ele>
        <time>2009-04-18T14:45:17Z</time>
      </trkpt>
      <trkpt lat="45.18173" lon="4.85145">
        <ele>179.55453491211</ele>
        <time>2009-04-18T14:45:27Z</time>
      </trkpt>
      <trkpt lat="45.18206" lon="4.85182">
        <ele>176.95823669434</ele>
        <time>2009-04-18T14:45:34Z</time>
      </trkpt>
      <trkpt lat="45.18222" lon="4.85211">
        <ele>175.71159362793</ele>
        <time>2009-04-18T14:45:37Z</time>
      </trkpt>
      <trkpt lat="45.18228" lon="4.85235">
        <ele>173.42317199707</ele>
        <time>2009-04-18T14:45:40Z</time>
      </trkpt>
      <trkpt lat="45.18229" lon="4.85292">
        <ele>171.74079895019</ele>
        <time>2009-04-18T14:45:46Z</time>
      </trkpt>
      <trkpt lat="45.1824" lon="4.85404">
        <ele>171.88832092285</ele>
        <time>2009-04-18T14:45:57Z</time>
      </trkpt>
      <trkpt lat="45.18253" lon="4.85464">
        <ele>171.43733215332</ele>
        <time>2009-04-18T14:46:04Z</time>
      </trkpt>
      <trkpt lat="45.18266" lon="4.85496">
        <ele>170.90805053711</ele>
        <time>2009-04-18T14:46:07Z</time>
      </trkpt>
      <trkpt lat="45.18331" lon="4.85583">
        <ele>172.9249420166</ele>
        <time>2009-04-18T14:46:20Z</time>
      </trkpt>
      <trkpt lat="45.18342" lon="4.85608">
        <ele>173.44929504394</ele>
        <time>2009-04-18T14:46:23Z</time>
      </trkpt>
      <trkpt lat="45.18351" lon="4.85643">
        <ele>173.75564575195</ele>
        <time>2009-04-18T14:46:27Z</time>
      </trkpt>
      <trkpt lat="45.18353" lon="4.85675">
        <ele>173.60403442383</ele>
        <time>2009-04-18T14:46:30Z</time>
      </trkpt>
      <trkpt lat="45.18387" lon="4.8588">
        <ele>174.4416809082</ele>
        <time>2009-04-18T14:46:52Z</time>
      </trkpt>
      <trkpt lat="45.1839" lon="4.85968">
        <ele>175.19387817383</ele>
        <time>2009-04-18T14:47:01Z</time>
      </trkpt>
      <trkpt lat="45.18392" lon="4.8612">
        <ele>177.11853027344</ele>
        <time>2009-04-18T14:47:16Z</time>
      </trkpt>
      <trkpt lat="45.18397" lon="4.86188">
        <ele>177.373046875</ele>
        <time>2009-04-18T14:47:23Z</time>
      </trkpt>
      <trkpt lat="45.18418" lon="4.86278">
        <ele>178.75117492676</ele>
        <time>2009-04-18T14:47:33Z</time>
      </trkpt>
      <trkpt lat="45.18466" lon="4.86379">
        <ele>180.09748840332</ele>
        <time>2009-04-18T14:47:45Z</time>
      </trkpt>
      <trkpt lat="45.18478" lon="4.86471">
        <ele>180.73226928711</ele>
        <time>2009-04-18T14:47:55Z</time>
      </trkpt>
      <trkpt lat="45.18479" lon="4.86569">
        <ele>181.66348266602</ele>
        <time>2009-04-18T14:48:05Z</time>
      </trkpt>
      <trkpt lat="45.18476" lon="4.86618">
        <ele>180.26036071777</ele>
        <time>2009-04-18T14:48:10Z</time>
      </trkpt>
      <trkpt lat="45.18453" lon="4.86912">
        <ele>183.36782836914</ele>
        <time>2009-04-18T14:48:40Z</time>
      </trkpt>
      <trkpt lat="45.18445" lon="4.8695">
        <ele>184.44458007812</ele>
        <time>2009-04-18T14:48:44Z</time>
      </trkpt>
      <trkpt lat="45.1836" lon="4.87211">
        <ele>185.50093078613</ele>
        <time>2009-04-18T14:49:13Z</time>
      </trkpt>
      <trkpt lat="45.18356" lon="4.87233">
        <ele>185.73294067383</ele>
        <time>2009-04-18T14:49:16Z</time>
      </trkpt>
      <trkpt lat="45.18355" lon="4.87344">
        <ele>188.84967041016</ele>
        <time>2009-04-18T14:49:27Z</time>
      </trkpt>
      <trkpt lat="45.18368" lon="4.87803">
        <ele>186.55767822266</ele>
        <time>2009-04-18T14:50:14Z</time>
      </trkpt>
      <trkpt lat="45.18357" lon="4.87906">
        <ele>186.35206604004</ele>
        <time>2009-04-18T14:50:24Z</time>
      </trkpt>
      <trkpt lat="45.18337" lon="4.8799">
        <ele>188.80665588379</ele>
        <time>2009-04-18T14:50:33Z</time>
      </trkpt>
      <trkpt lat="45.18312" lon="4.88135">
        <ele>191.20455932617</ele>
        <time>2009-04-18T14:50:49Z</time>
      </trkpt>
      <trkpt lat="45.18308" lon="4.88199">
        <ele>192.70960998535</ele>
        <time>2009-04-18T14:50:55Z</time>
      </trkpt>
      <trkpt lat="45.18312" lon="4.88537">
        <ele>187.16741943359</ele>
        <time>2009-04-18T14:51:30Z</time>
      </trkpt>
      <trkpt lat="45.1832" lon="4.88579">
        <ele>187.10646057129</ele>
        <time>2009-04-18T14:51:34Z</time>
      </trkpt>
      <trkpt lat="45.18337" lon="4.88617">
        <ele>186.66505432129</ele>
        <time>2009-04-18T14:51:39Z</time>
      </trkpt>
      <trkpt lat="45.18385" lon="4.887">
        <ele>189.13430786133</ele>
        <time>2009-04-18T14:51:50Z</time>
      </trkpt>
      <trkpt lat="45.1842" lon="4.88753">
        <ele>190.26179504394</ele>
        <time>2009-04-18T14:51:57Z</time>
      </trkpt>
      <trkpt lat="45.18486" lon="4.88831">
        <ele>192.67744445801</ele>
        <time>2009-04-18T14:52:09Z</time>
      </trkpt>
      <trkpt lat="45.18547" lon="4.88896">
        <ele>193.91232299805</ele>
        <time>2009-04-18T14:52:20Z</time>
      </trkpt>
      <trkpt lat="45.18576" lon="4.88921">
        <ele>194.68296813965</ele>
        <time>2009-04-18T14:52:25Z</time>
      </trkpt>
      <trkpt lat="45.18642" lon="4.88999">
        <ele>196.25131225586</ele>
        <time>2009-04-18T14:52:38Z</time>
      </trkpt>
      <trkpt lat="45.18732" lon="4.8909">
        <ele>200.46473693848</ele>
        <time>2009-04-18T14:52:54Z</time>
      </trkpt>
      <trkpt lat="45.18766" lon="4.89119">
        <ele>199.1946105957</ele>
        <time>2009-04-18T14:52:59Z</time>
      </trkpt>
      <trkpt lat="45.18828" lon="4.89156">
        <ele>196.53009033203</ele>
        <time>2009-04-18T14:53:09Z</time>
      </trkpt>
      <trkpt lat="45.19018" lon="4.89344">
        <ele>199.94778442383</ele>
        <time>2009-04-18T14:53:43Z</time>
      </trkpt>
      <trkpt lat="45.19112" lon="4.89518">
        <ele>201.82298278809</ele>
        <time>2009-04-18T14:54:05Z</time>
      </trkpt>
      <trkpt lat="45.19247" lon="4.897">
        <ele>204.55322265625</ele>
        <time>2009-04-18T14:54:32Z</time>
      </trkpt>
      <trkpt lat="45.19325" lon="4.89842">
        <ele>208.19883728027</ele>
        <time>2009-04-18T14:54:50Z</time>
      </trkpt>
      <trkpt lat="45.19509" lon="4.90198">
        <ele>208.86097717285</ele>
        <time>2009-04-18T14:55:35Z</time>
      </trkpt>
      <trkpt lat="45.19519" lon="4.90223">
        <ele>207.02322387695</ele>
        <time>2009-04-18T14:55:38Z</time>
      </trkpt>
      <trkpt lat="45.19611" lon="4.9056">
        <ele>200.88673400879</ele>
        <time>2009-04-18T14:56:15Z</time>
      </trkpt>
      <trkpt lat="45.19644" lon="4.90662">
        <ele>202.17483520508</ele>
        <time>2009-04-18T14:56:26Z</time>
      </trkpt>
      <trkpt lat="45.1964" lon="4.9068">
        <ele>202.09005737305</ele>
        <time>2009-04-18T14:56:28Z</time>
      </trkpt>
      <trkpt lat="45.19646" lon="4.90696">
        <ele>202.34559631348</ele>
        <time>2009-04-18T14:56:30Z</time>
      </trkpt>
      <trkpt lat="45.19497" lon="4.90961">
        <ele>198.57109069824</ele>
        <time>2009-04-18T14:57:05Z</time>
      </trkpt>
      <trkpt lat="45.19489" lon="4.90998">
        <ele>199.23556518555</ele>
        <time>2009-04-18T14:57:09Z</time>
      </trkpt>
      <trkpt lat="45.19486" lon="4.91046">
        <ele>200.53715515137</ele>
        <time>2009-04-18T14:57:14Z</time>
      </trkpt>
      <trkpt lat="45.19482" lon="4.91231">
        <ele>203.09820556641</ele>
        <time>2009-04-18T14:57:32Z</time>
      </trkpt>
      <trkpt lat="45.19471" lon="4.91321">
        <ele>203.89006042481</ele>
        <time>2009-04-18T14:57:42Z</time>
      </trkpt>
      <trkpt lat="45.19445" lon="4.91455">
        <ele>210.30928039551</ele>
        <time>2009-04-18T14:57:56Z</time>
      </trkpt>
      <trkpt lat="45.19465" lon="4.91511">
        <ele>211.62187194824</ele>
        <time>2009-04-18T14:58:02Z</time>
      </trkpt>
      <trkpt lat="45.19484" lon="4.91586">
        <ele>215.03221130371</ele>
        <time>2009-04-18T14:58:10Z</time>
      </trkpt>
      <trkpt lat="45.19503" lon="4.91686">
        <ele>215.66752624512</ele>
        <time>2009-04-18T14:58:21Z</time>
      </trkpt>
      <trkpt lat="45.19505" lon="4.91721">
        <ele>215.20901489258</ele>
        <time>2009-04-18T14:58:25Z</time>
      </trkpt>
      <trkpt lat="45.19435" lon="4.91917">
        <ele>213.67509460449</ele>
        <time>2009-04-18T14:58:47Z</time>
      </trkpt>
      <trkpt lat="45.19388" lon="4.91989">
        <ele>215.04853820801</ele>
        <time>2009-04-18T14:58:57Z</time>
      </trkpt>
      <trkpt lat="45.19356" lon="4.9202">
        <ele>215.09310913086</ele>
        <time>2009-04-18T14:59:03Z</time>
      </trkpt>
      <trkpt lat="45.18996" lon="4.92213">
        <ele>219.08589172363</ele>
        <time>2009-04-18T14:59:58Z</time>
      </trkpt>
      <trkpt lat="45.18749" lon="4.92378">
        <ele>218.00538635254</ele>
        <time>2009-04-18T15:00:38Z</time>
      </trkpt>
      <trkpt lat="45.18718" lon="4.92413">
        <ele>217.6662902832</ele>
        <time>2009-04-18T15:00:43Z</time>
      </trkpt>
      <trkpt lat="45.18622" lon="4.92441">
        <ele>217.15618896484</ele>
        <time>2009-04-18T15:00:58Z</time>
      </trkpt>
      <trkpt lat="45.18589" lon="4.92444">
        <ele>217.31358337402</ele>
        <time>2009-04-18T15:01:02Z</time>
      </trkpt>
      <trkpt lat="45.18499" lon="4.9244">
        <ele>215.88070678711</ele>
        <time>2009-04-18T15:01:15Z</time>
      </trkpt>
      <trkpt lat="45.18362" lon="4.92426">
        <ele>216.4778137207</ele>
        <time>2009-04-18T15:01:35Z</time>
      </trkpt>
      <trkpt lat="45.18315" lon="4.92412">
        <ele>216.58097839356</ele>
        <time>2009-04-18T15:01:42Z</time>
      </trkpt>
      <trkpt lat="45.1827" lon="4.9239">
        <ele>216.24604797363</ele>
        <time>2009-04-18T15:01:49Z</time>
      </trkpt>
      <trkpt lat="45.18273" lon="4.92465">
        <ele>213.18957519531</ele>
        <time>2009-04-18T15:01:57Z</time>
      </trkpt>
      <trkpt lat="45.18268" lon="4.92484">
        <ele>212.50727844238</ele>
        <time>2009-04-18T15:01:59Z</time>
      </trkpt>
      <trkpt lat="45.18256" lon="4.925">
        <ele>211.99978637695</ele>
        <time>2009-04-18T15:02:01Z</time>
      </trkpt>
      <trkpt lat="45.18159" lon="4.92448">
        <ele>214.23551940918</ele>
        <time>2009-04-18T15:02:16Z</time>
      </trkpt>
      <trkpt lat="45.1815" lon="4.92434">
        <ele>214.49163818359</ele>
        <time>2009-04-18T15:02:18Z</time>
      </trkpt>
      <trkpt lat="45.18149" lon="4.92421">
        <ele>214.98532104492</ele>
        <time>2009-04-18T15:02:19Z</time>
      </trkpt>
      <trkpt lat="45.1803" lon="4.92487">
        <ele>210.95695495606</ele>
        <time>2009-04-18T15:02:38Z</time>
      </trkpt>
      <trkpt lat="45.17977" lon="4.9251">
        <ele>211.11981201172</ele>
        <time>2009-04-18T15:02:46Z</time>
      </trkpt>
      <trkpt lat="45.17959" lon="4.92536">
        <ele>211.43225097656</ele>
        <time>2009-04-18T15:02:50Z</time>
      </trkpt>
      <trkpt lat="45.17913" lon="4.92567">
        <ele>212.0641784668</ele>
        <time>2009-04-18T15:02:57Z</time>
      </trkpt>
      <trkpt lat="45.17813" lon="4.92602">
        <ele>218.8553314209</ele>
        <time>2009-04-18T15:03:12Z</time>
      </trkpt>
      <trkpt lat="45.17786" lon="4.92648">
        <ele>220.37577819824</ele>
        <time>2009-04-18T15:03:18Z</time>
      </trkpt>
      <trkpt lat="45.17781" lon="4.92683">
        <ele>221.7686920166</ele>
        <time>2009-04-18T15:03:22Z</time>
      </trkpt>
      <trkpt lat="45.17724" lon="4.92649">
        <ele>221.64646911621</ele>
        <time>2009-04-18T15:03:31Z</time>
      </trkpt>
      <trkpt lat="45.17694" lon="4.92674">
        <ele>221.72308349609</ele>
        <time>2009-04-18T15:03:36Z</time>
      </trkpt>
      <trkpt lat="45.17673" lon="4.92704">
        <ele>224.19577026367</ele>
        <time>2009-04-18T15:03:40Z</time>
      </trkpt>
      <trkpt lat="45.17611" lon="4.92757">
        <ele>224.18075561523</ele>
        <time>2009-04-18T15:03:50Z</time>
      </trkpt>
      <trkpt lat="45.1748" lon="4.92857">
        <ele>220.85064697266</ele>
        <time>2009-04-18T15:04:12Z</time>
      </trkpt>
      <trkpt lat="45.17366" lon="4.92937">
        <ele>220.39213562012</ele>
        <time>2009-04-18T15:04:30Z</time>
      </trkpt>
      <trkpt lat="45.17342" lon="4.92948">
        <ele>220.71308898926</ele>
        <time>2009-04-18T15:04:34Z</time>
      </trkpt>
      <trkpt lat="45.17181" lon="4.92995">
        <ele>223.97611999512</ele>
        <time>2009-04-18T15:04:58Z</time>
      </trkpt>
      <trkpt lat="45.16927" lon="4.93057">
        <ele>231.44667053223</ele>
        <time>2009-04-18T15:05:35Z</time>
      </trkpt>
      <trkpt lat="45.16723" lon="4.93086">
        <ele>237.48916625977</ele>
        <time>2009-04-18T15:06:05Z</time>
      </trkpt>
      <trkpt lat="45.16608" lon="4.93114">
        <ele>242.93629455566</ele>
        <time>2009-04-18T15:06:21Z</time>
      </trkpt>
      <trkpt lat="45.16557" lon="4.93119">
        <ele>245.73526000977</ele>
        <time>2009-04-18T15:06:29Z</time>
      </trkpt>
      <trkpt lat="45.16485" lon="4.93114">
        <ele>248.32377624512</ele>
        <time>2009-04-18T15:06:39Z</time>
      </trkpt>
      <trkpt lat="45.16437" lon="4.93119">
        <ele>247.23902893066</ele>
        <time>2009-04-18T15:06:46Z</time>
      </trkpt>
      <trkpt lat="45.16292" lon="4.93175">
        <ele>247.00646972656</ele>
        <time>2009-04-18T15:07:08Z</time>
      </trkpt>
      <trkpt lat="45.16268" lon="4.9318">
        <ele>246.9270324707</ele>
        <time>2009-04-18T15:07:11Z</time>
      </trkpt>
      <trkpt lat="45.16182" lon="4.93181">
        <ele>248.04010009766</ele>
        <time>2009-04-18T15:07:24Z</time>
      </trkpt>
      <trkpt lat="45.16024" lon="4.93194">
        <ele>245.83865356445</ele>
        <time>2009-04-18T15:07:47Z</time>
      </trkpt>
      <trkpt lat="45.15702" lon="4.93168">
        <ele>251.80961608887</ele>
        <time>2009-04-18T15:08:33Z</time>
      </trkpt>
      <trkpt lat="45.15653" lon="4.93152">
        <ele>253.51649475098</ele>
        <time>2009-04-18T15:08:41Z</time>
      </trkpt>
      <trkpt lat="45.15426" lon="4.93031">
        <ele>264.99197387695</ele>
        <time>2009-04-18T15:09:16Z</time>
      </trkpt>
      <trkpt lat="45.15396" lon="4.93025">
        <ele>264.01281738281</ele>
        <time>2009-04-18T15:09:20Z</time>
      </trkpt>
      <trkpt lat="45.14901" lon="4.93114">
        <ele>251.85491943359</ele>
        <time>2009-04-18T15:10:32Z</time>
      </trkpt>
      <trkpt lat="45.14801" lon="4.93161">
        <ele>252.51812744141</ele>
        <time>2009-04-18T15:10:47Z</time>
      </trkpt>
      <trkpt lat="45.14688" lon="4.93231">
        <ele>253.94161987305</ele>
        <time>2009-04-18T15:11:05Z</time>
      </trkpt>
      <trkpt lat="45.14651" lon="4.93259">
        <ele>253.65589904785</ele>
        <time>2009-04-18T15:11:11Z</time>
      </trkpt>
      <trkpt lat="45.14317" lon="4.93626">
        <ele>258.61468505859</ele>
        <time>2009-04-18T15:12:12Z</time>
      </trkpt>
      <trkpt lat="45.14219" lon="4.93712">
        <ele>263.86645507812</ele>
        <time>2009-04-18T15:12:29Z</time>
      </trkpt>
      <trkpt lat="45.14189" lon="4.93744">
        <ele>265.79614257812</ele>
        <time>2009-04-18T15:12:34Z</time>
      </trkpt>
      <trkpt lat="45.1418" lon="4.9375">
        <ele>266.3603515625</ele>
        <time>2009-04-18T15:12:36Z</time>
      </trkpt>
      <trkpt lat="45.14172" lon="4.93749">
        <ele>266.72161865234</ele>
        <time>2009-04-18T15:12:37Z</time>
      </trkpt>
      <trkpt lat="45.14121" lon="4.9386">
        <ele>276.11346435547</ele>
        <time>2009-04-18T15:12:51Z</time>
      </trkpt>
      <trkpt lat="45.13979" lon="4.94188">
        <ele>286.83850097656</ele>
        <time>2009-04-18T15:13:30Z</time>
      </trkpt>
      <trkpt lat="45.13945" lon="4.94238">
        <ele>288.12127685547</ele>
        <time>2009-04-18T15:13:37Z</time>
      </trkpt>
      <trkpt lat="45.13868" lon="4.94328">
        <ele>286.21734619141</ele>
        <time>2009-04-18T15:13:51Z</time>
      </trkpt>
      <trkpt lat="45.13851" lon="4.94355">
        <ele>285.06518554688</ele>
        <time>2009-04-18T15:13:55Z</time>
      </trkpt>
      <trkpt lat="45.13742" lon="4.94634">
        <ele>286.07733154297</ele>
        <time>2009-04-18T15:14:28Z</time>
      </trkpt>
      <trkpt lat="45.13726" lon="4.94659">
        <ele>286.72277832031</ele>
        <time>2009-04-18T15:14:31Z</time>
      </trkpt>
      <trkpt lat="45.13614" lon="4.94784">
        <ele>291.98333740234</ele>
        <time>2009-04-18T15:14:52Z</time>
      </trkpt>
      <trkpt lat="45.13531" lon="4.94815">
        <ele>289.20193481445</ele>
        <time>2009-04-18T15:15:04Z</time>
      </trkpt>
      <trkpt lat="45.13422" lon="4.94822">
        <ele>282.62191772461</ele>
        <time>2009-04-18T15:15:20Z</time>
      </trkpt>
      <trkpt lat="45.13351" lon="4.94854">
        <ele>281.28277587891</ele>
        <time>2009-04-18T15:15:31Z</time>
      </trkpt>
      <trkpt lat="45.13321" lon="4.9488">
        <ele>279.92761230469</ele>
        <time>2009-04-18T15:15:36Z</time>
      </trkpt>
      <trkpt lat="45.13312" lon="4.94899">
        <ele>279.39559936523</ele>
        <time>2009-04-18T15:15:38Z</time>
      </trkpt>
      <trkpt lat="45.13308" lon="4.94921">
        <ele>278.98190307617</ele>
        <time>2009-04-18T15:15:40Z</time>
      </trkpt>
      <trkpt lat="45.13307" lon="4.94986">
        <ele>277.39459228516</ele>
        <time>2009-04-18T15:15:47Z</time>
      </trkpt>
      <trkpt lat="45.13286" lon="4.95036">
        <ele>273.63858032227</ele>
        <time>2009-04-18T15:15:53Z</time>
      </trkpt>
      <trkpt lat="45.13267" lon="4.95058">
        <ele>271.03015136719</ele>
        <time>2009-04-18T15:15:56Z</time>
      </trkpt>
      <trkpt lat="45.13209" lon="4.95094">
        <ele>268.1735534668</ele>
        <time>2009-04-18T15:16:06Z</time>
      </trkpt>
      <trkpt lat="45.13184" lon="4.95124">
        <ele>267.14413452148</ele>
        <time>2009-04-18T15:16:10Z</time>
      </trkpt>
      <trkpt lat="45.13168" lon="4.95174">
        <ele>264.85540771484</ele>
        <time>2009-04-18T15:16:16Z</time>
      </trkpt>
      <trkpt lat="45.13142" lon="4.95328">
        <ele>261.95764160156</ele>
        <time>2009-04-18T15:16:32Z</time>
      </trkpt>
      <trkpt lat="45.13137" lon="4.95347">
        <ele>262.76205444336</ele>
        <time>2009-04-18T15:16:34Z</time>
      </trkpt>
      <trkpt lat="45.13124" lon="4.95369">
        <ele>263.80102539062</ele>
        <time>2009-04-18T15:16:37Z</time>
      </trkpt>
      <trkpt lat="45.13096" lon="4.95398">
        <ele>262.97564697266</ele>
        <time>2009-04-18T15:16:42Z</time>
      </trkpt>
      <trkpt lat="45.13063" lon="4.9542">
        <ele>261.279296875</ele>
        <time>2009-04-18T15:16:47Z</time>
      </trkpt>
      <trkpt lat="45.12837" lon="4.95536">
        <ele>268.64175415039</ele>
        <time>2009-04-18T15:17:22Z</time>
      </trkpt>
      <trkpt lat="45.12706" lon="4.95674">
        <ele>269.86315917969</ele>
        <time>2009-04-18T15:17:46Z</time>
      </trkpt>
      <trkpt lat="45.1269" lon="4.95687">
        <ele>268.53109741211</ele>
        <time>2009-04-18T15:17:48Z</time>
      </trkpt>
      <trkpt lat="45.12635" lon="4.95716">
        <ele>264.24331665039</ele>
        <time>2009-04-18T15:17:57Z</time>
      </trkpt>
      <trkpt lat="45.12614" lon="4.95734">
        <ele>261.81527709961</ele>
        <time>2009-04-18T15:18:00Z</time>
      </trkpt>
      <trkpt lat="45.12562" lon="4.95827">
        <ele>255.1364440918</ele>
        <time>2009-04-18T15:18:12Z</time>
      </trkpt>
      <trkpt lat="45.12423" lon="4.96147">
        <ele>245.71446228027</ele>
        <time>2009-04-18T15:18:51Z</time>
      </trkpt>
      <trkpt lat="45.12375" lon="4.9624">
        <ele>242.97392272949</ele>
        <time>2009-04-18T15:19:03Z</time>
      </trkpt>
      <trkpt lat="45.12343" lon="4.96277">
        <ele>240.82864379883</ele>
        <time>2009-04-18T15:19:09Z</time>
      </trkpt>
      <trkpt lat="45.12273" lon="4.96327">
        <ele>235.93202209473</ele>
        <time>2009-04-18T15:19:20Z</time>
      </trkpt>
      <trkpt lat="45.12071" lon="4.96418">
        <ele>218.39105224609</ele>
        <time>2009-04-18T15:19:50Z</time>
      </trkpt>
      <trkpt lat="45.12019" lon="4.96476">
        <ele>213.71124267578</ele>
        <time>2009-04-18T15:20:00Z</time>
      </trkpt>
      <trkpt lat="45.11981" lon="4.9649">
        <ele>210.55926513672</ele>
        <time>2009-04-18T15:20:06Z</time>
      </trkpt>
      <trkpt lat="45.11946" lon="4.9651">
        <ele>208.01861572266</ele>
        <time>2009-04-18T15:20:11Z</time>
      </trkpt>
      <trkpt lat="45.11917" lon="4.96549">
        <ele>204.67645263672</ele>
        <time>2009-04-18T15:20:17Z</time>
      </trkpt>
      <trkpt lat="45.11826" lon="4.96741">
        <ele>197.20629882812</ele>
        <time>2009-04-18T15:20:41Z</time>
      </trkpt>
      <trkpt lat="45.11751" lon="4.96826">
        <ele>195.12803649902</ele>
        <time>2009-04-18T15:20:54Z</time>
      </trkpt>
      <trkpt lat="45.11742" lon="4.96817">
        <ele>195.27281188965</ele>
        <time>2009-04-18T15:20:56Z</time>
      </trkpt>
      <trkpt lat="45.11727" lon="4.96824">
        <ele>195.35575866699</ele>
        <time>2009-04-18T15:20:58Z</time>
      </trkpt>
      <trkpt lat="45.11723" lon="4.96835">
        <ele>195.34509277344</ele>
        <time>2009-04-18T15:21:00Z</time>
      </trkpt>
      <trkpt lat="45.11726" lon="4.96853">
        <ele>195.55635070801</ele>
        <time>2009-04-18T15:21:01Z</time>
      </trkpt>
      <trkpt lat="45.11738" lon="4.96862">
        <ele>195.68299865723</ele>
        <time>2009-04-18T15:21:03Z</time>
      </trkpt>
      <trkpt lat="45.1175" lon="4.96856">
        <ele>195.54531860352</ele>
        <time>2009-04-18T15:21:05Z</time>
      </trkpt>
      <trkpt lat="45.11768" lon="4.96888">
        <ele>196.53469848633</ele>
        <time>2009-04-18T15:21:09Z</time>
      </trkpt>
      <trkpt lat="45.11888" lon="4.97052">
        <ele>197.94848632812</ele>
        <time>2009-04-18T15:21:34Z</time>
      </trkpt>
      <trkpt lat="45.11882" lon="4.97064">
        <ele>197.59297180176</ele>
        <time>2009-04-18T15:21:35Z</time>
      </trkpt>
      <trkpt lat="45.1189" lon="4.97077">
        <ele>197.48553466797</ele>
        <time>2009-04-18T15:21:37Z</time>
      </trkpt>
      <trkpt lat="45.11882" lon="4.97105">
        <ele>197.06047058106</ele>
        <time>2009-04-18T15:21:40Z</time>
      </trkpt>
      <trkpt lat="45.11882" lon="4.97155">
        <ele>196.81089782715</ele>
        <time>2009-04-18T15:21:45Z</time>
      </trkpt>
      <trkpt lat="45.11926" lon="4.97458">
        <ele>196.27616882324</ele>
        <time>2009-04-18T15:22:17Z</time>
      </trkpt>
      <trkpt lat="45.11914" lon="4.97463">
        <ele>196</ele>
        <time>2009-04-18T15:22:18Z</time>
      </trkpt>
      <trkpt lat="45.11901" lon="4.97481">
        <ele>196</ele>
        <time>2009-04-18T15:22:21Z</time>
      </trkpt>
      <trkpt lat="45.11895" lon="4.97507">
        <ele>195.93785095215</ele>
        <time>2009-04-18T15:22:24Z</time>
      </trkpt>
      <trkpt lat="45.11897" lon="4.97524">
        <ele>195.78012084961</ele>
        <time>2009-04-18T15:22:26Z</time>
      </trkpt>
      <trkpt lat="45.11912" lon="4.97552">
        <ele>195.40963745117</ele>
        <time>2009-04-18T15:22:29Z</time>
      </trkpt>
      <trkpt lat="45.11924" lon="4.97559">
        <ele>195.67935180664</ele>
        <time>2009-04-18T15:22:31Z</time>
      </trkpt>
      <trkpt lat="45.11939" lon="4.97559">
        <ele>196.46783447266</ele>
        <time>2009-04-18T15:22:33Z</time>
      </trkpt>
      <trkpt lat="45.11962" lon="4.97643">
        <ele>196.62117004394</ele>
        <time>2009-04-18T15:22:42Z</time>
      </trkpt>
      <trkpt lat="45.1203" lon="4.9798">
        <ele>201.32762145996</ele>
        <time>2009-04-18T15:23:18Z</time>
      </trkpt>
      <trkpt lat="45.12057" lon="4.98069">
        <ele>203.45924377441</ele>
        <time>2009-04-18T15:23:28Z</time>
      </trkpt>
      <trkpt lat="45.12068" lon="4.98188">
        <ele>205.87905883789</ele>
        <time>2009-04-18T15:23:40Z</time>
      </trkpt>
      <trkpt lat="45.12068" lon="4.98288">
        <ele>204.46089172363</ele>
        <time>2009-04-18T15:23:50Z</time>
      </trkpt>
      <trkpt lat="45.12045" lon="4.98371">
        <ele>204.44242858887</ele>
        <time>2009-04-18T15:24:00Z</time>
      </trkpt>
      <trkpt lat="45.12031" lon="4.98383">
        <ele>204.56602478027</ele>
        <time>2009-04-18T15:24:02Z</time>
      </trkpt>
      <trkpt lat="45.12024" lon="4.98397">
        <ele>204.81550598144</ele>
        <time>2009-04-18T15:24:04Z</time>
      </trkpt>
      <trkpt lat="45.12026" lon="4.98427">
        <ele>205.30999755859</ele>
        <time>2009-04-18T15:24:07Z</time>
      </trkpt>
      <trkpt lat="45.12019" lon="4.98482">
        <ele>205.22760009766</ele>
        <time>2009-04-18T15:24:12Z</time>
      </trkpt>
      <trkpt lat="45.12017" lon="4.98555">
        <ele>204.40971374512</ele>
        <time>2009-04-18T15:24:20Z</time>
      </trkpt>
      <trkpt lat="45.12028" lon="4.98671">
        <ele>203.64041137695</ele>
        <time>2009-04-18T15:24:32Z</time>
      </trkpt>
      <trkpt lat="45.12042" lon="4.98739">
        <ele>203.57244873047</ele>
        <time>2009-04-18T15:24:39Z</time>
      </trkpt>
    </trkseg>
  </trk>
</gpx>